     2              OBSERVATION DATA    GPS                 RINEX VERSION / TYPE
teqc 2000Feb29 Duncan Agnew 20030513 23:32:50UTC            PGM / RUN BY / DATE
                                                            COMMENT
L2: 1 -> 1; 150 -> 5; 250 -> 9                              COMMENT
L2: 1 -> 1; 150 -> 5; 250 -> 9                              COMMENT
L2: 1 -> 1; 150 -> 5; 250 -> 9                              COMMENT
L2: 1 -> 1; 150 -> 5; 250 -> 9                              COMMENT
L2: 1 -> 1; 150 -> 5; 250 -> 9                              COMMENT
Original Marker Name: CG09                                  COMMENT
Campaign Name: Baja 2002-3                                  COMMENT
4-Character Station Name: CG09                              COMMENT
6-Character Antenna Code: DMRCHT                            COMMENT
Vertical Measurement Point: BCR                             COMMENT
Vertical Offset to Rinex Ref. Point: 0.0348                 COMMENT
Radial Measurement Point: ECF                               COMMENT
Radial Offset to Rinex Ref. Point: 0.1897                   COMMENT
Antenna Height from Field Measurement: 1.1400 m             COMMENT
Additional Antenna Identification Info.:                    COMMENT
Turborogue and Ashtech Choke Ring                           COMMENT
Original XYZ: -2297860.5663 -4875654.6384 3398566.6582      COMMENT
New XYZ position is based on association with SCEC monument COMMENT
E1C9D2S1+0011. Position of that monument is believed to be  COMMENT
valid to within 1 m horizontally; vertical accuracy         COMMENT
should be no worse than 3-times this value.                 COMMENT
                                                            COMMENT
Revised Rinex header created by UCSD GPS archive for        COMMENT
GSAC on 11-Jul-2003 (2003:192) 16:04:10 GMT                 COMMENT
For assistance contact dagnew@ucsd.edu                      COMMENT
or anderson@python.ucsd.edu                                 COMMENT
                                                            COMMENT
CAMPO GEOTERMICO 09                                         MARKER NAME
JGG CICESE (ENSENADA)                                       OBSERVER / AGENCY
734 ASHTECH Z-XII3 CC00                                     REC # / TYPE / VERS
003 DORNE-MARGOL. TYPE T                                    ANT # / TYPE
 -2297858.3129 -4875660.8560  3398561.9802                  APPROX POSITION XYZ
        1.0893        0.0000        0.0000                  ANTENNA: DELTA H/E/N
     1     1     0                                          WAVELENGTH FACT L1/2
     7    C1    L1    L2    P1    P2    S1    S2            # / TYPES OF OBSERV
     0                                                      INTERVAL
  2003     2     6     0     0   30.000000                  TIME OF FIRST OBS
  2003     2     6    23    59   30.000000                  TIME OF LAST OBS
                                                            END OF HEADER
 03  2  6  0  0 30.0000000  0  9G26G23G 6G17G10G24G30G 5G29
  23814829.318    -3350356.66149  -2262779.86645  23814828.557    23814841.715
       214.000         153.000
  21846668.514   -15268305.74649 -11869605.08247  21846667.687    21846677.495
       232.000         191.000
  20891459.632   -23803504.74049 -18528258.27447  20891459.424    20891467.435
       244.000         210.000
  22517076.274   -15732451.68649 -12238299.45446  22517075.693    22517085.753
       229.000         184.000
  21478284.322   -17783823.43049 -13835644.63247  21478283.853    21478291.976
       238.000         197.000
  24606384.233    -1421270.03149  -1079716.77845  24606384.824    24606394.933
       211.000         146.000
  20972576.817   -24000370.20149 -18683423.53047  20972577.327    20972584.911
       241.000         204.000
  22986895.025   -10755075.75349  -8348827.33146  22986895.533    22986905.567
       221.000         170.000
  23686718.103    -7881936.94949  -6120479.90345  23686718.036    23686728.342
       215.000         155.000
 03  2  6  0  1  0.0000000  0  9G26G23G 6G17G10G24G30G 5G29
  23798022.646    -3438675.33649  -2331599.37545  23798022.162    23798035.060
       213.000         152.000
  21831628.982   -15347338.38749 -11931188.81847  21831628.148    21831638.459
       232.000         191.000
  20882524.362   -23850459.65049 -18564846.47247  20882524.169    20882531.927
       244.000         209.000
  22507301.956   -15783815.56249 -12278323.16046  22507301.350    22507311.270
       229.000         184.000
  21490755.812   -17718285.69049 -13784576.27047  21490755.130    21490763.838
       238.000         197.000
  24620605.674    -1346535.54949  -1021482.14045  24620604.550    24620616.950
       209.000         146.000
  20983158.250   -23944764.54849 -18640094.47747  20983158.682    20983166.457
       242.000         204.000
  23006035.140   -10654494.07549  -8270452.16246  23006034.883    23006045.430
       221.000         169.000
  23674722.830    -7944972.97549  -6169598.70145  23674722.890    23674733.439
       215.000         156.000
 03  2  6  0  1 30.0000000  0  9G26G23G 6G17G10G24G30G 5G29
  23781228.791    -3526926.72849  -2400366.43845  23781227.789    23781241.024
       215.000         151.000
  21816660.799   -15425996.35949 -11992480.60447  21816659.811    21816669.696
       233.000         191.000
  20873635.834   -23897168.82149 -18601243.18547  20873635.803    20873643.621
       244.000         210.000
  22497561.894   -15834999.67849 -12318206.79846  22497561.063    22497571.592
       230.000         185.000
  21503314.994   -17652286.54349 -13733148.37347  21503314.125    21503322.416
       237.000         197.000
  24634815.698    -1271861.39549   -963294.50745  24634815.672    24634826.640
       210.000         145.000
  20993832.459   -23888671.52849 -18596385.65647  20993833.002    20993840.367
       242.000         204.000
  23025203.471   -10553764.47149  -8191961.73346  23025202.684    23025214.626
       222.000         168.000
  23662769.171    -8007789.51549  -6218546.45545  23662768.576    23662779.733
       212.000         155.000
 03  2  6  0  2  0.0000000  0  9G26G23G 6G17G10G24G30G 5G29
  23764448.414    -3615107.60349  -2469078.56045  23764447.955    23764460.414
       216.000         152.000
  21801764.223   -15504277.86949 -12053479.04047  21801763.633    21801773.058
       233.000         192.000
  20864794.461   -23943630.60149 -18637447.12147  20864794.174    20864802.211
       244.000         210.000
  22487855.933   -15886004.79749 -12357950.96246  22487855.132    22487864.944
       230.000         185.000
  21515961.461   -17585828.73549 -13681363.07747  21515961.110    21515969.047
       237.000         196.000
  24649014.227    -1197247.92649   -905154.16145  24649013.123    24649024.747
       210.000         144.000
  21004598.866   -23832093.57049 -18552298.96447  21004599.358    21004606.978
       241.000         204.000
  23044399.387   -10452889.94549  -8113358.38146  23044399.174    23044411.604
       221.000         168.000
  23650857.584    -8070383.85549  -6267321.05745  23650857.102    23650867.970
       212.000         153.000
 03  2  6  0  2 30.0000000  0  9G26G23G 6G17G10G24G30G 5G29
  23747682.095    -3703214.88649  -2537733.33845  23747681.522    23747695.039
       216.000         154.000
  21786939.661   -15582181.03949 -12114182.67847  21786939.106    21786948.542
       233.000         192.000
  20856000.417   -23989843.31549 -18673456.98947  20856000.271    20856008.012
       244.000         210.000
  22478183.956   -15936831.03449 -12397555.73646  22478183.557    22478193.310
       231.000         186.000
  21528694.731   -17518915.25849 -13629222.72047  21528694.015    21528702.340
       237.000         196.000
  24663201.139    -1122695.45949   -847061.31545  24663200.681    24663212.019
       209.000         145.000
  21015457.194   -23775032.83649 -18507836.08947  21015457.541    21015465.409
       241.000         203.000
  23063622.448   -10351873.27349  -8034644.26546  23063622.646    23063633.932
       222.000         167.000
  23638988.840    -8132753.06549  -6315920.24945  23638987.659    23638999.702
       210.000         153.000
 03  2  6  0  3  0.0000000  0  9G26G23G 6G17G10G24G30G 5G29
  23730930.331    -3791245.28249  -2606328.19845  23730929.749    23730942.368
       215.000         153.000
  21772187.390   -15659704.04349 -12174590.08347  21772186.739    21772196.188
       233.000         192.000
  20847254.172   -24035805.17949 -18709271.38247  20847254.066    20847261.900
       244.000         210.000
  22468545.951   -15987478.74949 -12437021.41146  22468545.050    22468555.197
       231.000         186.000
  21541514.242   -17451548.73449 -13576729.33747  21541513.501    21541522.364
       237.000         196.000
  24677376.311    -1048204.35149   -789016.32145  24677376.847    24677387.986
       212.000         145.000
  21026406.901   -23717491.79949 -18462998.95547  21026407.341    21026415.173
       241.000         203.000
  23082871.986   -10250717.28549  -7955821.58846  23082871.810    23082884.007
       222.000         167.000
  23627163.502    -8194894.34449  -6364341.80145  23627163.275    23627173.903
       209.000         152.000
 03  2  6  0  3 30.0000000  0 10G26G23G 6G17G10G24G30G 5G15G29
  23714192.165    -3879203.29549  -2674866.66645  23714190.927    23714203.906
       215.000         151.000
  21757506.340   -15736852.91749 -12234705.95547  21757505.842    21757515.614
       234.000         193.000
  20838554.468   -24081522.26049 -18744895.03747  20838554.329    20838561.915
       243.000         210.000
  22458940.294   -16037956.80749 -12476354.87946  22458940.059    22458949.330
       231.000         186.000
  21554417.826   -17383739.72649 -13523891.15247  21554416.838    21554425.999
       236.000         196.000
  24691538.330     -973783.08949   -731025.73145  24691537.394    24691547.666
       209.000         144.000
  21037446.049   -23659480.76249 -18417795.57847  21037446.209    21037454.063
       241.000         202.000
  23102145.865   -10149432.66849  -7876898.65846  23102145.767    23102157.514
       221.000         167.000
  24754095.315    -4377004.55949  -2751476.90145  24754094.427    24754110.172
       211.000         141.000
  23615380.494    -8256813.11949  -6412590.00445  23615380.172    23615391.071
       212.000         152.000
 03  2  6  0  4  0.0000000  0 10G26G23G 6G17G10G24G30G 5G15G29
  23697470.065    -3967077.29249  -2743339.67245  23697469.283    23697481.884
       215.000         151.000
  21742898.477   -15813617.29949 -12294522.23347  21742897.705    21742907.583
       234.000         194.000
  20829903.223   -24126984.54149 -18780320.14947  20829902.918    20829910.416
       244.000         210.000
  22449368.393   -16088257.18649 -12515549.90346  22449367.806    22449377.506
       231.000         186.000
  21567406.649   -17315482.70849 -13470703.87747  21567406.035    21567414.457
       236.000         195.000
  24705688.444     -899423.72049   -673083.34145  24705688.408    24705699.981
       212.000         143.000
  21048575.787   -23600993.66249 -18372221.25147  21048575.884    21048584.162
       240.000         202.000
  23121445.267   -10048013.95649  -7797871.25046  23121444.637    23121457.103
       221.000         167.000
  24739207.779    -4455238.41349  -2812438.02745  24739206.794    24739222.071
       212.000         139.000
  23603642.159    -8318497.82549  -6460655.79845  23603641.379    23603652.466
       209.000         151.000
 03  2  6  0  4 30.0000000  0 10G26G23G 6G17G10G24G30G 5G15G29
  23680765.143    -4054861.05249  -2811742.38145  23680764.758    23680777.639
       214.000         151.000
  21728364.650   -15889992.56649 -12354035.30747  21728364.216    21728373.380
       235.000         194.000
  20821301.330   -24172187.39049 -18815543.11047  20821301.213    20821309.244
       243.000         211.000
  22439830.759   -16138377.38849 -12554604.52246  22439830.029    22439839.376
       231.000         186.000
  21580480.834   -17246777.42949 -13417167.31947  21580480.045    21580488.641
       236.000         195.000
  24719827.478     -825123.38249   -615186.97545  24719828.329    24719839.429
       214.000         145.000
  21059796.161   -23542029.75049 -18326275.38947  21059796.366    21059804.442
       239.000         201.000
  23140770.198    -9946461.13549  -7718739.34546  23140770.728    23140781.733
       221.000         166.000
  24724342.409    -4533356.24049  -2873308.74545  24724340.595    24724356.152
       211.000         137.000
  23591949.383    -8379942.68749  -6508534.70845  23591949.443    23591959.462
       212.000         151.000
 03  2  6  0  5  0.0000000  0 10G26G23G 6G17G10G24G30G 5G15G29
  23664077.983    -4142551.84049  -2880072.64245  23664078.010    23664089.917
       213.000         150.000
  21713905.203   -15965977.22249 -12413244.00447  21713904.537    21713914.244
       235.000         194.000
  20812749.048   -24217129.61349 -18850562.98547  20812748.674    20812756.866
       243.000         211.000
  22430327.259   -16188318.29049 -12593519.43846  22430326.608    22430336.291
       231.000         186.000
  21593639.726   -17177627.01949 -13363283.88847  21593638.985    21593647.874
       236.000         195.000
  24733954.941     -750883.25349   -557337.52745  24733953.710    24733966.180
       212.000         145.000
  21071106.774   -23482592.15749 -18279960.42447  21071107.326    21071115.146
       240.000         202.000
  23160120.149    -9844777.46149  -7639505.48346  23160119.963    23160130.729
       222.000         166.000
  24709498.582    -4611358.73549  -2934089.61545  24709496.372    24709514.228
       210.000         136.000
  23580302.793    -8441145.75549  -6556225.24345  23580302.296    23580312.819
       212.000         152.000
 03  2  6  0  5 30.0000000  0 10G26G23G 6G17G10G24G30G 5G15G29
  23647408.999    -4230146.85649  -2948328.27645  23647408.380    23647421.336
       213.000         150.000
  21699520.298   -16041570.06549 -12472147.39947  21699519.595    21699529.112
       236.000         195.000
  20804246.623   -24261809.93149 -18885378.78047  20804246.530    20804254.370
       244.000         211.000
  22420857.625   -16238080.91349 -12632295.42346  22420856.854    22420866.773
       231.000         185.000
  21606882.631   -17108034.91849 -13309056.29147  21606881.897    21606890.684
       236.000         195.000
  24748070.803     -676704.21449   -499535.66345  24748070.787    24748080.657
       213.000         145.000
  21082507.028   -23422683.72149 -18233278.56447  21082507.504    21082515.778
       240.000         202.000
  23179494.366    -9742966.43149  -7560172.38446  23179494.020    23179506.627
       222.000         167.000
  24694676.725    -4689246.46549  -2994781.08245  24694676.191    24694691.704
       212.000         137.000
  23568702.608    -8502104.57849  -6603725.44945  23568702.247    23568712.390
       212.000         151.000
 03  2  6  0  6  0.0000000  0 10G26G23G 6G17G10G24G30G 5G15G29
  23630758.873    -4317643.56249  -3016507.31745  23630757.607    23630770.732
       213.000         149.000
  21685210.102   -16116770.19049 -12530744.78747  21685209.092    21685218.850
       236.000         196.000
  20795794.308   -24306227.47649 -18919989.82347  20795794.271    20795801.913
       244.000         211.000
  22411421.700   -16287666.79149 -12670933.70046  22411421.246    22411431.033
       231.000         186.000
  21620208.959   -17038004.64149 -13254487.25447  21620208.181    21620216.802
       235.000         195.000
  24762174.799     -602587.08349   -441782.03545  24762174.014    24762185.384
       213.000         144.000
  21093996.229   -23362307.63349 -18186232.31247  21093996.360    21094004.549
       240.000         202.000
  23198892.097    -9641031.64249  -7480742.83946  23198891.372    23198903.898
       223.000         166.000
  24679876.627    -4767020.35849  -3055383.82445  24679875.618    24679890.024
       214.000         137.000
  23557149.225    -8562817.23949  -6651033.84245  23557148.246    23557159.437
       212.000         151.000
 03  2  6  0  6 30.0000000  0 10G26G23G 6G17G10G24G30G 5G15G29
  23614127.834    -4405039.11049  -3084607.53445  23614127.460    23614139.055
       210.000         148.000
  21670974.882   -16191576.16349 -12589035.04147  21670974.197    21670984.048
       237.000         197.000
  20787392.136   -24350380.92449 -18954395.07147  20787391.598    20787399.784
       244.000         211.000
  22402019.303   -16337076.59749 -12709434.76546  22402018.795    22402028.326
       231.000         186.000
  21633618.057   -16967539.19649 -13199579.12647  21633617.448    21633625.924
       237.000         194.000
  24776266.994     -528532.60349   -384077.22545  24776266.388    24776278.363
       212.000         144.000
  21105573.884   -23301466.78749 -18138823.90547  21105574.615    21105582.219
       239.000         201.000
  23218312.710    -9538976.30249  -7401219.36946  23218312.587    23218323.974
       221.000         165.000
  24665098.208    -4844680.53849  -3115898.00645  24665098.158    24665112.024
       211.000         136.000
  23545643.295    -8623281.26349  -6698148.49645  23545642.961    23545653.880
       212.000         152.000
 03  2  6  0  7  0.0000000  0 10G26G23G 6G17G10G24G30G 5G15G29
  23597516.793    -4492329.98949  -3152626.18545  23597517.009    23597528.150
       210.000         147.000
  21656815.055   -16265986.44049 -12647016.96847  21656814.489    21656823.768
       236.000         198.000
  20779040.518   -24394268.64149 -18988593.26447  20779040.430    20779048.044
       244.000         211.000
  22392650.238   -16386311.09549 -12747799.24146  22392649.741    22392659.346
       232.000         186.000
  21647109.488   -16896641.49149 -13144334.18247  21647108.439    21647117.578
       236.000         194.000
  24790346.994     -454541.42749   -326421.74745  24790347.430    24790357.947
       213.000         146.000
  21117239.572   -23240163.59949 -18091055.22947  21117240.169    21117247.635
       240.000         201.000
  23237755.650    -9436803.15549  -7321604.10046  23237756.046    23237766.571
       220.000         164.000
  24650341.324    -4922227.36449  -3176323.82045  24650338.955    24650358.997
       207.000         132.000
  23534184.991    -8683494.10449  -6745067.43445  23534184.563    23534194.776
       211.000         151.000
 03  2  6  0  7 30.0000000  0 11G26G23G 6G17G10G24G30G 5G15G18G29
  23580925.988    -4579514.05249  -3220561.61445  23580926.075    23580938.464
       210.000         147.000
  21642730.550   -16340000.18849 -12704689.91347  21642730.060    21642739.289
       237.000         198.000
  20770739.679   -24437889.83749 -19022583.77747  20770739.326    20770747.378
       244.000         212.000
  22383314.241   -16435371.88649 -12786028.35946  22383313.724    22383323.084
       232.000         186.000
  21660682.429   -16825315.54349 -13088755.53747  21660681.692    21660690.526
       236.000         194.000
  24804414.890     -380614.58349   -268816.39545  24804415.431    24804425.959
       213.000         145.000
  21128992.500   -23178401.57649 -18042929.02147  21128993.232    21129000.838
       239.000         202.000
  23257220.319    -9334516.12649  -7241900.08746  23257220.581    23257232.106
       220.000         164.000
  24635605.709    -4999661.74949  -3236661.99544  24635603.527    24635619.288
       206.000         130.000
                  -2637884.57849  -1243690.56044                  24775203.812
       209.000         125.000
  23522774.787    -8743453.88749  -6791789.19245  23522774.252    23522785.041
       210.000         151.000
 03  2  6  0  8  0.0000000  0 11G26G23G 6G17G10G24G30G 5G15G18G29
  23564354.966    -4666593.74649  -3288415.69945  23564354.027    23564367.274
       207.000         147.000
  21628720.835   -16413621.41149 -12762056.98747  21628720.309    21628729.259
       236.000         198.000
  20762488.760   -24481248.46549 -19056369.68947  20762488.978    20762496.266
       244.000         212.000
  22374010.161   -16484264.76549 -12824126.64446  22374009.546    22374019.258
       233.000         187.000
  21674335.195   -16753569.82549 -13032849.80347  21674334.630    21674343.291
       236.000         194.000
  24818469.184     -306758.09049   -211265.85445  24818468.112    24818478.716
       213.000         143.000
  21140831.184   -23116188.97549 -17994451.72147  21140831.917    21140839.860
       239.000         202.000
  23276705.048    -9232123.79649  -7162114.04946  23276704.543    23276717.095
       219.000         164.000
  24620890.488    -5076989.53549  -3296917.15844  24620890.762    24620906.538
       205.000         129.000
  24754373.391    -2747272.42549  -1328926.91145  24754371.315    24754389.572
       208.000         136.000
  23511412.231    -8803163.61449  -6838316.10545  23511411.758    23511422.834
       210.000         151.000
 03  2  6  0  8 30.0000000  0 11G26G23G 6G17G10G24G30G 5G15G18G29
  23547806.400    -4753554.84149  -3356177.33545  23547806.653    23547818.305
       207.000         146.000
  21614788.202   -16486837.69649 -12819108.53047  21614787.604    21614796.643
       236.000         198.000
  20754290.329   -24524331.89049 -19089941.16247  20754290.434    20754297.948
       244.000         212.000
  22364740.048   -16532979.58949 -12862086.17846  22364739.843    22364749.288
       233.000         187.000
  21688069.439   -16681396.17449 -12976610.61747  21688069.142    21688077.172
       236.000         194.000
  24832511.975     -232961.57949   -153762.06545  24832512.070    24832523.612
       212.000         143.000
  21152757.187   -23053517.51949 -17945616.86747  21152757.631    21152765.831
       239.000         202.000
  23296211.258    -9129618.48649  -7082239.95246  23296211.259    23296223.168
       219.000         163.000
  24606197.543    -5154199.97949  -3357080.83744  24606195.445    24606212.070
       207.000         131.000
  24733570.489    -2856589.44749  -1414108.13545  24733567.488    24733586.207
       211.000         140.000
  23500099.910    -8862609.71349  -6884637.58945  23500099.899    23500110.201
       211.000         152.000
 03  2  6  0  9  0.0000000  0 11G26G23G 6G17G10G24G30G 5G15G18G29
  23531281.163    -4840395.51949  -3423845.19145  23531281.403    23531291.545
       208.000         146.000
  21600932.628   -16559648.68749 -12875844.26847  21600932.036    21600941.286
       238.000         198.000
  20746144.209   -24567139.90449 -19123298.02347  20746144.143    20746151.477
       244.000         212.000
  22355503.335   -16581518.57949 -12899908.70247  22355502.368    22355512.387
       233.000         188.000
  21701884.331   -16608798.69449 -12920041.17247  21701883.759    21701892.131
       236.000         194.000
  24846543.236     -159226.70149    -96306.29945  24846543.676    24846554.299
       213.000         143.000
  21164769.814   -22990391.04449 -17896427.45347  21164770.344    21164778.483
       240.000         202.000
  23315738.202    -9027004.36749  -7002281.08246  23315738.240    23315750.023
       219.000         163.000
  24591526.626    -5231294.82649  -3417154.49445  24591526.151    24591541.234
       208.000         133.000
  24712781.322    -2965834.61749  -1499233.39845  24712779.429    24712797.216
       210.000         141.000
  23488838.060    -8921790.78949  -6930752.52445  23488837.566    23488847.353
       210.000         152.000
 03  2  6  0  9 30.0000000  0 11G26G23G 6G17G10G24G30G 5G15G18G29
  23514779.269    -4927113.70549  -3491417.58545  23514777.888    23514791.360
       208.000         145.000
  21587154.237   -16632054.23649 -12932264.07247  21587153.754    21587162.539
       237.000         199.000
  20738050.585   -24609672.03249 -19156439.91347  20738050.406    20738057.896
       243.000         212.000
  22346299.832   -16629883.15749 -12937595.31847  22346298.979    22346308.851
       233.000         188.000
  21715779.006   -16535781.44349 -12863144.63747  21715778.389    21715787.081
       236.000         194.000
  24860562.244      -85555.30149    -38899.99145  24860561.671    24860573.731
       211.000         141.000
  21176868.262   -22926813.55449 -17846886.59547  21176868.889    21176876.880
       241.000         202.000
  23335285.013    -8924285.66449  -6922240.71745  23335285.518    23335296.435
       217.000         162.000
  24576877.611    -5308275.34449  -3477138.99445  24576875.893    24576892.813
       205.000         135.000
  24692005.798    -3075007.40549  -1584302.27445  24692003.752    24692020.979
       210.000         140.000
  23477626.710    -8980705.54649  -6976659.94145  23477626.407    23477634.698
       212.000         152.000
 03  2  6  0 10  0.0000000  0 11G26G23G 6G17G10G24G30G 5G15G18G29
  23498301.139    -5013706.13349  -3558891.94445  23498300.035    23498313.149
       209.000         147.000
  21573453.273   -16704052.64049 -12988366.62847  21573452.550    21573461.699
       237.000         199.000
  20730009.791   -24651926.66449 -19189365.57247  20730009.673    20730017.279
       244.000         212.000
  22337129.312   -16678074.19149 -12975146.70447  22337128.088    22337138.163
       232.000         188.000
  21729752.995   -16462347.71249 -12805923.56847  21729752.615    21729760.999
       236.000         193.000
  24874569.229      -11947.56849     18456.69645  24874570.463    24874579.241
       212.000         141.000
  21189052.048   -22862787.61749 -17796996.29947  21189052.634    21189060.546
       241.000         202.000
  23354851.198    -8821464.95649  -6842120.85945  23354851.143    23354863.519
       216.000         161.000
  24562250.295    -5385141.51049  -3537034.42245  24562248.899    24562263.943
       205.000         139.000
  24671244.450    -3184105.84549  -1669313.26045  24671242.015    24671259.476
       210.000         139.000
  23466466.642    -9039351.15649  -7022357.63745  23466466.154    23466477.140
       212.000         154.000
 03  2  6  0 10 30.0000000  0 11G26G23G 6G17G10G24G30G 5G15G18G29
  23481847.574    -5100169.42749  -3626265.69745  23481846.886    23481859.216
       209.000         148.000
  21559830.162   -16775642.27449 -13044150.66147  21559829.800    21559838.732
       239.000         199.000
  20722022.153   -24693902.08549 -19222073.65848  20722022.153    20722029.525
       245.000         213.000
  22327991.663   -16726092.40649 -13012563.42746  22327991.133    22328001.079
       232.000         187.000
  21743805.764   -16388500.26949 -12748380.13847  21743804.997    21743813.438
       236.000         193.000
  24888564.102       61596.25349     75763.63045  24888562.767    24888576.324
       208.000         140.000
  21201320.705   -22798315.83849 -17746758.59547  21201321.610    21201328.908
       241.000         202.000
  23374436.261    -8718545.31649  -6761923.92145  23374435.895    23374448.620
       216.000         160.000
  24547644.522    -5461893.43449  -3596840.84845  24547642.651    24547658.302
       213.000         145.000
  24650497.655    -3293127.94949  -1754264.81245  24650495.807    24650513.255
       213.000         140.000
  23455358.306    -9097725.13949  -7067843.64345  23455357.524    23455368.456
       214.000         155.000
 03  2  6  0 11  0.0000000  0 10G26G23G 6G17G10G30G 5G15G18G29
  23465418.376    -5186503.37549  -3693538.64645  23465417.210    23465429.238
       210.000         147.000
  21546284.584   -16846824.52349 -13099617.24747  21546283.888    21546292.759
       238.000         199.000
  20714087.462   -24735599.45949 -19254565.08648  20714087.336    20714094.678
       244.000         213.000
  22318886.305   -16773940.91049 -13049847.91246  22318885.387    22318895.519
       231.000         187.000
  21757936.065   -16314244.94849 -12690518.87447  21757935.954    21757944.031
       236.000         193.000
  21213673.151   -22733403.74449 -17696177.78847  21213673.689    21213681.638
       241.000         202.000
  23394039.016    -8615532.56649  -6681654.43245  23394038.784    23394050.933
       217.000         161.000
  24533060.115    -5538534.23649  -3656560.66545  24533059.396    24533074.732
       214.000         148.000
  24629765.245    -3402074.50849  -1839157.51545  24629763.689    24629779.175
       212.000         140.000
  23444301.548    -9155827.75649  -7113118.19845  23444301.868    23444311.410
       215.000         155.000
 03  2  6  0 11 30.0000000  0 10G26G23G 6G17G10G30G 5G15G18G29
  23449015.449    -5272700.91149  -3760705.30445  23449015.894    23449025.818
       213.000         149.000
  21532817.498   -16917594.22449 -13154762.36547  21532816.911    21532825.636
       238.000         199.000
  20706206.515   -24777013.67249 -19286835.87148  20706206.152    20706213.833
       244.000         213.000
  22309813.696   -16821617.04949 -13086998.07246  22309812.798    22309822.383
       232.000         187.000
  21772144.254   -16239580.85649 -12632339.08847  21772143.958    21772151.987
       236.000         193.000
  21226109.549   -22668050.31249 -17645253.08247  21226110.310    21226118.068
       240.000         201.000
  23413659.602    -8512426.12049  -6601311.92345  23413659.931    23413672.796
       217.000         161.000
  24518497.494    -5615060.52149  -3716191.24845  24518496.228    24518511.241
       215.000         150.000
  24609048.283    -3510939.86849  -1923986.96545  24609046.292    24609062.421
       211.000         138.000
  23433297.829    -9213652.52649  -7158176.25645  23433297.476    23433307.510
       217.000         157.000
 03  2  6  0 12  0.0000000  0 10G26G23G 6G17G10G30G 5G15G18G29
  23432639.112    -5358759.00949  -3827763.30445  23432638.982    23432650.848
       211.000         150.000
  21519429.176   -16987949.93849 -13209584.89547  21519428.630    21519437.364
       238.000         200.000
  20698379.831   -24818143.17749 -19318884.80048  20698379.830    20698387.138
       244.000         213.000
  22300773.890   -16869121.33849 -13124014.33647  22300773.336    22300782.812
       232.000         188.000
  21786429.652   -16164511.17649 -12573843.25747  21786429.219    21786437.385
       236.000         193.000
  21238629.353   -22602258.44049 -17593986.73647  21238629.613    21238637.727
       239.000         201.000
  23433297.585    -8409228.87549  -6520898.66645  23433297.626    23433309.835
       217.000         161.000
  24503956.531    -5691472.38449  -3775732.65845  24503955.605    24503970.783
       215.000         151.000
  24588347.187    -3619722.02849  -2008751.63745  24588345.862    24588362.499
       210.000         138.000
  23422347.452    -9271197.15049  -7203016.01145  23422347.286    23422356.877
       218.000         158.000
 03  2  6  0 12 30.0000000  0 10G26G23G 6G17G10G30G 5G15G18G29
  23416289.696    -5444673.77449  -3894709.60045  23416288.960    23416301.627
       213.000         151.000
  21506119.991   -17057889.64849 -13264083.26847  21506119.164    21506128.548
       237.000         200.000
  20690607.726   -24858985.84549 -19350710.21648  20690607.590    20690614.928
       244.000         213.000
  22291766.794   -16916453.84049 -13160896.73147  22291766.341    22291775.583
       231.000         188.000
  21800791.608   -16089038.49249 -12515033.40047  21800790.807    21800799.245
       235.000         192.000
  21251232.150   -22536030.28449 -17542380.42747  21251232.498    21251240.642
       240.000         200.000
  23452952.436    -8305943.35949  -6440416.62645  23452952.769    23452964.519
       220.000         161.000
  24489437.436    -5767769.57149  -3835184.72445  24489436.296    24489451.350
       215.000         152.000
  24567662.296    -3728418.71649  -2093449.71745  24567660.932    24567677.363
       207.000         138.000
  23411450.936    -9328458.38949  -7247634.94945  23411450.220    23411460.274
       218.000         158.000
 03  2  6  0 13  0.0000000  0 10G26G23G 6G17G10G30G 5G15G18G29
  23399968.293    -5530442.41749  -3961542.04845  23399967.719    23399979.784
       214.000         152.000
  21492890.112   -17127412.56849 -13318256.86647  21492889.142    21492898.400
       238.000         200.000
  20682890.429   -24899540.55449 -19382311.25248  20682890.333    20682897.812
       245.000         213.000
  22282792.148   -16963615.77749 -13197646.22647  22282791.514    22282800.634
       231.000         188.000
  21815229.608   -16013166.22349 -12455912.17547  21815229.291    21815237.519
       236.000         193.000
  21263917.371   -22469369.31349 -17490436.85047  21263917.856    21263925.615
       239.000         199.000
  23472623.445    -8202572.92249  -6359868.40345  23472623.141    23472636.001
       218.000         160.000
  24474940.094    -5843953.17249  -3894548.27845  24474939.202    24474954.579
       214.000         153.000
  24546993.891    -3837028.66949  -2178080.21845  24546991.441    24547008.240
       207.000         138.000
  23400608.684    -9385434.40249  -7292031.63945  23400608.166    23400617.955
       217.000         159.000
 03  2  6  0 13 30.0000000  0 10G26G23G 6G17G10G30G 5G15G18G29
  23383675.459    -5616061.73949  -4028258.14945  23383675.708    23383687.730
       214.000         153.000
  21479739.871   -17196517.02149 -13372104.39047  21479739.226    21479748.420
       237.000         200.000
  20675228.268   -24939805.29949 -19413686.34348  20675227.788    20675235.603
       244.000         214.000
  22273849.863   -17010607.47349 -13234263.06247  22273848.705    22273858.799
       232.000         188.000
  21829743.234   -15936897.02549 -12396481.65447  21829742.454    21829751.036
       235.000         192.000
  21276684.433   -22402277.82949 -17438157.81647  21276684.578    21276692.867
       238.000         198.000
  23492310.011    -8099120.12349  -6279256.01545  23492311.171    23492322.489
       218.000         160.000
  24460464.456    -5920022.96949  -3953823.13245  24460462.944    24460477.388
       212.000         152.000
  24526342.566    -3945549.63249  -2262641.44345  24526339.818    24526356.763
       206.000         137.000
  23389821.242    -9442122.22149  -7336203.77545  23389820.194    23389829.820
       219.000         159.000
 03  2  6  0 14  0.0000000  0 10G26G23G 6G17G10G30G 5G15G18G29
  23367411.522    -5701528.45049  -4094855.32645  23367410.588    23367422.138
       213.000         153.000
  21466669.512   -17265201.72849 -13425624.84047  21466669.114    21466677.893
       238.000         200.000
  20667621.489   -24979778.80349 -19444834.49148  20667621.393    20667628.640
       245.000         213.000
  22264939.719   -17057430.13349 -13270748.18547  22264939.323    22264948.577
       232.000         189.000
  21844331.604   -15860234.23049 -12336744.42547  21844330.595    21844339.406
       235.000         192.000
  21289532.792   -22334759.01049 -17385545.79647  21289533.293    21289541.707
       238.000         198.000
  23512011.563    -7995588.39649  -6198582.11545  23512012.423    23512023.553
       218.000         159.000
  24446010.300    -5995979.54949  -4013009.77445  24446009.560    24446023.409
       208.000         150.000
  24505708.601    -4053979.68649  -2347131.81345  24505707.382    24505722.291
       203.000         137.000
  23379088.929    -9498519.75349  -7380149.70345  23379087.774    23379098.353
       217.000         160.000
 03  2  6  0 14 30.0000000  0 10G26G23G 6G17G10G30G 5G15G18G29
  23351177.341    -5786838.25649  -4161330.24045  23351177.096    23351188.141
       214.000         153.000
  21453679.535   -17333464.29549 -13478816.35147  21453678.957    21453687.918
       238.000         200.000
  20660070.786   -25019458.25249 -19475753.50348  20660070.761    20660077.985
       245.000         214.000
  22256061.974   -17104083.06949 -13307101.05447  22256061.209    22256070.937
       233.000         190.000
  21858994.608   -15783179.55449 -12276701.83947  21858993.803    21859002.169
       235.000         191.000
  21302462.255   -22266814.49049 -17332602.05947  21302462.802    21302470.620
       238.000         198.000
  23531727.880    -7891979.39349  -6117847.99245  23531727.704    23531740.224
       219.000         160.000
  24431577.742    -6071821.70749  -4072107.25245  24431575.782    24431590.106
       204.000         145.000
  24485092.240    -4162316.09349  -2431549.24345  24485090.654    24485106.367
       203.000         137.000
  23368412.614    -9554623.00949  -7423866.32045  23368411.415    23368421.816
       218.000         161.000
 03  2  6  0 15  0.0000000  0 10G26G23G 6G17G10G30G 5G15G18G29
  23334973.658    -5871988.05349  -4227680.46145  23334973.614    23334983.730
       214.000         153.000
  21440770.067   -17401303.55949 -13531678.01347  21440769.354    21440778.546
       238.000         201.000
  20652576.247   -25058842.36449 -19506442.38248  20652575.979    20652583.534
       244.000         214.000
  22247216.289   -17150567.35849 -13343322.51147  22247215.863    22247225.367
       233.000         190.000
  21873731.691   -15705736.06649 -12216356.28247  21873730.941    21873739.683
       234.000         191.000
  21315472.170   -22198447.05249 -17279328.76947  21315472.625    21315480.779
       238.000         198.000
  23551458.276    -7788296.17549  -6037056.04445  23551458.365    23551470.082
       218.000         159.000
  24417166.724    -6147549.78049  -4131115.84745  24417165.448    24417179.673
       199.000         139.000
  24464494.274    -4270556.91949  -2515892.21645  24464492.244    24464508.601
       204.000         139.000
  23357792.705    -9610429.81649  -7467351.95445  23357792.467    23357801.803
       218.000         162.000
 03  2  6  0 15 30.0000000  0 10G26G23G 6G17G10G30G 5G15G18G29
  23318801.067    -5956974.18949  -4293903.12845  23318800.920    23318813.478
       216.000         154.000
  21427941.489   -17468717.70349 -13584208.40447  21427940.755    21427949.774
       238.000         201.000
  20645138.231   -25097929.01149 -19536899.47348  20645137.739    20645145.444
       244.000         214.000
  22238402.701   -17196883.02349 -13379412.58147  22238402.564    22238411.571
       234.000         191.000
  21888542.098   -15627906.75749 -12155710.07447  21888541.108    21888550.116
       234.000         191.000
  21328562.076   -22129659.24049 -17225727.92247  21328562.583    21328571.020
       238.000         198.000
  23571202.333    -7684541.49849  -5956208.41345  23571202.336    23571214.791
       219.000         158.000
  24402777.424    -6223163.69049  -4190035.48745  24402776.909    24402792.443
       200.000         135.000
  24443914.800    -4378699.81749  -2600158.91745  24443913.081    24443928.127
       205.000         140.000
  23347229.806    -9665937.20549  -7510604.28345  23347229.250    23347239.078
       218.000         162.000
 03  2  6  0 16  0.0000000  0 10G26G23G 6G17G10G30G 5G15G18G29
  23302660.243    -6041793.68749  -4359995.97645  23302659.854    23302670.331
       214.000         154.000
  21415193.996   -17535705.62549 -13636406.68047  21415193.430    21415202.209
       239.000         201.000
  20637757.047   -25136716.75649 -19567123.65648  20637756.758    20637764.324
       244.000         213.000
  22229620.947   -17243031.29249 -13415372.20547  22229620.414    22229629.952
       234.000         192.000
  21903425.285   -15549694.78549 -12094765.69447  21903424.605    21903433.157
       233.000         190.000
  21341731.387   -22060454.20349 -17171801.96147  21341731.807    21341740.153
       237.000         198.000
  23590959.465    -7580718.29749  -5875307.38045  23590960.008    23590971.674
       218.000         158.000
  24388409.954    -6298664.16249  -4248866.77645  24388409.296    24388424.035
       204.000         138.000
  24423354.451    -4486742.89549  -2684347.86445  24423352.025    24423368.106
       207.000         141.000
  23336724.349    -9721142.83149  -7553621.47246  23336723.622    23336733.498
       219.000         163.000
 03  2  6  0 16 30.0000000  0 10G26G23G 6G17G10G30G 5G15G18G29
  23286551.697    -6126443.34349  -4425956.46745  23286551.916    23286562.280
       215.000         153.000
  21402527.953   -17602265.94449 -13688271.75747  21402527.379    21402536.277
       239.000         202.000
  20630433.157   -25175204.00349 -19597113.67948  20630433.308    20630440.233
       245.000         214.000
  22220870.916   -17289012.80449 -13451201.89247  22220870.611    22220879.324
       234.000         192.000
  21918380.788   -15471103.25949 -12033525.55847  21918379.931    21918388.189
       233.000         189.000
  21354979.541   -21990834.72349 -17117553.05847  21354979.965    21354988.268
       237.000         197.000
  23610728.958    -7476829.64749  -5794355.36145  23610728.323    23610741.214
       215.000         156.000
  24374064.070    -6374051.48049  -4307609.89545  24374062.668    24374077.650
       207.000         140.000
  24402813.365    -4594684.72349  -2768457.93145  24402810.876    24402827.145
       207.000         142.000
  23326276.755    -9776044.37549  -7596401.72646  23326276.695    23326285.903
       219.000         164.000
 03  2  6  0 17  0.0000000  0 10G26G23G 6G17G10G30G 5G15G18G29
  23270476.310    -6210918.98449  -4491781.37945  23270475.815    23270487.501
       214.000         154.000
  21389943.665   -17668396.49049 -13739801.95147  21389943.051    21389951.997
       239.000         202.000
  20623166.925   -25213388.30049 -19626867.63448  20623166.519    20623174.006
       244.000         214.000
  22212152.766   -17334827.05449 -13486901.24547  22212152.167    22212161.529
       234.000         192.000
  21933408.075   -15392134.28049 -11971991.29747  21933407.388    21933415.711
       233.000         189.000
  21368306.172   -21920802.83549 -17062982.79447  21368306.669    21368314.884
       237.000         196.000
  23630510.452    -7372877.82049  -5713354.10745  23630510.128    23630523.505
       215.000         155.000
  24359739.809    -6449325.01149  -4366264.39345  24359739.064    24359753.427
       209.000         143.000
  24382292.116    -4702522.25749  -2852486.73645  24382290.591    24382305.589
       210.000         143.000
  23315887.816    -9830638.30249  -7638942.29446  23315887.087    23315896.857
       219.000         164.000
 03  2  6  0 17 30.0000000  0 10G26G23G 6G17G10G30G 5G15G18G29
  23254434.756    -6295217.38649  -4557468.18445  23254435.239    23254444.568
       216.000         154.000
  21377441.419   -17734096.07649 -13790996.33547  21377440.626    21377449.124
       239.000         202.000
  20615958.561   -25251268.15449 -19656384.37348  20615958.339    20615965.899
       244.000         213.000
  22203466.245   -17380474.67949 -13522470.75147  22203465.321    22203474.867
       234.000         192.000
  21948506.550   -15312790.84749 -11910165.24747  21948505.536    21948514.543
       232.000         188.000
  21381710.759   -21850361.57449 -17008093.53247  21381711.229    21381719.433
       238.000         197.000
  23650303.510    -7268865.52649  -5632305.73845  23650304.555    23650316.213
       216.000         155.000
  24345437.230    -6524485.05849  -4424830.47445  24345436.055    24345450.260
       213.000         148.000
  24361791.169    -4810253.32149  -2936432.61645  24361789.584    24361805.517
       211.000         145.000
  23305557.858    -9884922.30249  -7681241.36046  23305558.158    23305567.071
       218.000         164.000
 03  2  6  0 18  0.0000000  0 10G26G23G 6G17G10G30G 5G15G18G29
  23238427.638    -6379335.01649  -4623014.14245  23238427.371    23238438.215
       214.000         155.000
  21365021.377   -17799363.31949 -13841853.82247  21365020.494    21365029.539
       238.000         202.000
  20608808.475   -25288841.62849 -19685662.37348  20608808.109    20608815.798
       244.000         214.000
  22194811.334   -17425956.33049 -13557910.91747  22194810.552    22194819.934
       233.000         192.000
  21963675.800   -15233075.83749 -11848049.66447  21963675.334    21963683.502
       233.000         188.000
  21395192.798   -21779513.44449 -16952887.22547  21395193.286    21395201.233
       237.000         197.000
  23670107.486    -7164795.47649  -5551212.37845  23670107.316    23670121.136
       212.000         155.000
  24331156.080    -6599531.93049  -4483308.37845  24331154.872    24331168.960
       213.000         151.000
  24341310.997    -4917876.02149  -3020294.07845  24341309.862    24341324.924
       210.000         146.000
  23295287.301    -9938893.74349  -7723296.88146  23295286.549    23295297.145
       217.000         164.000
 03  2  6  0 18 30.0000000  0 10G26G23G 6G17G10G30G 5G15G18G29
  23222455.390    -6463268.39349  -4688416.50945  23222454.939    23222466.491
       213.000         154.000
  21352683.907   -17864196.49849 -13892373.07247  21352683.375    21352692.100
       239.000         202.000
  20601717.173   -25326106.91149 -19714700.22548  20601717.448    20601724.243
       245.000         214.000
  22186187.903   -17471272.42249 -13593222.08747  22186187.232    22186196.105
       233.000         192.000
  21978915.300   -15152992.01449 -11785646.69547  21978914.654    21978923.259
       232.000         188.000
  21408751.678   -21708261.24849 -16897366.06647  21408752.059    21408760.309
       237.000         197.000
  23689921.895    -7060670.39949  -5470076.12645  23689922.158    23689934.184
       212.000         154.000
  24316896.556    -6674465.11849  -4541697.70845  24316895.573    24316909.844
       212.000         151.000
  24320851.760    -5025388.42249  -3104069.61545  24320850.076    24320865.563
       213.000         146.000
  23285076.731    -9992549.73849  -7765106.61346  23285076.427    23285086.674
       218.000         164.000
 03  2  6  0 19  0.0000000  0 10G26G23G 6G17G10G30G 5G15G18G29
  23206518.756    -6547013.78249  -4753672.43445  23206518.272    23206529.206
       213.000         152.000
  21340429.429   -17928593.84149 -13942552.71747  21340428.669    21340437.520
       239.000         203.000
  20594684.972   -25363061.81749 -19743496.21348  20594684.527    20594692.184
       244.000         214.000
  22177595.939   -17516423.04149 -13628404.30547  22177595.000    22177604.686
       232.000         191.000
  21994224.444   -15072541.90649 -11722958.30847  21994223.676    21994232.131
       232.000         188.000
  21422387.045   -21636607.11149 -16841531.70647  21422387.310    21422395.721
       237.000         197.000
  23709746.409    -6956492.75849  -5388898.90745  23709746.324    23709758.708
       211.000         153.000
  24302658.724    -6749284.39149  -4599998.26345  24302657.830    24302672.324
       213.000         152.000
  24300414.125    -5132787.66749  -3187756.99445  24300413.044    24300427.603
       212.000         146.000
  23274926.853   -10045887.14349  -7806668.08846  23274925.634    23274936.710
       217.000         165.000
 03  2  6  0 19 30.0000000  0 10G26G23G 6G17G10G30G 5G15G18G29
  23190618.745    -6630568.04049  -4818779.42245  23190618.749    23190629.587
       212.000         152.000
  21328257.983   -17992554.56949 -13992392.14547  21328257.095    21328266.195
       240.000         203.000
  20587711.894   -25399704.95749 -19772049.28348  20587711.534    20587718.958
       244.000         214.000
  22169035.275   -17561409.08949 -13663458.28247  22169034.906    22169043.942
       233.000         191.000
  22009602.656   -14991728.76249 -11659987.03246  22009601.950    22009610.296
       233.000         187.000
  21436098.273   -21564554.29649 -16785386.69647  21436098.648    21436107.099
       237.000         197.000
  23729580.158    -6852265.53249  -5307683.07045  23729579.994    23729592.605
       209.000         153.000
  24288442.575    -6823990.33149  -4658210.50345  24288441.912    24288456.050
       215.000         154.000
  24279998.224    -5240072.30349  -3271355.06445  24279996.758    24280010.825
       213.000         147.000
  23264837.940   -10098903.82949  -7847979.65946  23264837.288    23264847.240
       218.000         164.000
 03  2  6  0 20  0.0000000  0 10G26G23G 6G17G10G30G 5G15G18G29
  23174755.726    -6713927.67449  -4883734.75545  23174755.051    23174766.059
       212.000         151.000
  21316169.973   -18056077.31749 -14041890.28947  21316169.313    21316177.972
       240.000         204.000
  20580798.582   -25436034.57049 -19800358.04548  20580798.350    20580805.739
       244.000         214.000
  22160505.828   -17606231.26749 -13698384.56647  22160505.181    22160514.262
       232.000         191.000
  22025049.561   -14910555.32249 -11596735.00846  22025048.906    22025057.773
       232.000         187.000
  21449884.826   -21492105.54249 -16728933.15747  21449885.144    21449893.613
       237.000         197.000
  23749422.766    -6747991.44449  -5226430.73245  23749421.847    23749436.485
       210.000         153.000
  24274247.943    -6898582.99849  -4716334.47945  24274246.559    24274261.979
       212.000         153.000
  24259604.650    -5347239.94949  -3354861.97745  24259603.436    24259618.907
       217.000         148.000
  23254810.648   -10151597.21249  -7889039.30246  23254810.610    23254819.814
       218.000         165.000
 03  2  6  0 20 30.0000000  0 10G26G23G 6G17G10G30G 5G15G18G29
  23158930.454    -6797088.97949  -4948535.57045  23158929.517    23158940.968
       213.000         151.000
  21304165.583   -18119160.32149 -14091045.77147  21304164.993    21304173.842
       240.000         204.000
  20573945.323   -25472048.66849 -19828420.93148  20573945.154    20573952.574
       244.000         214.000
  22152007.568   -17650889.53249 -13733183.12947  22152006.785    22152016.408
       233.000         191.000
  22040564.362   -14829024.37649 -11533204.40846  22040563.735    22040572.298
       233.000         187.000
  21463746.194   -21419263.46349 -16672173.12347  21463746.438    21463754.881
       237.000         196.000
  23769273.944    -6643673.07849  -5145143.87245  23769273.145    23769287.214
       210.000         155.000
  24260074.803    -6973062.33749  -4774370.12945  24260073.421    24260088.006
       211.000         152.000
  24239233.700    -5454288.49349  -3438276.08545  24239232.688    24239247.023
       215.000         148.000
  23244845.374   -10203964.57049  -7929844.88446  23244845.209    23244854.149
       218.000         165.000
 03  2  6  0 21  0.0000000  0 10G26G23G 6G17G10G30G 5G15G18G29
  23143143.626    -6880048.24749  -5013178.94845  23143143.315    23143154.486
       213.000         151.000
  21292245.198   -18181801.93849 -14139857.32347  21292244.376    21292253.177
       240.000         204.000
  20567152.450   -25507745.19849 -19856236.37748  20567152.187    20567159.386
       244.000         214.000
  22143540.415   -17695384.32849 -13767854.30747  22143539.776    22143549.145
       233.000         191.000
  22056146.709   -14747138.65249 -11469397.35746  22056145.658    22056154.456
       232.000         187.000
  21477682.032   -21346030.39849 -16615108.42947  21477682.530    21477690.736
       238.000         196.000
  23789133.041    -6539312.82549  -5063824.36945  23789133.196    23789146.158
       211.000         155.000
  24245923.271    -7047428.21849  -4832317.38645  24245921.718    24245936.040
       212.000         151.000
  24218885.905    -5561215.52849  -3521595.48545  24218884.725    24218898.848
       214.000         147.000
  23234942.768   -10256002.73849  -7970393.97646  23234941.954    23234951.039
       218.000         164.000
 03  2  6  0 21 30.0000000  0 10G26G23G 6G17G10G30G 5G15G18G29
  23127395.867    -6962802.90149  -5077662.89845  23127395.307    23127405.377
       213.000         152.000
  21280408.907   -18244001.75149 -14188324.61547  21280408.180    21280416.777
       241.000         204.000
  20560420.143   -25543123.26349 -19883803.66448  20560419.957    20560427.348
       244.000         214.000
  22135104.092   -17739716.93149 -13802399.10447  22135103.287    22135112.384
       232.000         191.000
  22071795.882   -14664901.75949 -11405316.67246  22071795.274    22071803.148
       233.000         187.000
  21491691.516   -21272410.11449 -16557742.01047  21491692.011    21491699.872
       237.000         196.000
  23808999.501    -6434914.43549  -4982475.16045  23808999.243    23809012.977
       214.000         156.000
  24231793.092    -7121681.88449  -4890177.18445  24231792.349    24231806.636
       213.000         151.000
  24198561.367    -5668019.83549  -3604819.24745  24198560.145    24198574.125
       212.000         146.000
  23225103.124   -10307710.18249  -8010685.36546  23225102.256    23225111.862
       218.000         164.000
 03  2  6  0 22  0.0000000  0 10G26G23G 6G17G10G30G 5G15G18G29
  23111687.701    -7045348.86549  -5141984.22345  23111687.142    23111698.442
       213.000         152.000
  21268657.045   -18305757.86949 -14236446.16947  21268656.136    21268665.170
       241.000         204.000
  20553749.027   -25578180.43149 -19911120.89448  20553748.886    20553756.342
       245.000         214.000
  22126698.704   -17783887.20349 -13836817.41847  22126698.096    22126707.033
       234.000         192.000
  22087511.548   -14582315.92149 -11340964.08246  22087510.814    22087519.733
       232.000         187.000
  21505774.286   -21198404.67849 -16500075.47147  21505774.732    21505783.043
       237.000         196.000
  23828873.086    -6330479.63749  -4901097.57245  23828872.875    23828886.611
       215.000         157.000
  24217684.448    -7195822.37549  -4947948.79145  24217682.737    24217697.644
       213.000         151.000
  24178260.725    -5774698.61649  -3687945.20145  24178259.249    24178274.658
       210.000         145.000
  23215326.917   -10359083.67849  -8050716.53246  23215326.474    23215335.775
       218.000         164.000
 03  2  6  0 22 30.0000000  0 10G26G23G 6G17G10G30G 5G15G18G29
  23096020.127    -7127681.65549  -5206139.44945  23096019.718    23096030.218
       216.000         153.000
  21256989.987   -18367067.94449 -14284220.16947  21256989.442    21256997.861
       241.000         205.000
  20547139.451   -25612913.92449 -19938185.91948  20547139.212    20547146.650
       244.000         214.000
  22118324.296   -17827894.76449 -13871108.94747  22118324.023    22118333.021
       234.000         192.000
  22103293.120   -14499382.99949 -11276341.04246  22103292.399    22103301.244
       232.000         187.000
  21519930.069   -21124015.95249 -16442110.27247  21519930.692    21519938.974
       237.000         197.000
  23848753.218    -6226010.23649  -4819693.02145  23848753.402    23848766.253
       214.000         158.000
  24203597.527    -7269848.92449  -5005631.63845  24203596.389    24203610.085
       216.000         151.000
  24157984.601    -5881248.79549  -3770970.92945  24157982.996    24157998.962
       208.000         143.000
  23205615.114   -10410119.50449  -8090484.57546  23205614.997    23205623.432
       218.000         164.000
 03  2  6  0 23  0.0000000  0 10G26G23G 6G17G10G30G 5G15G18G29
  23080393.652    -7209798.61049  -5270126.47345  23080393.216    23080404.231
       216.000         154.000
  21245407.997   -18427931.50749 -14331646.23247  21245407.321    21245415.980
       241.000         205.000
  20540591.562   -25647322.89249 -19964998.06748  20540591.295    20540598.755
       244.000         214.000
  22109980.513   -17871740.99949 -13905274.77047  22109980.439    22109989.259
       234.000         192.000
  22119140.028   -14416106.78749 -11211450.49546  22119139.279    22119147.648
       231.000         187.000
  21534158.043   -21049247.73949 -16383849.36547  21534158.542    21534166.793
       237.000         196.000
  23868639.138    -6121510.06349  -4738264.49745  23868638.815    23868652.248
       215.000         158.000
  24189532.077    -7343762.51549  -5063226.45845  24189531.356    24189544.865
       216.000         149.000
  24137733.176    -5987669.36849  -3853895.66545  24137733.065    24137746.173
       209.000         140.000
  23195967.730   -10460816.07049  -8129988.25346  23195966.926    23195976.503
       218.000         165.000
 03  2  6  0 23 30.0000000  0 10G26G23G 6G17G10G30G 5G15G18G29
  23064808.963    -7291696.32849  -5333942.65645  23064808.925    23064818.916
       216.000         155.000
  21233911.186   -18488347.26949 -14378723.36047  21233910.340    21233919.313
       241.000         205.000
  20534105.834   -25681405.41049 -19991555.83648  20534105.704    20534113.051
       244.000         214.000
  22101667.518   -17915426.35749 -13939315.24647  22101666.924    22101675.890
       233.000         193.000
  22135051.762   -14332490.45349 -11146294.93746  22135051.753    22135059.740
       233.000         187.000
  21548457.653   -20974102.72349 -16325294.85647  21548458.073    21548465.882
       237.000         195.000
  23888530.377    -6016981.66349  -4656813.98345  23888530.195    23888543.707
       215.000         159.000
  24175488.212    -7417563.14549  -5120733.27045  24175487.608    24175501.579
       217.000         149.000
  24117506.896    -6093958.11349  -3936717.70145  24117505.678    24117520.108
       209.000         139.000
  23186385.381   -10511170.81049  -8169225.58246  23186385.200    23186393.876
       217.000         164.000
 03  2  6  0 24  0.0000000  0 10G26G23G 6G17G10G30G 5G15G18G29
  23049266.696    -7373371.06849  -5397585.07745  23049266.665    23049276.653
       218.000         155.000
  21222499.809   -18548313.85049 -14425450.47247  21222498.980    21222507.811
       241.000         205.000
  20527682.621   -25715159.60949 -20017857.77248  20527682.441    20527689.800
       244.000         214.000
  22093384.943   -17958951.03049 -13973230.51147  22093384.228    22093393.356
       235.000         192.000
  22151027.768   -14248536.34249 -11080876.16046  22151026.463    22151035.310
       231.000         186.000
  21562828.537   -20898583.51049 -16266448.75747  21562829.254    21562837.190
       237.000         195.000
  23908426.501    -5912427.49549  -4575343.38745  23908426.431    23908439.951
       214.000         159.000
  24161465.830    -7491250.87549  -5178152.11445  24161464.666    24161478.931
       217.000         147.000
  24097306.047    -6200112.85549  -4019435.29545  24097304.463    24097318.597
       207.000         138.000
  23176868.654   -10561180.73649  -8208194.24146  23176868.408    23176877.218
       218.000         165.000
 03  2  6  0 24 30.0000000  0 10G26G23G 6G17G10G30G 5G15G18G29
  23033767.553    -7454819.32049  -5461051.01545  23033767.305    23033777.528
       219.000         157.000
  21211174.263   -18607829.83649 -14471826.47547  21211173.660    21211182.103
       241.000         205.000
  20521322.243   -25748583.54549 -20043902.35748  20521321.954    20521329.369
       244.000         214.000
  22085132.925   -18002315.58749 -14007021.01947  22085132.441    22085140.944
       233.000         192.000
  22167067.415   -14164247.20649 -11015196.33746  22167066.799    22167075.443
       231.000         185.000
  21577270.101   -20822692.67949 -16207313.08747  21577270.347    21577278.554
       237.000         195.000
  23928327.056    -5807850.18749  -4493854.76445  23928327.344    23928340.102
       216.000         159.000
  24147464.874    -7564825.55949  -5235482.87745  24147464.568    24147476.788
       217.000         146.000
  24077131.076    -6306131.20149  -4102046.65045  24077129.330    24077142.435
       208.000         140.000
  23167418.018   -10610843.38849  -8246892.27146  23167417.361    23167427.045
       218.000         165.000
 03  2  6  0 25  0.0000000  0 10G26G23G 6G17G10G30G 5G15G18G29
  23018312.134    -7536037.19149  -5524337.44645  23018310.485    23018321.589
       218.000         158.000
  21199934.750   -18666893.57949 -14517850.09147  21199934.261    21199942.587
       242.000         206.000
  20515025.100   -25781675.10349 -20069687.95348  20515024.904    20515032.085
       244.000         214.000
  22076911.339   -18045519.94349 -14040686.69047  22076910.303    22076920.126
       233.000         192.000
  22183170.336   -14079625.59149 -10949257.43946  22183169.911    22183178.336
       231.000         185.000
  21591781.851   -20746432.95949 -16147889.97447  21591782.160    21591790.352
       235.000         195.000
  23948231.547    -5703252.03949  -4412349.89445  23948231.704    23948244.659
       214.000         158.000
  24133485.501    -7638286.98549  -5292725.39345  24133484.796    24133497.613
       215.000         146.000
  24056982.497    -6412010.77349  -4184549.85645  24056981.898    24056994.876
       207.000         142.000
  23158033.962   -10660156.02849  -8285317.59446  23158033.767    23158043.753
       219.000         165.000
 03  2  6  0 25 30.0000000  0 10G26G23G 6G17G10G30G 5G15G18G29
  23002900.966    -7617021.52849  -5587441.90745  23002900.254    23002910.145
       218.000         158.000
  21188781.475   -18725504.27749 -14563520.68147  21188780.812    21188789.280
       242.000         206.000
  20508791.482   -25814432.75349 -20095213.36348  20508791.409    20508798.628
       244.000         214.000
  22068720.051   -18088564.86349 -14074228.12747  22068719.403    22068728.398
       233.000         192.000
  22199336.081   -13994674.75749 -10883062.02246  22199335.500    22199343.889
       232.000         185.000
  21606363.253   -20669807.41449 -16088181.79947  21606363.706    21606372.184
       236.000         194.000
  23968139.415    -5598636.01649  -4330831.10745  23968139.153    23968152.543
       214.000         156.000
  24119527.604    -7711635.70149  -5349880.06745  24119527.479    24119539.928
       216.000         145.000
  24036860.720    -6517749.78649  -4266943.53145  24036860.008    24036872.931
       209.000         144.000
  23148717.049   -10709116.32249  -8323468.35046  23148716.607    23148725.727
       218.000         164.000
 03  2  6  0 26  0.0000000  0 10G26G23G 6G17G10G30G 5G15G18G29
  22987535.108    -7697768.70849  -5650361.55245  22987534.751    22987544.867
       219.000         159.000
  21177714.661   -18783660.52349 -14608837.15447  21177713.824    21177722.366
       241.000         206.000
  20502621.810   -25846854.60649 -20120477.10848  20502621.650    20502628.882
       245.000         215.000
  22060559.079   -18131450.90349 -14107645.76547  22060558.363    22060567.084
       234.000         192.000
  22215563.776   -13909397.53649 -10816612.26246  22215562.966    22215571.606
       230.000         184.000
  21621013.814   -20592818.64849 -16028190.60647  21621014.353    21621022.360
       236.000         194.000
  23988050.253    -5494004.59649  -4249300.32345  23988050.528    23988063.871
       214.000         154.000
  24105591.083    -7784871.86549  -5406947.04945  24105589.138    24105603.855
       213.000         145.000
  24016766.193    -6623346.03649  -4349225.98045  24016765.879    24016778.387
       212.000         148.000
  23139467.676   -10757721.39249  -8361342.33646  23139467.320    23139476.435
       219.000         165.000
 03  2  6  0 26 30.0000000  0 10G26G23G 6G17G10G30G 5G15G18G29
  22972215.130    -7778275.17849  -5713093.65945  22972214.697    22972224.591
       221.000         161.000
  21166734.481   -18841361.23549 -14653798.66447  21166733.715    21166742.129
       242.000         206.000
  20496516.370   -25878938.74349 -20145477.70448  20496516.257    20496523.567
       244.000         215.000
  22052428.165   -18174178.75749 -14140940.14047  22052427.332    22052436.803
       234.000         192.000
  22231853.088   -13823796.44349 -10749910.14246  22231852.879    22231860.708
       231.000         184.000
  21635732.882   -20515469.54649 -15967918.64147  21635733.204    21635741.925
       235.000         193.000
  24007963.455    -5389360.40249  -4167759.56645  24007962.593    24007976.703
       212.000         151.000
  24091675.958    -7857995.19649  -5463926.07545  24091674.121    24091688.670
       210.000         144.000
  23996699.272    -6728797.50249  -4431395.61745  23996698.102    23996711.772
       214.000         151.000
  23130286.514   -10805968.79349  -8398937.60846  23130285.906    23130294.794
       220.000         166.000
 03  2  6  0 27  0.0000000  0 10G26G23G 6G17G10G30G 5G15G18G29
  22956941.478    -7858537.70949  -5775635.66945  22956941.140    22956951.271
       220.000         162.000
  21155841.280   -18898605.14849 -14698404.23347  21155840.906    21155848.929
       244.000         207.000
  20490475.515   -25910683.44649 -20170213.80148  20490475.469    20490482.508
       245.000         215.000
  22044327.324   -18216748.57149 -14174111.37347  22044326.820    22044335.859
       234.000         192.000
  22248203.471   -13737874.54449 -10682958.03446  22248202.960    22248211.216
       230.000         183.000
  21650519.937   -20437762.95749 -15907368.11247  21650520.467    21650528.658
       235.000         193.000
  24027878.621    -5284706.05549  -4086210.93645  24027877.926    24027891.720
       210.000         149.000
  24077782.231    -7931005.88549  -5520817.32045  24077780.629    24077795.147
       208.000         144.000
  23976660.308    -6834102.13449  -4513450.83545  23976658.984    23976671.938
       216.000         153.000
  23121173.751   -10853856.13149  -8436252.31546  23121174.014    23121181.989
       220.000         165.000
 03  2  6  0 27 30.0000000  0 10G26G23G 6G17G10G30G 5G15G18G29
  22941715.042    -7938552.39649  -5837984.58946  22941714.442    22941724.378
       221.000         163.000
  21145035.273   -18955391.07949 -14742652.93147  21145034.647    21145043.127
       243.000         208.000
  20484499.631   -25942086.97849 -20194684.05448  20484499.496    20484506.674
       244.000         215.000
  22036256.606   -18259160.46649 -14207159.54647  22036256.347    22036264.788
       234.000         193.000
  22264614.413   -13651634.56249 -10615758.07446  22264614.048    22264622.621
       231.000         183.000
  21665374.572   -20359701.68249 -15846541.19347  21665375.303    21665383.147
       235.000         193.000
  24047795.233    -5180044.14449  -4004656.38245  24047795.927    24047808.383
       211.000         148.000
  24063909.919    -8003904.09449  -5577620.91745  24063906.864    24063923.089
       207.000         143.000
  23956649.728    -6939257.67149  -4595389.86945  23956649.067    23956662.084
       216.000         155.000
  23112130.120   -10901380.86049  -8473284.47046  23112129.546    23112138.667
       221.000         166.000
 03  2  6  0 28  0.0000000  0 10G26G23G 6G17G10G30G 5G15G18G29
  22926536.211    -8018316.55649  -5900138.28946  22926535.620    22926546.593
       221.000         164.000
  21134316.443   -19011718.48849 -14786544.33647  21134315.838    21134324.347
       243.000         207.000
  20478588.889   -25973148.01849 -20218887.42648  20478588.728    20478596.026
       244.000         215.000
  22028215.749   -18301415.56949 -14240085.54747  22028215.524    22028224.070
       235.000         193.000
  22281085.304   -13565079.85049 -10548312.87046  22281084.856    22281093.092
       229.000         183.000
  21680296.004   -20281289.12649 -15785440.55147  21680296.603    21680304.720
       235.000         192.000
  24067712.731    -5075377.82449  -3923098.41645  24067713.209    24067726.582
       209.000         146.000
  24050058.975    -8076690.36049  -5634337.27545  24050058.191    24050071.520
       205.000         143.000
  23936667.757    -7044262.37049  -4677211.36245  23936666.551    23936679.730
       217.000         156.000
  23103155.898   -10948540.88549  -8510032.42046  23103155.708    23103164.279
       220.000         166.000
 03  2  6  0 28 30.0000000  0 10G26G23G 6G17G10G30G 5G15G18G29
  22911405.955    -8097825.97449  -5962093.50446  22911405.664    22911416.137
       222.000         165.000
  21123685.200   -19067585.78749 -14830077.22047  21123684.687    21123692.757
       244.000         208.000
  20472743.769   -26003864.17249 -20242822.06148  20472743.465    20472750.727
       245.000         215.000
  22020204.711   -18343513.89749 -14272889.38247  22020204.440    22020213.183
       236.000         194.000
  22297615.474   -13478212.90749 -10480624.36346  22297615.112    22297622.826
       231.000         182.000
  21695283.861   -20202527.56149 -15724067.96247  21695284.277    21695293.009
       235.000         192.000
  24087630.701    -4970709.19349  -3841538.64845  24087629.531    24087644.326
       206.000         144.000
  24036229.346    -8149364.29849  -5690966.11045  24036227.926    24036242.916
       208.000         145.000
  23916714.973    -7149113.77849  -4758913.40845  23916714.253    23916726.948
       216.000         157.000
  23094251.570   -10995333.19049  -8546493.84146  23094251.662    23094260.032
       221.000         166.000
 03  2  6  0 29  0.0000000  0 10G26G23G 6G17G10G30G 5G15G18G29
  22896324.873    -8177077.23249  -6023847.55746  22896324.604    22896334.485
       223.000         166.000
  21113141.732   -19122991.78549 -14873250.64747  21113141.107    21113149.738
       243.000         208.000
  20466964.555   -26034233.76149 -20266486.64248  20466964.245    20466971.569
       245.000         214.000
  22012223.332   -18385456.18749 -14305571.62547  22012222.765    22012231.249
       235.000         194.000
  22314204.706   -13391036.73049 -10412694.88246  22314203.978    22314212.680
       230.000         182.000
  21710337.585   -20123420.12049 -15662425.85347  21710338.206    21710346.264
       235.000         192.000
  24107548.434    -4866040.96849  -3759979.18845  24107549.001    24107562.028
       204.000         142.000
  24022421.153    -8221926.03549  -5747507.52145  24022420.744    24022433.555
       209.000         146.000
  23896791.637    -7253809.87749  -4840494.41345  23896790.886    23896803.529
       217.000         156.000
  23085417.664   -11041755.38749  -8582666.87646  23085417.918    23085426.207
       220.000         166.000
 03  2  6  0 29 30.0000000  0 10G26G23G 6G17G10G30G 5G15G18G29
  22881293.441    -8256066.99449  -6085397.83846  22881292.741    22881303.048
       221.000         166.000
  21102686.202   -19177935.61549 -14916063.94847  21102685.785    21102693.916
       242.000         208.000
  20461251.668   -26064255.25449 -20289879.98348  20461251.520    20461258.619
       244.000         215.000
  22004271.561   -18427242.87249 -14338132.61947  22004271.070    22004279.649
       235.000         194.000
  22330852.109   -13303554.07149 -10344526.59446  22330851.303    22330860.231
       230.000         182.000
  21725456.586   -20043969.62549 -15600516.42947  21725457.309    21725465.855
       235.000         192.000
  24127465.680    -4761375.86249  -3678422.18745  24127465.503    24127479.538
       207.000         142.000
  24008634.314    -8294375.73949  -5803961.62645  24008633.079    24008646.579
       211.000         146.000
  23876898.309    -7358348.83549  -4921952.96145  23876896.838    23876909.704
       215.000         157.000
  23076654.616   -11087805.15749  -8618549.69946  23076653.395    23076662.924
       220.000         166.000
 03  2  6  0 30  0.0000000  0 10G26G23G 6G17G10G30G 5G15G18G29
  22866312.462    -8334791.70649  -6146741.60446  22866312.231    22866322.444
       223.000         166.000
  21092318.879   -19232415.96549 -14958516.09247  21092318.152    21092326.448
       242.000         208.000
  20455605.387   -26093926.61249 -20313000.49248  20455605.169    20455612.202
       245.000         215.000
  21996349.290   -18468874.44349 -14370572.73447  21996348.395    21996357.274
       235.000         194.000
  22347557.345   -13215767.40549 -10276121.40646  22347556.369    22347564.753
       228.000         181.000
  21740640.278   -19964178.76049 -15538341.78647  21740640.688    21740649.194
       234.000         191.000
  24147381.891    -4656716.19549  -3596869.40145  24147382.605    24147396.896
       210.000         143.000
  23994868.931    -8366713.51049  -5860328.50545  23994869.038    23994880.697
       214.000         148.000
  23857035.273    -7462728.18049  -5003287.11545  23857033.339    23857047.122
       215.000         156.000
  23067962.816   -11133479.97549  -8654140.35146  23067962.562    23067971.066
       221.000         166.000
 03  2  6  0 30 30.0000000  0 10G26G23G 6G17G10G30G 5G15G18G29
  22851382.686    -8413247.85049  -6207876.09746  22851381.338    22851392.299
       220.000         166.000
  21082039.813   -19286432.01649 -15000606.44447  21082039.198    21082047.655
       242.000         208.000
  20450025.985   -26123246.33649 -20335847.00548  20450025.822    20450032.925
       244.000         214.000
  21988456.429   -18510351.20049 -14402892.22447  21988455.789    21988464.349
       235.000         194.000
  22364319.736   -13127679.99849 -10207481.87646  22364318.634    22364328.068
       229.000         181.000
  21755888.151   -19884050.71949 -15475904.40947  21755888.822    21755896.987
       234.000         191.000
  24167296.451    -4552064.83749  -3515323.09545  24167297.008    24167309.821
       211.000         144.000
  23981124.736    -8438939.48949  -5916608.29445  23981123.464    23981137.585
       213.000         150.000
  23837203.044    -7566946.22549  -5084495.59145  23837201.529    23837214.356
       216.000         156.000
  23059342.956   -11178777.30849  -8689436.86146  23059342.479    23059351.318
       220.000         167.000
 03  2  6  0 31  0.0000000  0 10G26G23G 6G17G10G30G 5G15G18G29
  22836504.594    -8491431.53949  -6268798.29646  22836504.287    22836512.938
       221.000         165.000
  21071849.478   -19339982.19249 -15042333.77747  21071848.863    21071857.018
       242.000         209.000
  20444513.956   -26152212.26949 -20358417.83548  20444513.838    20444520.890
       245.000         214.000
  21980593.016   -18551673.48249 -14435091.34347  21980592.143    21980601.283
       235.000         194.000
  22381138.978   -13039294.45049 -10138610.03246  22381138.520    22381146.773
       230.000         181.000
  21771199.780   -19803587.94849 -15413206.20947  21771200.571    21771208.806
       234.000         192.000
  24187209.129    -4447423.91449  -3433784.92045  24187209.493    24187223.158
       212.000         146.000
  23967401.733    -8511053.53049  -5972800.84745  23967401.333    23967412.907
       213.000         149.000
  23817401.931    -7671000.39549  -5165576.36345  23817399.997    23817413.008
       214.000         154.000
  23050795.346   -11223694.52849  -8724437.15246  23050794.617    23050803.608
       220.000         167.000
 03  2  6  0 31 30.0000000  0 10G26G23G 6G17G10G30G 5G15G18G29
  22821678.941    -8569339.78349  -6329505.84446  22821678.441    22821688.292
       222.000         166.000
  21061747.915   -19393065.88349 -15083697.63047  21061747.536    21061755.689
       242.000         208.000
  20439069.537   -26180822.89149 -20380711.80248  20439069.577    20439076.366
       244.000         215.000
  21972758.840   -18592842.04249 -14467170.66747  21972758.326    21972767.287
       235.000         194.000
  22398014.398   -12950613.92649 -10069508.33246  22398013.718    22398022.848
       228.000         181.000
  21786574.492   -19722793.76249 -15350249.75647  21786575.158    21786583.370
       234.000         192.000
  24207119.264    -4342796.36149  -3352257.15345  24207119.370    24207133.155
       212.000         146.000
  23953699.989    -8583056.05849  -6028906.51645  23953699.679    23953711.747
       213.000         150.000
  23797632.280    -7774888.99749  -5246528.13045  23797630.483    23797642.628
       212.000         152.000
  23042320.527   -11268229.55349  -8759139.65146  23042320.204    23042329.070
       220.000         167.000
 03  2  6  0 32  0.0000000  0 10G26G23G 6G17G10G30G 5G15G18G29
  22806906.524    -8646968.95249  -6389995.95046  22806906.707    22806916.425
       222.000         167.000
  21051735.330   -19445682.06749 -15124697.17947  21051734.797    21051743.187
       241.000         208.000
  20433693.010   -26209076.38049 -20402727.48248  20433692.769    20433699.888
       244.000         215.000
  21964953.859   -18633857.11549 -14499130.39647  21964952.930    21964962.023
       234.000         194.000
  22414945.315   -12861641.01549 -10000178.79646  22414944.347    22414953.477
       229.000         181.000
  21802011.651   -19641670.93949 -15287037.22647  21802012.431    21802020.994
       234.000         191.000
  24227026.439    -4238184.74049  -3270741.82345  24227026.998    24227041.441
       211.000         146.000
  23940019.486    -8654947.10749  -6084925.31945  23940018.620    23940030.631
       211.000         149.000
  23777894.521    -7878609.64849  -5327349.03445  23777893.257    23777905.287
       211.000         150.000
  23033918.867   -11312379.90749  -8793542.41346  23033918.790    23033927.476
       220.000         167.000
 03  2  6  0 32 30.0000000  0 10G26G23G 6G17G10G30G 5G15G18G29
  22792188.020    -8724315.21749  -6450265.60646  22792188.067    22792197.365
       222.000         167.000
  21041812.003   -19497829.31149 -15165331.32647  21041811.457    21041819.691
       242.000         208.000
  20428384.870   -26236970.67249 -20424463.27048  20428384.704    20428391.862
       244.000         214.000
  21957178.017   -18674719.07249 -14530970.82147  21957177.632    21957185.924
       234.000         194.000
  22431931.417   -12772378.27049  -9930623.42546  22431930.737    22431939.752
       228.000         181.000
  21817510.899   -19560222.05949 -15223570.62447  21817511.671    21817520.322
       234.000         191.000
  24246929.999    -4133591.11549  -3189240.50945  24246930.759    24246943.773
       212.000         146.000
  23926360.156    -8726726.53249  -6140857.12645  23926359.026    23926372.604
       212.000         150.000
  23758189.197    -7982160.12549  -5408037.35845  23758187.899    23758200.610
       211.000         149.000
  23025590.919   -11356142.77349  -8827643.24246  23025590.226    23025599.445
       220.000         167.000
 03  2  6  0 33  0.0000000  0 10G26G23G 6G17G10G30G 5G15G18G29
  22777523.965    -8801375.10749  -6510312.10746  22777523.449    22777532.391
       220.000         166.000
  21031978.022   -19549506.87449 -15205599.48847  21031977.455    21031985.673
       242.000         209.000
  20423145.427   -26264504.12849 -20445917.88048  20423145.231    20423152.540
       245.000         215.000
  21949431.292   -18715428.23849 -14562692.19047  21949430.755    21949439.888
       235.000         194.000
  22448972.031   -12682828.76249  -9860844.60746  22448971.390    22448979.566
       229.000         180.000
  21833071.654   -19478450.07549 -15159852.25447  21833071.949    21833080.687
       233.000         191.000
  24266829.745    -4029018.23049  -3107755.36045  24266831.102    24266844.180
       213.000         146.000
  23912722.054    -8798394.56149  -6196702.15145  23912720.808    23912734.074
       211.000         151.000
  23738516.433    -8085538.80549  -5488591.81845  23738516.267    23738527.763
       210.000         147.000
  23017337.197   -11399515.95649  -8861440.42846  23017337.149    23017345.608
       220.000         168.000
 03  2  6  0 33 30.0000000  0 10G26G23G 6G17G10G30G 5G15G18G29
  22762914.877    -8878145.14649  -6570132.76346  22762914.382    22762924.282
       221.000         167.000
  21022233.590   -19600713.64849 -15245500.80047  21022232.731    21022241.533
       241.000         209.000
  20417974.968   -26291674.91549 -20467089.89448  20417974.710    20417981.825
       244.000         215.000
  21941713.594   -18755984.77149 -14594294.62247  21941712.928    21941721.937
       235.000         194.000
  22466066.956   -12592995.06049  -9790844.33646  22466066.186    22466074.857
       229.000         181.000
  21848693.261   -19396357.94049 -15095884.41747  21848693.504    21848702.144
       234.000         190.000
  24286725.110    -3924468.67849  -3026288.39245  24286725.180    24286739.433
       213.000         147.000
  23899105.029    -8869951.05349  -6252460.23545  23899103.365    23899117.783
       211.000         151.000
  23718877.023    -8188743.22749  -5569010.53845  23718874.945    23718888.414
       212.000         146.000
  23009158.036   -11442496.96449  -8894932.03146  23009157.881    23009166.643
       220.000         168.000
 03  2  6  0 34  0.0000000  0 10G26G23G 6G17G10G30G 5G15G18G29
  22748361.539    -8954622.40449  -6629725.25346  22748361.197    22748371.478
       221.000         167.000
  21012578.842   -19651449.31449 -15285035.01847  21012578.215    21012586.458
       242.000         208.000
  20412873.719   -26318481.85249 -20487978.38648  20412873.502    20412880.719
       245.000         215.000
  21934024.738   -18796389.89049 -14625779.07747  21934024.331    21934032.183
       235.000         194.000
  22483215.163   -12502880.65749  -9720625.34146  22483214.045    22483223.700
       228.000         180.000
  21864375.154   -19313949.03349 -15031669.74847  21864375.828    21864384.428
       233.000         189.000
  24306615.437    -3819945.44049  -2944841.93245  24306615.630    24306629.660
       215.000         149.000
  23885509.155    -8941396.93349  -6308132.13245  23885507.927    23885521.961
       213.000         153.000
  23699271.113    -8291771.78349  -5649292.21745  23699271.156    23699282.267
       211.000         144.000
  23001053.892   -11485084.07049  -8928116.67946  23001053.262    23001062.857
       221.000         168.000
 03  2  6  0 34 30.0000000  0 10G26G23G 6G17G10G30G 5G15G18G29
  22733864.648    -9030803.10749  -6689086.65246  22733864.733    22733874.054
       222.000         167.000
  21003013.970   -19701712.85849 -15324201.35047  21003013.456    21003021.695
       242.000         209.000
  20407842.157   -26344922.94449 -20508581.80548  20407842.145    20407848.990
       245.000         215.000
  21926364.667   -18836643.69849 -14657145.62647  21926364.034    21926372.962
       234.000         194.000
  22500416.296   -12412488.04249  -9650189.55446  22500415.686    22500425.011
       228.000         180.000
  21880116.863   -19231226.29049 -14967210.52347  21880117.540    21880125.744
       233.000         189.000
  24326500.304    -3715450.83549  -2863417.79345  24326500.714    24326515.169
       216.000         150.000
  23871934.475    -9012731.80749  -6363717.51745  23871933.145    23871946.621
       211.000         154.000
  23679699.038    -8394622.54149  -5729435.35345  23679697.347    23679710.387
       211.000         143.000
  22993025.273   -11527274.62349  -8960992.34046  22993024.550    22993033.692
       221.000         169.000
 03  2  6  0 35  0.0000000  0 10G26G23G 6G17G10G30G 5G15G18G29
  22719424.981    -9106683.71349  -6748214.23146  22719423.880    22719433.728
       221.000         167.000
  20993539.200   -19751503.05449 -15362998.84447  20993538.606    20993546.786
       242.000         209.000
  20402880.596   -26370996.21449 -20528898.60748  20402880.490    20402887.435
       245.000         215.000
  21918733.168   -18876746.83549 -14688394.76447  21918732.127    21918741.521
       234.000         194.000
  22517669.880   -12321819.89949  -9579539.08346  22517668.802    22517678.033
       227.000         180.000
  21895917.812   -19148192.19349 -14902508.69047  21895918.281    21895926.578
       233.000         189.000
  24346379.213    -3610987.40649  -2782017.93245  24346380.042    24346393.177
       214.000         150.000
  23858380.756    -9083955.76849  -6419216.48145  23858379.588    23858392.532
       215.000         154.000
  23660161.282    -8497292.97449  -5809437.99245  23660160.472    23660171.334
       212.000         144.000
  22985072.505   -11569066.23349  -8993557.13646  22985071.836    22985080.611
       220.000         169.000
 03  2  6  0 35 30.0000000  0 10G26G23G 6G17G10G30G 5G15G18G29
  22705043.082    -9182260.73049  -6807105.23846  22705043.046    22705053.104
       220.000         167.000
  20984154.649   -19800818.99449 -15401426.78047  20984154.112    20984162.280
       243.000         210.000
  20397989.275   -26396700.02749 -20548927.51748  20397988.986    20397996.368
       245.000         215.000
  21911130.396   -18916699.35949 -14719526.55047  21911129.900    21911138.532
       235.000         194.000
  22534975.380   -12230879.09449  -9508676.13846  22534974.562    22534983.203
       228.000         180.000
  21911777.362   -19064849.72149 -14837566.56047  21911777.842    21911786.448
       233.000         189.000
  24366251.722    -3506557.63949  -2700644.31345  24366251.875    24366266.430
       214.000         150.000
  23844848.188    -9155068.93949  -6474629.11745  23844847.046    23844859.579
       214.000         157.000
  23640658.143    -8599781.15049  -5889298.58645  23640656.514    23640669.361
       212.000         145.000
  22977196.164   -11610456.47149  -9025809.18746  22977195.868    22977204.473
       220.000         169.000
 03  2  6  0 36  0.0000000  0 10G26G23G 6G17G10G30G 5G15G18G29
  22690719.599    -9257530.77349  -6865757.05346  22690718.303    22690729.099
       220.000         168.000
  20974860.418   -19849660.11749 -15439484.72447  20974859.947    20974867.979
       243.000         210.000
  20393168.589   -26422032.78949 -20568667.29548  20393168.473    20393175.603
       246.000         215.000
  21903556.161   -18956502.18349 -14750541.68447  21903555.734    21903563.937
       235.000         194.000
  22552332.195   -12139668.62549  -9437603.06446  22552331.646    22552339.736
       226.000         178.000
  21927695.024   -18981202.11049 -14772386.66747  21927695.622    21927704.159
       233.000         188.000
  24386117.249    -3402163.98149  -2619298.83645  24386117.832    24386132.716
       213.000         150.000
  23831336.680    -9226071.45749  -6529955.50645  23831334.980    23831348.851
       214.000         157.000
  23621190.031    -8702085.23249  -5969015.75145  23621189.341    23621200.526
       217.000         147.000
  22969396.586   -11651443.14649  -9057746.75946  22969396.588    22969405.562
       221.000         169.000
 03  2  6  0 36 30.0000000  0 10G26G23G 6G17G10G30G 5G15G18G29
  22676455.045    -9332489.95549  -6924166.61646  22676454.687    22676464.974
       220.000         168.000
  20965656.812   -19898025.04749 -15477171.61847  20965656.198    20965664.253
       242.000         210.000
  20388418.908   -26446992.55149 -20588116.42548  20388418.801    20388425.743
       245.000         215.000
  21896010.501   -18996154.76549 -14781439.73347  21896009.868    21896018.767
       236.000         195.000
  22569739.785   -12048191.06049  -9366321.85846  22569739.245    22569748.495
       227.000         179.000
  21943670.294   -18897251.85749 -14706970.93747  21943670.843    21943679.270
       233.000         188.000
  24405975.596    -3297808.56449  -2537983.15145  24405975.695    24405989.242
       211.000         149.000
  23817846.145    -9296963.14949  -6585195.54745  23817845.009    23817858.196
       218.000         159.000
  23601757.537    -8804202.62749  -6048587.44245  23601756.584    23601767.850
       217.000         150.000
  22961674.315   -11692023.56049  -9089367.76346  22961673.904    22961683.174
       221.000         169.000
 03  2  6  0 37  0.0000000  0 10G26G23G 6G17G10G30G 5G15G18G29
  22662250.180    -9407135.67849  -6982331.94646  22662249.621    22662259.190
       220.000         168.000
  20956543.819   -19945913.98349 -15514487.60447  20956543.257    20956551.403
       243.000         210.000
  20383740.386   -26471578.34549 -20607274.14948  20383740.210    20383747.139
       245.000         216.000
  21888493.124   -19035659.00149 -14812222.19647  21888492.362    21888500.814
       236.000         196.000
  22587197.622   -11956449.67949  -9294835.08846  22587196.849    22587205.372
       226.000         178.000
  21959702.402   -18813002.69349 -14641322.29646  21959703.144    21959711.175
       233.000         187.000
  24425826.010    -3193494.67949  -2456699.84645  24425826.242    24425840.425
       210.000         148.000
  23804376.652    -9367745.13849  -6640350.11745  23804375.514    23804388.055
       218.000         160.000
  23582360.782    -8906132.17049  -6128012.75045  23582359.862    23582370.868
       217.000         151.000
  22954029.666   -11732196.28149  -9120671.10346  22954029.586    22954038.324
       221.000         169.000
 03  2  6  0 37 30.0000000  0 10G26G23G 6G17G10G30G 5G15G18G29
  22648105.890    -9481464.03649  -7040249.98246  22648105.473    22648115.714
       221.000         168.000
  20947521.686   -19993325.32749 -15551431.44347  20947521.243    20947529.293
       243.000         210.000
  20379133.428   -26495787.89249 -20626138.69448  20379133.270    20379140.191
       245.000         216.000
  21881003.959   -19075014.33549 -14842888.63847  21881003.516    21881012.190
       236.000         196.000
  22604705.268   -11864446.77849  -9223144.52446  22604705.418    22604713.085
       225.000         177.000
  21975790.897   -18728457.08449 -14575442.65346  21975791.536    21975800.083
       232.000         187.000
  24445668.069    -3089224.24349  -2375450.37345  24445669.115    24445682.863
       207.000         146.000
  23790928.142    -9438416.74749  -6695418.65145  23790927.094    23790940.501
       218.000         162.000
  23563000.257    -9007871.34949  -6207289.74445  23562999.235    23563010.306
       216.000         151.000
  22946463.040   -11771958.59249  -9151654.63346  22946461.925    22946470.844
       220.000         169.000
 03  2  6  0 38  0.0000000  0 10G26G23G 6G17G10G30G 5G15G18G29
  22634022.667    -9555471.61149  -7097918.05646  22634022.842    22634031.278
       222.000         168.000
  20938590.574   -20040258.59349 -15588002.75647  20938590.126    20938598.169
       244.000         211.000
  20374598.437   -26519619.53749 -20644708.76548  20374598.579    20374605.254
       245.000         216.000
  21873543.056   -19114221.65349 -14873439.73047  21873542.612    21873551.254
       237.000         197.000
  22622261.928   -11772185.76949  -9151252.85146  22622260.335    22622269.172
       224.000         176.000
  21991935.288   -18643618.17649 -14509334.46946  21991935.510    21991944.978
       232.000         186.000
  24465501.410    -2985000.16849  -2294237.05045  24465502.125    24465517.124
       207.000         145.000
  23777500.528    -9508978.58249  -6750401.66646  23777499.390    23777512.090
       218.000         163.000
  23543676.262    -9109418.31149  -6286416.94345  23543675.812    23543686.624
       218.000         152.000
  22938974.927   -11811308.43649  -9182316.73146  22938974.638    22938983.215
       220.000         169.000
 03  2  6  0 38 30.0000000  0 10G26G23G 6G17G10G30G 5G15G18G29
  22620000.989    -9629155.40149  -7155333.83446  22620000.799    22620009.887
       221.000         169.000
  20929750.502   -20086713.46149 -15624201.28847  20929750.026    20929757.943
       244.000         211.000
  20370135.572   -26543071.98949 -20662983.36748  20370135.299    20370142.292
       245.000         216.000
  21866110.177   -19153281.75549 -14903876.11047  21866109.587    21866118.470
       236.000         197.000
  22639867.141   -11679669.45549  -9079162.23446  22639865.947    22639875.029
       223.000         174.000
  22008134.835   -18558489.39449 -14443000.41846  22008135.215    22008143.943
       233.000         187.000
  24485325.479    -2880825.15649  -2213061.95745  24485325.812    24485340.653
       208.000         144.000
  23764093.773    -9579430.89649  -6805299.34745  23764092.251    23764105.379
       218.000         162.000
  23524389.285    -9210771.39949  -6365393.07445  23524388.095    23524399.322
       218.000         154.000
  22931565.671   -11850243.87949  -9212655.94946  22931565.478    22931573.700
       220.000         169.000
 03  2  6  0 39  0.0000000  0 10G26G23G 6G17G10G30G 5G15G18G29
  22606041.696    -9702511.30949  -7212494.13846  22606041.503    22606050.655
       222.000         169.000
  20921001.704   -20132688.40349 -15660025.85247  20921001.092    20921008.978
       244.000         211.000
  20365745.270   -26566142.85449 -20680960.62648  20365745.048    20365752.062
       245.000         216.000
  21858705.215   -19192194.53849 -14934197.68847  21858704.504    21858713.321
       236.000         197.000
  22657520.616   -11586899.95449  -9006874.32446  22657519.885    22657528.741
       223.000         173.000
  22024389.158   -18473072.87249 -14376442.13846  22024389.602    22024398.182
       233.000         187.000
  24505139.865    -2776700.93049  -2131926.43345  24505140.504    24505154.725
       206.000         143.000
  23750707.943    -9649773.09249  -6860111.21945  23750707.178    23750719.747
       218.000         162.000
  23505139.542    -9311928.03149  -6444216.10845  23505138.661    23505149.390
       219.000         155.000
  22924235.855   -11888762.03649  -9242669.98446  22924235.042    22924244.041
       220.000         169.000
 03  2  6  0 39 30.0000000  0 10G26G23G 6G17G10G30G 5G15G18G29
  22592145.434    -9775535.94649  -7269396.30446  22592145.103    22592154.136
       222.000         168.000
  20912344.349   -20178182.90649 -15695476.05047  20912343.956    20912351.878
       245.000         211.000
  20361427.901   -26588830.60849 -20698639.35948  20361427.677    20361434.591
       245.000         216.000
  21851328.288   -19230960.32149 -14964404.72647  21851328.110    21851336.420
       236.000         197.000
  22675221.619   -11493880.30749  -8934391.49346  22675221.131    22675230.149
       222.000         173.000
  22040697.598   -18387371.68049 -14309662.04446  22040698.042    22040706.268
       232.000         186.000
  24524944.151    -2672630.21149  -2050832.60045  24524944.464    24524958.718
       209.000         143.000
  23737342.978    -9720005.49449  -6914837.54945  23737341.830    23737354.862
       217.000         162.000
  23485927.702    -9412885.96849  -6522884.32145  23485926.431    23485937.833
       221.000         157.000
  22916985.738   -11926860.79549  -9272357.23546  22916985.701    22916994.149
       221.000         170.000
 03  2  6  0 40  0.0000000  0 10G26G23G 6G17G10G30G 5G15G18G29
  22578312.872    -9848225.94849  -7326037.72746  22578312.290    22578321.952
       222.000         168.000
  20903778.518   -20223196.25649 -15730551.32447  20903778.106    20903785.879
       244.000         212.000
  20357183.752   -26611133.70149 -20716018.36048  20357183.605    20357190.436
       245.000         216.000
  21843979.271   -19269579.35749 -14994497.41347  21843978.279    21843987.439
       235.000         197.000
  22692969.768   -11400613.35449  -8861715.96446  22692969.264    22692977.787
       225.000         172.000
  22057059.581   -18301388.94749 -14242662.58046  22057060.445    22057068.557
       231.000         186.000
  24544737.771    -2568615.53449  -1969782.43345  24544737.632    24544753.947
       209.000         143.000
  23723998.888    -9790128.40749  -6969478.56745  23723998.638    23724010.832
       215.000         159.000
  23466754.082    -9513643.11749  -6601396.07945  23466753.205    23466763.976
       221.000         160.000
  22909816.053   -11964537.81249  -9301715.83646  22909816.014    22909824.255
       220.000         170.000
 03  2  6  0 40 30.0000000  0 10G26G23G 6G17G10G30G 5G15G18G29
  22564544.665    -9920578.34449  -7382416.07346  22564544.801    22564552.766
       222.000         169.000
  20895304.384   -20267728.14549 -15765251.43147  20895303.812    20895311.908
       244.000         212.000
  20353013.058   -26633050.68649 -20733096.49848  20353012.832    20353019.744
       245.000         216.000
  21836658.017   -19308052.34249 -15024476.29447  21836657.317    21836666.208
       236.000         197.000
  22710764.403   -11307102.23749  -8788850.15346  22710763.596    22710772.103
       223.000         172.000
  22073474.541   -18215128.03649 -14175446.34646  22073475.311    22073483.945
       232.000         187.000
  24564520.102    -2464659.67849  -1888778.12445  24564520.756    24564533.971
       210.000         143.000
  23710675.492    -9860142.06649  -7024034.46745  23710674.811    23710686.913
       216.000         158.000
  23447618.815    -9614198.17049  -6679750.34045  23447617.572    23447628.792
       219.000         160.000
  22902726.760   -12001791.63449  -9330744.67346  22902725.833    22902734.536
       219.000         170.000
 03  2  6  0 41  0.0000000  0 10G26G23G 6G17G10G30G 5G15G18G29
  22550841.326    -9992589.19149  -7438528.29146  22550841.467    22550849.460
       223.000         169.000
  20886922.043   -20311777.56949 -15799575.59647  20886921.675    20886929.329
       245.000         212.000
  20348916.255   -26654579.50649 -20749872.17148  20348916.168    20348922.884
       245.000         216.000
  21829364.506   -19346379.80149 -15054341.78347  21829363.906    21829372.429
       236.000         196.000
  22728605.013   -11213349.09849  -8715795.78646  22728604.694    22728612.731
       224.000         172.000
  22089941.894   -18128591.51649 -14108015.35546  22089942.311    22089951.224
       231.000         186.000
  24584290.959    -2360764.57249  -1807821.14245  24584290.989    24584306.089
       210.000         142.000
  23697373.042    -9930046.10349  -7078504.94945  23697371.581    23697383.611
       213.000         157.000
  23428522.465    -9714548.85749  -6757945.36545  23428521.962    23428532.553
       218.000         159.000
  22895718.509   -12038619.59949  -9359441.68146  22895718.214    22895726.444
       221.000         170.000
 03  2  6  0 41 30.0000000  0 10G26G23G 6G17G10G30G 5G15G18G29
  22537203.651   -10064254.98149  -7494371.64346  22537203.878    22537211.792
       222.000         169.000
  20878631.668   -20355343.79649 -15833523.24448  20878631.184    20878639.019
       245.000         213.000
  20344893.621   -26675718.39749 -20766344.00648  20344893.433    20344900.244
       245.000         216.000
  21822098.618   -19384561.91049 -15084094.01347  21822097.896    21822106.536
       235.000         196.000
  22746491.181   -11119356.74749  -8642554.99946  22746490.312    22746498.524
       224.000         172.000
  22106461.240   -18041782.26749 -14040371.86146  22106461.655    22106470.527
       231.000         186.000
  24604049.812    -2256932.60149  -1726913.35045  24604049.531    24604065.460
       210.000         142.000
  23684091.369    -9999840.79649  -7132890.24845  23684090.895    23684101.761
       213.000         155.000
  23409465.306    -9814692.93749  -6835979.37845  23409463.885    23409474.615
       217.000         158.000
  22888791.814   -12075019.34149  -9387804.99746  22888791.329    22888799.947
       220.000         170.000
 03  2  6  0 42  0.0000000  0 10G26G23G 6G17G10G30G 5G15G18G29
  22523632.255   -10135572.57749  -7549943.67046  22523632.004    22523641.509
       222.000         169.000
  20870433.279   -20398426.38849 -15867094.03348  20870432.670    20870440.556
       244.000         213.000
  20340945.433   -26696465.95049 -20782510.89948  20340945.227    20340952.061
       245.000         216.000
  21814860.255   -19422599.34049 -15113733.50547  21814859.917    21814868.129
       236.000         196.000
  22764422.260   -11025128.03349  -8569130.04946  22764421.319    22764430.695
       223.000         171.000
  22123031.816   -17954703.47749 -13972518.32746  22123031.664    22123041.231
       230.000         186.000
  24623796.062    -2153166.39949  -1646056.81145  24623795.511    24623810.920
       209.000         142.000
  23670830.435   -10069526.57849  -7187190.68345  23670830.055    23670842.245
       215.000         155.000
  23390447.954    -9914628.78549  -6913851.15645  23390447.210    23390457.116
       218.000         157.000
  22881946.844   -12110989.16749  -9415833.31146  22881946.918    22881954.563
       221.000         170.000
 03  2  6  0 42 30.0000000  0 10G26G23G 6G17G10G30G 5G15G18G29
  22510127.728   -10206538.91349  -7605241.98546  22510127.673    22510136.453
       223.000         170.000
  20862326.932   -20441024.97649 -15900287.67048  20862326.282    20862334.343
       244.000         213.000
  20337071.996   -26716820.93849 -20798371.90048  20337071.848    20337078.621
       245.000         215.000
  21807649.411   -19460492.37549 -15143260.48747  21807648.769    21807656.629
       236.000         196.000
  22782397.721   -10930666.35549  -8495523.55346  22782396.815    22782406.122
       224.000         172.000
  22139653.006   -17867358.58949 -13904457.44446  22139653.417    22139662.166
       231.000         185.000
  24643529.131    -2049468.81849  -1565253.75745  24643527.851    24643544.505
       210.000         141.000
  23657590.220   -10139103.96649  -7241406.63245  23657589.691    23657601.106
       215.000         155.000
  23371470.411   -10014354.71249  -6991559.35545  23371468.939    23371480.291
       218.000         157.000
  22875184.106   -12146527.11949  -9443525.10846  22875184.200    22875192.029
       221.000         171.000
 03  2  6  0 43  0.0000000  0 10G26G23G 6G17G10G30G 5G15G18G29
  22496690.762   -10277150.30549  -7660263.72746  22496690.555    22496700.390
       222.000         170.000
  20854312.882   -20483138.84249 -15933103.60648  20854312.320    20854320.248
       244.000         213.000
  20333273.635   -26736781.38649 -20813925.46948  20333273.298    20333280.284
       244.000         215.000
  21800465.965   -19498241.37949 -15172675.23647  21800465.322    21800473.916
       236.000         196.000
  22800416.955   -10835974.06449  -8421737.35846  22800415.990    22800425.779
       222.000         171.000
  22156324.422   -17779750.10049 -13836191.15546  22156324.816    22156334.187
       230.000         185.000
  24663248.835    -1945842.16449  -1484505.96845  24663249.488    24663264.483
       207.000         141.000
  23644370.672   -10208572.62049  -7295537.88945  23644369.773    23644381.628
       217.000         157.000
  23352533.349   -10113868.19749  -7069102.02645  23352532.998    23352543.736
       219.000         158.000
  22868504.047   -12181630.99749  -9470878.65946  22868503.355    22868511.704
       220.000         170.000
 03  2  6  0 43 30.0000000  0 10G26G23G 6G17G10G30G 5G15G18G29
  22483321.996   -10347403.09149  -7715006.02946  22483321.400    22483331.200
       222.000         170.000
  20846391.295   -20524767.10049 -15965541.15048  20846390.724    20846398.570
       244.000         213.000
  20329550.635   -26756345.50549 -20829170.21748  20329550.325    20329557.379
       244.000         215.000
  21793309.858   -19535846.66649 -15201977.99747  21793309.546    21793317.428
       237.000         196.000
  22818479.684   -10741053.68649  -8347773.43546  22818478.576    22818488.287
       224.000         171.000
  22173045.394   -17691881.04949 -13767721.84246  22173045.440    22173055.117
       229.000         184.000
  24682954.431    -1842288.56349  -1403815.10645  24682953.677    24682970.247
       209.000         140.000
  23631171.886   -10277932.42349  -7349584.34045  23631170.631    23631183.139
       220.000         158.000
  23333637.158   -10213167.25749  -7146477.62045  23333636.809    23333647.098
       218.000         159.000
  22861907.020   -12216298.20649  -9497891.94546  22861906.991    22861915.039
       221.000         171.000
 03  2  6  0 44  0.0000000  0 10G26G23G 6G17G10G30G 5G15G18G29
  22470021.949   -10417294.48949  -7769466.73646  22470022.127    22470030.256
       222.000         170.000
  20838562.038   -20565909.75249 -15997600.30048  20838561.554    20838569.455
       244.000         213.000
  20325903.292   -26775512.30949 -20844105.35948  20325903.140    20325910.048
       244.000         215.000
  21786180.887   -19573309.47249 -15231169.73547  21786180.541    21786188.704
       237.000         197.000
  22836585.282   -10645908.76749  -8273634.54046  22836584.571    22836593.897
       224.000         171.000
  22189815.327   -17603754.75249 -13699052.07546  22189815.470    22189824.741
       230.000         183.000
  24702645.656    -1738810.84849  -1323183.39245  24702645.305    24702661.479
       208.000         142.000
  23617993.604   -10347184.14749  -7403546.55745  23617992.714    23618004.295
       220.000         159.000
  23314781.905   -10312250.58549  -7223685.10245  23314781.273    23314791.395
       217.000         158.000
  22855393.361   -12250527.50349  -9524564.00446  22855392.891    22855401.059
       221.000         171.000
 03  2  6  0 44 30.0000000  0 10G26G23G 6G17G10G30G 5G15G18G29
  22456791.398   -10486820.71549  -7823642.89746  22456790.487    22456800.437
       221.000         170.000
  20830825.381   -20606565.87349 -16029280.33348  20830824.900    20830832.729
       245.000         213.000
  20322331.967   -26794279.63049 -20858729.22148  20322331.892    20322338.676
       244.000         215.000
  21779079.063   -19610629.48049 -15260250.20047  21779078.098    21779086.773
       236.000         197.000
  22854733.047   -10550541.55549  -8199322.42846  22854731.788    22854740.732
       224.000         171.000
  22206633.710   -17515373.93849 -13630183.97346  22206634.727    22206643.375
       230.000         183.000
  24722322.240    -1635411.04749  -1242612.39845  24722322.452    24722337.377
       207.000         142.000
  23604835.965   -10416327.57649  -7457424.39645  23604833.834    23604846.636
       219.000         159.000
  23295968.313   -10411115.51649  -7300722.41345  23295967.018    23295977.867
       219.000         158.000
  22848963.532   -12284316.27349  -9550892.79246  22848962.672    22848971.175
       220.000         172.000
 03  2  6  0 45  0.0000000  0 10G26G23G 6G17G10G30G 5G15G18G29
  22443630.940   -10555978.68549  -7877532.10546  22443630.738    22443639.935
       221.000         170.000
  20823181.389   -20646735.19049 -16060581.03748  20823180.912    20823188.554
       245.000         213.000
  20318836.880   -26812646.12749 -20873040.76048  20318836.522    20318843.780
       243.000         214.000
  21772004.300   -19647807.32649 -15289219.89247  21772004.015    21772012.361
       237.000         198.000
  22872922.552   -10454954.84549  -8124839.27446  22872921.396    22872931.221
       224.000         171.000
  22223499.910   -17426741.85949 -13561120.08946  22223500.361    22223509.458
       230.000         183.000
  24741983.494    -1532091.82649  -1162104.19445  24741984.281    24741999.314
       209.000         143.000
  23591698.814   -10485363.06249  -7511218.13345  23591697.348    23591709.687
       219.000         159.000
  23277196.633   -10509760.64349  -7377588.44545  23277196.202    23277206.347
       219.000         160.000
  22842617.716   -12317663.03149  -9576877.16046  22842617.775    22842625.216
       222.000         172.000
 03  2  6  0 45 30.0000000  0 10G26G23G 6G17G10G30G 5G15G18G29
  22430541.308   -10624764.93049  -7931131.66246  22430541.529    22430549.975
       223.000         171.000
  20815630.102   -20686417.25149 -16091502.06748  20815629.350    20815636.994
       245.000         213.000
  20315418.367   -26830610.12949 -20887038.66048  20315418.259    20315425.145
       244.000         214.000
  21764956.628   -19684843.12949 -15318078.90147  21764956.194    21764964.498
       237.000         199.000
  22891153.379   -10359151.30349  -8050187.17246  22891152.195    22891162.075
       224.000         171.000
  22240413.361   -17337861.48549 -13491862.72746  22240414.262    22240422.246
       230.000         183.000
  24761629.023    -1428855.49649  -1081660.60245  24761629.141    24761646.001
       208.000         143.000
  23578582.187   -10554290.71449  -7564927.84145  23578581.368    23578593.164
       216.000         159.000
  23258467.082   -10608183.74249  -7454281.48445  23258466.639    23258476.519
       222.000         161.000
  22836356.585   -12350565.30249  -9602515.17246  22836356.190    22836364.467
       222.000         173.000
 03  2  6  0 46  0.0000000  0 10G26G23G 6G17G10G30G 5G15G18G29
  22417522.937   -10693176.33349  -7984439.12546  22417522.802    22417531.280
       222.000         171.000
  20808171.584   -20725611.62949 -16122043.07748  20808171.023    20808178.635
       245.000         213.000
  20312076.788   -26848170.31249 -20900721.89348  20312076.652    20312083.503
       244.000         214.000
  21757935.702   -19721737.77449 -15346827.90547  21757934.785    21757943.514
       237.000         199.000
  22909424.923   -10263133.78349  -7975368.32046  22909424.216    22909434.030
       223.000         171.000
  22257373.421   -17248735.88249 -13422414.27046  22257374.240    22257382.069
       229.000         181.000
  24781258.225    -1325704.54949  -1001283.54945  24781258.322    24781275.396
       205.000         142.000
  23565486.038   -10623110.79149  -7618553.71345  23565484.844    23565496.461
       216.000         157.000
  23239780.237   -10706383.17049  -7530800.25145  23239779.735    23239788.804
       220.000         161.000
  22830180.263   -12383021.44349  -9627805.55446  22830179.775    22830188.181
       222.000         173.000
 03  2  6  0 46 30.0000000  0 10G26G23G 6G17G10G30G 5G15G18G29
  22404576.635   -10761208.92449  -8037451.42846  22404576.774    22404585.573
       223.000         172.000
  20800806.062   -20764317.34149 -16152203.31348  20800805.452    20800813.300
       245.000         214.000
  20308812.397   -26865324.53949 -20914088.80248  20308812.302    20308819.149
       244.000         214.000
  21750941.832   -19758490.72749 -15375466.50947  21750941.706    21750949.819
       237.000         200.000
  22927736.650   -10166904.51249  -7900384.47746  22927735.629    22927745.084
       222.000         171.000
  22274379.664   -17159367.63949 -13352776.75446  22274380.297    22274388.854
       229.000         181.000
  24800870.669    -1222640.97449   -920974.57045  24800871.704    24800887.423
       205.000         141.000
  23552410.433   -10691822.93549  -7672095.47745  23552409.336    23552421.724
       213.000         156.000
  23221136.254   -10804356.44849  -7607142.78945  23221136.092    23221145.767
       223.000         161.000
  22824089.291   -12415028.98249  -9652746.38446  22824089.042    22824097.291
       221.000         173.000
 03  2  6  0 47  0.0000000  0 10G26G23G 6G17G10G30G 5G15G18G29
  22391703.014   -10828859.86349  -8090166.33046  22391703.476    22391711.489
       223.000         172.000
  20793533.513   -20802534.48749 -16181982.83748  20793532.907    20793540.723
       245.000         214.000
  20305625.554   -26882071.48649 -20927138.34648  20305625.508    20305632.204
       244.000         214.000
  21743974.694   -19795103.21249 -15403995.64847  21743973.840    21743982.605
       237.000         199.000
  22946088.087   -10070466.92949  -7825238.30446  22946086.825    22946096.295
       224.000         170.000
  22291431.396   -17069760.20249 -13282952.84446  22291431.323    22291441.029
       228.000         180.000
  24820466.016    -1119667.61349   -840735.92045  24820466.379    24820482.706
       205.000         139.000
  23539355.153   -10760427.69749  -7725553.55845  23539354.274    23539367.196
       215.000         155.000
  23202535.653   -10902102.11349  -7683307.96845  23202534.270    23202544.991
       222.000         162.000
  22818084.008   -12446586.47149  -9677336.52746  22818084.439    22818092.110
       222.000         174.000
 03  2  6  0 47 30.0000000  0  9G26G23G 6G17G10G30G15G18G29
  22378903.726   -10896120.96449  -8142577.45546  22378904.257    22378912.623
       224.000         173.000
  20786354.947   -20840257.68949 -16211377.47748  20786354.556    20786362.174
       245.000         214.000
  20302517.459   -26898404.88649 -20939865.64148  20302517.380    20302524.014
       244.000         214.000
  21737035.024   -19831570.91249 -15432411.97747  21737034.244    21737043.027
       238.000         199.000
  22964479.755    -9973818.41649  -7749927.79346  22964479.692    22964487.940
       224.000         170.000
  22308529.061   -16979911.56949 -13212941.00646  22308529.836    22308538.610
       228.000         180.000
  23526321.366   -10828920.15749  -7778924.16245  23526321.007    23526331.715
       218.000         156.000
  23183979.703   -10999613.12549  -7759290.30245  23183979.515    23183988.779
       223.000         162.000
  22812165.754   -12477686.97149  -9701570.58346  22812164.857    22812173.809
       222.000         174.000
 03  2  6  0 48  0.0000000  0  9G26G23G 6G17G10G30G15G18G29
  22366177.726   -10962995.93649  -8194687.68946  22366177.348    22366186.580
       224.000         173.000
  20779269.183   -20877493.57049 -16240392.39048  20779268.542    20779276.464
       245.000         214.000
  20299486.919   -26914330.22949 -20952274.97748  20299486.628    20299493.777
       244.000         215.000
  21730121.713   -19867900.60949 -15460720.77347  21730121.180    21730129.902
       237.000         199.000
  22982909.751    -9876969.08949  -7674460.78246  22982909.493    22982917.509
       224.000         170.000
  22325670.731   -16889831.96249 -13142749.17746  22325671.429    22325679.516
       229.000         180.000
  23513307.511   -10897307.78249  -7832213.07045  23513306.417    23513318.305
       217.000         156.000
  23165467.462   -11096894.81549  -7835093.95046  23165467.301    23165477.329
       223.000         164.000
  22806333.370   -12508335.59049  -9725452.53946  22806333.444    22806341.791
       221.000         173.000
 03  2  6  0 48 30.0000000  0  9G26G23G 6G17G10G30G15G18G29
  22353526.071   -11029480.55149  -8246493.75046  22353525.566    22353534.288
       225.000         173.000
  20772276.314   -20914241.02749 -16269026.70848  20772275.613    20772283.583
       245.000         214.000
  20296534.515   -26929845.25249 -20964364.57848  20296534.392    20296541.048
       245.000         215.000
  21723234.588   -19904092.22649 -15488921.96947  21723233.778    21723242.656
       237.000         199.000
  23001377.438    -9779920.82649  -7598838.76746  23001376.738    23001385.398
       221.000         168.000
  22342855.971   -16799523.44349 -13072378.97446  22342856.492    22342865.880
       227.000         179.000
  23500313.817   -10965589.73049  -7885419.65745  23500313.052    23500323.910
       219.000         158.000
  23146999.310   -11193944.46049  -7910716.77646  23146997.447    23147008.728
       223.000         164.000
  22800587.534   -12538529.58249  -9748980.23446  22800587.472    22800595.316
       222.000         174.000
 03  2  6  0 49  0.0000000  0  9G26G23G 6G17G10G30G15G18G29
  22340949.313   -11095571.08449  -8297992.71446  22340948.823    22340957.887
       224.000         174.000
  20765376.582   -20950499.11249 -16297279.69648  20765375.769    20765383.858
       244.000         214.000
  20293660.627   -26944947.69249 -20976132.68248  20293660.551    20293667.263
       245.000         215.000
  21716373.792   -19940145.40249 -15517015.28947  21716373.597    21716381.793
       238.000         199.000
  23019882.556    -9682675.51849  -7523063.20646  23019882.387    23019890.877
       224.000         168.000
  22360084.195   -16708988.52249 -13001832.36246  22360084.636    22360093.024
       229.000         179.000
  23487340.411   -11033765.42749  -7938543.43445  23487339.443    23487350.745
       219.000         159.000
  23128575.737   -11290759.37049  -7986156.70346  23128575.051    23128584.226
       221.000         163.000
  22794928.776   -12568266.39449  -9772151.68646  22794929.039    22794936.133
       222.000         174.000
 03  2  6  0 49 30.0000000  0  9G26G23G 6G17G10G30G15G18G29
  22328448.292   -11161263.62449  -8349181.55546  22328448.197    22328456.662
       224.000         174.000
  20758570.104   -20986267.16749 -16325150.83948  20758569.731    20758577.241
       245.000         214.000
  20290865.550   -26959635.80749 -20987577.93148  20290865.286    20290872.274
       244.000         215.000
  21709539.428   -19976060.27949 -15545000.85547  21709538.569    21709547.160
       237.000         198.000
  23038424.800    -9585235.56849  -7447135.97746  23038423.921    23038433.422
       222.000         169.000
  22377355.123   -16618229.85149 -12931111.38746  22377355.559    22377364.412
       230.000         179.000
  23474387.178   -11101834.66049  -7991584.26545  23474386.191    23474397.489
       219.000         160.000
  23110197.348   -11387337.42949  -8061412.06446  23110196.664    23110206.078
       221.000         164.000
  22789357.341   -12597543.87149  -9794965.21046  22789357.186    22789364.520
       223.000         174.000
 03  2  6  0 50  0.0000000  0  9G26G23G 6G17G10G30G15G18G29
  22316023.718   -11226554.99149  -8400057.78646  22316023.988    22316032.199
       222.000         174.000
  20751856.978   -21021544.68449 -16352639.75648  20751856.479    20751864.149
       245.000         213.000
  20288149.679   -26973907.82949 -20998698.95748  20288149.526    20288156.456
       247.000         215.000
  21702731.277   -20011836.92849 -15572878.70947  21702730.762    21702739.192
       237.000         198.000
  23057003.454    -9487603.55949  -7371059.10346  23057002.989    23057011.885
       221.000         167.000
  22394668.036   -16527250.32349 -12860218.31846  22394668.663    22394677.362
       228.000         179.000
  23461454.150   -11169797.45349  -8044542.15045  23461452.964    23461464.430
       220.000         160.000
  23091864.413   -11483676.67349  -8136481.35546  23091863.575    23091873.451
       222.000         165.000
  22783873.742   -12626360.06649  -9817419.30246  22783873.802    22783881.864
       223.000         174.000
 03  2  6  0 50 30.0000000  0  9G26G23G 6G17G10G30G15G18G29
  22303675.959   -11291441.70449  -8450618.69546  22303675.597    22303684.658
       224.000         175.000
  20745237.239   -21056331.24649 -16379746.10648  20745236.612    20745244.403
       244.000         213.000
  20285513.309   -26987761.98449 -21009494.37248  20285513.181    20285519.875
       246.000         215.000
  21695949.460   -20047475.32349 -15600648.83147  21695948.707    21695957.075
       237.000         198.000
  23075618.356    -9389781.74749  -7294834.29746  23075618.302    23075626.752
       223.000         167.000
  22412022.360   -16436052.66749 -12789155.29446  22412022.390    22412031.594
       227.000         179.000
  23448541.346   -11237653.93149  -8097417.17645  23448540.393    23448551.357
       221.000         160.000
  23073577.342   -11579774.80449  -8211362.76246  23073576.086    23073586.747
       222.000         166.000
  22778478.308   -12654712.95449  -9839512.37546  22778478.078    22778486.142
       223.000         174.000
 03  2  6  0 51  0.0000000  0  9G26G23G 6G17G10G30G15G18G29
  22291405.817   -11355920.87749  -8500862.03246  22291406.201    22291414.827
       225.000         175.000
  20738710.908   -21090626.93649 -16406469.95948  20738710.519    20738717.963
       245.000         213.000
  20282956.605   -27001197.31449 -21019963.42748  20282956.401    20282962.989
       246.000         215.000
  21689193.712   -20082976.55249 -15628312.07247  21689192.974    21689201.594
       237.000         199.000
  23094268.615    -9291773.29849  -7218464.09146  23094266.982    23094276.657
       219.000         166.000
  22429417.545   -16344640.31449 -12717924.95746  22429418.087    22429426.808
       228.000         179.000
  23435648.737   -11305404.69549  -8150209.82445  23435647.729    23435659.113
       219.000         160.000
  23055336.442   -11675630.44449  -8286055.22346  23055335.843    23055344.662
       222.000         166.000
  22773171.322   -12682600.97149  -9861243.21746  22773170.732    22773178.960
       224.000         174.000
 03  2  6  0 51 30.0000000  0  9G26G23G 6G17G10G30G15G18G29
  22279214.006   -11419988.81449  -8550784.93746  22279213.851    22279222.406
       226.000         175.000
  20732278.160   -21124431.18149 -16432810.87648  20732277.483    20732285.200
       245.000         213.000
  20280479.976   -27014211.89149 -21030104.62248  20280479.786    20280486.666
       246.000         214.000
  21682464.117   -20118340.46149 -15655868.32247  21682463.683    21682472.011
       238.000         199.000
  23112953.882    -9193580.65249  -7141950.35646  23112953.465    23112962.449
       222.000         166.000
  22446853.175   -16253016.00349 -12646529.46746  22446853.866    22446862.903
       229.000         179.000
  23422776.254   -11373049.28249  -8202919.74845  23422775.210    23422786.444
       221.000         160.000
  23037142.075   -11771241.26349  -8360556.92446  23037140.480    23037150.910
       221.000         166.000
  22767953.190   -12710022.11449  -9882610.25646  22767953.114    22767961.191
       224.000         174.000
 03  2  6  0 52  0.0000000  0  9G26G23G 6G17G10G30G15G18G29
  22267100.953   -11483642.88149  -8600385.34746  22267101.157    22267108.501
       224.000         175.000
  20725938.809   -21157744.20449 -16458769.01548  20725938.162    20725945.655
       245.000         213.000
  20278083.581   -27026804.73849 -21039917.19648  20278083.275    20278090.164
       245.000         214.000
  21675760.507   -20153568.14749 -15683318.42147  21675760.293    21675768.451
       239.000         200.000
  23131673.921    -9095207.11349  -7065295.64546  23131673.735    23131681.585
       222.000         166.000
  22464328.492   -16161183.19249 -12574971.51646  22464329.338    22464337.979
       228.000         179.000
  23409923.966   -11440588.41249  -8255547.47445  23409922.928    23409934.289
       221.000         161.000
  23018994.531   -11866606.07049  -8434866.93446  23018994.042    23019003.247
       221.000         166.000
  22762824.199   -12736975.01249  -9903612.44446  22762823.845    22762831.965
       224.000         174.000
 03  2  6  0 52 30.0000000  0  9G26G23G 6G17G10G30G15G18G29
  22255067.356   -11546879.69949  -8649660.62046  22255067.547    22255075.351
       226.000         176.000
  20719693.108   -21190565.53449 -16484344.02448  20719692.645    20719699.933
       245.000         213.000
  20275767.772   -27038974.28049 -21049399.92648  20275767.378    20275774.358
       246.000         214.000
  21669082.860   -20188659.27749 -15710662.10747  21669082.536    21669090.778
       239.000         200.000
  23150427.868    -8996654.93149  -6988501.75646  23150427.313    23150436.076
       221.000         165.000
  22481842.910   -16069144.79749 -12503253.36246  22481843.214    22481851.859
       228.000         179.000
  23397091.589   -11508022.33249  -8308093.23445  23397090.371    23397100.882
       220.000         160.000
  23000894.257   -11961722.77649  -8508983.61846  23000893.623    23000903.407
       223.000         166.000
  22757784.697   -12763457.84049  -9924248.33946  22757784.993    22757792.031
       225.000         175.000
 03  2  6  0 53  0.0000000  0  9G26G23G 6G17G10G30G15G18G29
  22243113.715   -11609696.20049  -8698608.39246  22243114.133    22243121.178
       226.000         176.000
  20713540.901   -21222895.25949 -16509535.95948  20713540.364    20713548.060
       245.000         213.000
  20273532.746   -27050719.17549 -21058551.75448  20273532.545    20273539.332
       245.000         214.000
  21662431.036   -20223614.88649 -15737900.19547  21662430.711    21662438.894
       240.000         201.000
  23169215.390    -8897926.67449  -6911570.65446  23169215.216    23169223.344
       222.000         166.000
  22499395.746   -15976903.87349 -12431377.38946  22499396.242    22499405.115
       227.000         178.000
  23384279.186   -11575350.92249  -8360556.89945  23384278.201    23384289.643
       220.000         159.000
  22982841.645   -12056589.62849  -8582905.62546  22982840.690    22982849.865
       222.000         167.000
  22752834.991   -12789468.84649  -9944516.56746  22752834.910    22752842.457
       224.000         175.000
 03  2  6  0 53 30.0000000  0  9G26G23G 6G17G10G30G15G18G29
  22231240.652   -11672088.77349  -8747225.82746  22231240.193    22231248.313
       226.000         177.000
  20707482.411   -21254732.64149 -16534344.24948  20707481.919    20707489.470
       245.000         214.000
  20271378.896   -27062037.54349 -21067371.23048  20271378.627    20271385.715
       245.000         214.000
  21655805.111   -20258434.62249 -15765032.40547  21655804.758    21655812.675
       240.000         201.000
  23188035.912    -8799024.82349  -6834504.27946  23188034.778    23188043.968
       219.000         165.000
  22516986.664   -15884463.10949 -12359345.70046  22516986.954    22516996.582
       227.000         178.000
  23371486.965   -11642573.94249  -8412938.27745  23371485.187    23371496.702
       219.000         160.000
  22964836.875   -12151204.33149  -8656631.15146  22964836.355    22964845.461
       221.000         167.000
  22747975.380   -12815005.90149  -9964415.49446  22747974.705    22747982.697
       225.000         175.000
 03  2  6  0 54  0.0000000  0  9G26G23G 6G17G10G30G15G18G29
  22219448.849   -11734054.27649  -8795510.49746  22219448.246    22219457.001
       226.000         177.000
  20701517.626   -21286077.69649 -16558768.90948  20701517.068    20701524.573
       245.000         214.000
  20269306.439   -27072928.10849 -21075857.35548  20269306.101    20269312.977
       245.000         214.000
  21649204.900   -20293118.67449 -15792058.88147  21649204.288    21649212.476
       239.000         201.000
  23206888.691    -8699952.28849  -6757304.92346  23206888.126    23206896.750
       221.000         165.000
  22534615.064   -15791825.62049 -12287160.72246  22534615.650    22534625.058
       227.000         177.000
  23358714.675   -11709691.66649  -8465237.63845  23358712.590    23358723.737
       223.000         161.000
  22946880.374   -12245565.38049  -8730159.02446  22946879.596    22946888.146
       223.000         168.000
  22743206.350   -12840067.32149  -9983943.81046  22743205.966    22743213.656
       225.000         175.000
 03  2  6  0 54 30.0000000  0  9G26G23G 6G17G10G30G15G18G29
  22207738.921   -11795589.77749  -8843460.10746  22207738.922    22207746.928
       226.000         177.000
  20695646.543   -21316930.34049 -16582809.87548  20695645.962    20695653.525
       245.000         214.000
  20267315.693   -27083389.48649 -21084009.04548  20267315.390    20267322.183
       245.000         214.000
  21642630.513   -20327667.34149 -15818979.86247  21642629.629    21642638.219
       239.000         201.000
  23225773.590    -8600711.60449  -6679974.52446  23225772.502    23225781.996
       221.000         166.000
  22552280.305   -15698994.49049 -12214824.85446  22552280.831    22552290.594
       227.000         177.000
  23345962.528   -11776704.28049  -8517455.06846  23345961.457    23345972.430
       222.000         163.000
  22928972.618   -12339670.69149  -8803487.62246  22928971.283    22928981.124
       223.000         168.000
  22738528.060   -12864651.70349 -10003100.38746  22738528.005    22738535.762
       224.000         176.000
 03  2  6  0 55  0.0000000  0  9G26G23G 6G17G10G30G15G18G29
  22196111.434   -11856691.96849  -8891072.07846  22196111.622    22196120.080
       226.000         177.000
  20689869.102   -21347290.53949 -16606467.10848  20689868.422    20689876.088
       245.000         214.000
  20265406.863   -27093420.18649 -21091825.14448  20265406.671    20265413.390
       245.000         214.000
  21636081.649   -20362081.83549 -15845796.29147  21636080.933    21636088.630
       239.000         200.000
  23244689.970    -8501305.24449  -6602515.03246  23244688.837    23244697.894
       220.000         164.000
  22569981.742   -15605972.88249 -12142340.56146  22569982.286    22569991.138
       227.000         177.000
  23333230.272   -11843612.01749  -8569590.79146  23333229.421    23333239.848
       223.000         164.000
  22911113.733   -12433518.70549  -8876615.74246  22911112.797    22911122.252
       224.000         168.000
  22733940.775   -12888757.49449 -10021884.03246  22733940.520    22733947.704
       225.000         176.000
 03  2  6  0 55 30.0000000  0  9G26G23G 6G17G10G30G15G18G29
  22184567.084   -11917357.43349  -8938343.74946  22184567.064    22184575.170
       227.000         178.000
  20684185.492   -21377157.77849 -16629740.22248  20684184.867    20684192.350
       245.000         214.000
  20263580.346   -27103018.42449 -21099304.26348  20263580.215    20263587.000
       245.000         214.000
  21629558.267   -20396361.76549 -15872507.85947  21629557.629    21629565.974
       239.000         200.000
  23263637.564    -8401735.52449  -6524928.25846  23263636.440    23263645.491
       221.000         164.000
  22587718.996   -15512763.32549 -12069709.81446  22587719.387    22587729.425
       227.000         177.000
  23320517.949   -11910414.83049  -8621644.75146  23320516.722    23320527.844
       221.000         164.000
  22893304.238   -12527107.15849  -8949541.62046  22893303.566    22893312.952
       224.000         168.000
  22729445.018   -12912382.60449 -10040293.13746  22729444.653    22729452.184
       224.000         175.000
 03  2  6  0 56  0.0000000  0  9G26G23G 6G17G10G30G15G18G29
  22173106.239   -11977584.45749  -8985273.78946  22173106.298    22173113.942
       227.000         178.000
  20678595.482   -21406533.29449 -16652630.17848  20678594.907    20678602.474
       244.000         214.000
  20261836.148   -27112184.19249 -21106446.39448  20261836.053    20261842.904
       245.000         214.000
  21623060.275   -20430508.67449 -15899115.77847  21623059.777    21623067.753
       238.000         200.000
  23282615.516    -8302006.60349  -6447217.41846  23282614.921    23282623.636
       220.000         164.000
  22605491.139   -15419370.27449 -11996936.09346  22605492.044    22605501.079
       227.000         177.000
  23307825.297   -11977114.02049  -8673617.95946  23307823.719    23307835.493
       222.000         164.000
  22875544.220   -12620435.72649  -9022264.99646  22875543.171    22875552.850
       225.000         169.000
  22725040.766   -12935526.67949 -10058327.39446  22725040.402    22725048.228
       225.000         175.000
 03  2  6  0 56 30.0000000  0  9G26G23G 6G17G10G30G15G18G29
  22161729.685   -12037368.33249  -9031858.51546  22161729.354    22161737.075
       228.000         179.000
  20673099.289   -21435415.51549 -16675135.74048  20673098.692    20673106.431
       244.000         214.000
  20260174.765   -27120914.66849 -21113249.33648  20260174.633    20260181.197
       245.000         214.000
  21616587.776   -20464521.56149 -15925619.25947  21616586.868    21616595.105
       237.000         199.000
  23301623.480    -8202119.20749  -6369383.09546  23301623.262    23301631.471
       218.000         164.000
  22623298.065   -15325795.03749 -11924020.41046  22623298.306    22623307.443
       227.000         177.000
  23295152.658   -12043708.01349  -8725509.20845  23295151.072    23295163.400
       219.000         162.000
  22857834.363   -12713500.85849  -9094783.07746  22857832.962    22857842.231
       225.000         169.000
  22720728.693   -12958186.50349 -10075984.30646  22720728.577    22720736.312
       225.000         175.000
 03  2  6  0 57  0.0000000  0  9G26G23G 6G17G10G30G15G18G29
  22150437.943   -12096706.39349  -9078095.85846  22150437.461    22150445.433
       227.000         179.000
  20667696.920   -21463805.09049 -16697257.42648  20667696.491    20667703.795
       245.000         214.000
  20258596.418   -27129209.01049 -21119712.43048  20258596.286    20258603.101
       246.000         214.000
  21610140.641   -20498400.92149 -15952018.69747  21610139.802    21610147.992
       237.000         199.000
  23320660.834    -8102076.73849  -6291427.92046  23320660.443    23320668.835
       220.000         164.000
  22641138.933   -15232041.28049 -11850965.62646  22641138.986    22641149.161
       226.000         176.000
  23282499.900   -12110197.65349  -8777319.16645  23282498.182    23282510.321
       220.000         162.000
  22840174.907   -12806301.39149  -9167094.98646  22840174.077    22840183.687
       226.000         171.000
  22716508.935   -12980361.19049 -10093263.17646  22716508.848    22716515.681
       224.000         175.000
 03  2  6  0 57 30.0000000  0  9G26G23G 6G17G10G30G15G18G29
  22139231.626   -12155595.31049  -9123983.20946  22139231.519    22139239.993
       226.000         178.000
  20662388.344   -21491701.84049 -16718995.10048  20662387.827    20662395.253
       245.000         214.000
  20257101.328   -27137065.65749 -21125834.46948  20257101.251    20257107.980
       246.000         215.000
  21603718.917   -20532147.01149 -15978314.28747  21603718.487    21603726.501
       237.000         199.000
  23339727.338    -8001881.58849  -6213353.76246  23339725.564    23339735.578
       219.000         165.000
  22659013.096   -15138111.83549 -11777773.92446  22659013.062    22659023.221
       225.000         176.000
  23269867.041   -12176582.97049  -8829047.82246  23269866.157    23269876.785
       221.000         163.000
  22822566.181   -12898835.22349  -9239199.05646  22822564.807    22822574.807
       226.000         171.000
  22712381.811   -13002048.69749 -10110162.45146  22712381.396    22712389.751
       225.000         175.000
 03  2  6  0 58  0.0000000  0  9G26G23G 6G17G10G30G15G18G29
  22128111.339   -12214032.29349  -9169518.41046  22128111.107    22128119.177
       226.000         178.000
  20657173.499   -21519105.87049 -16740348.82848  20657172.667    20657180.490
       245.000         214.000
  20255689.784   -27144483.45049 -21131614.54048  20255689.558    20255696.221
       246.000         215.000
  21597322.469   -20565760.33349 -16004506.41247  21597321.785    21597330.096
       237.000         200.000
  23358822.288    -7901536.25349  -6135162.59446  23358821.055    23358831.269
       220.000         164.000
  22676920.122   -15044009.90349 -11704447.82946  22676920.984    22676929.868
       226.000         175.000
  23257254.067   -12242864.11449  -8880695.31646  23257253.259    23257264.011
       222.000         164.000
  22805008.533   -12991100.90749  -9311094.18346  22805008.391    22805016.872
       226.000         171.000
  22708347.675   -13023247.90149 -10126681.21646  22708347.688    22708354.596
       224.000         175.000
 03  2  6  0 58 30.0000000  0  9G26G23G 6G17G10G30G15G18G29
  22117077.572   -12272014.36649  -9214699.12846  22117077.096    22117085.271
       227.000         178.000
  20652052.357   -21546017.44149 -16761318.82348  20652051.792    20652059.241
       245.000         214.000
  20254361.938   -27151461.27649 -21137051.78148  20254361.807    20254368.396
       246.000         215.000
  21590951.116   -20599241.50249 -16030595.56347  21590950.476    21590958.422
       237.000         199.000
  23377945.351    -7801043.54849  -6056856.57246  23377944.876    23377954.084
       221.000         164.000
  22694859.399   -14949738.69849 -11630989.83946  22694859.756    22694869.274
       224.000         174.000
  23244660.812   -12309041.65149  -8932262.06746  23244660.057    23244671.027
       220.000         165.000
  22787502.113   -13083096.94149  -9382779.21046  22787501.411    22787509.617
       227.000         170.000
  22704406.704   -13043957.40449 -10142818.40246  22704406.556    22704413.786
       224.000         175.000
 03  2  6  0 59  0.0000000  0  9G26G23G 6G17G10G30G15G18G29
  22106130.982   -12329538.70249  -9259523.18046  22106131.434    22106138.270
       228.000         179.000
  20647024.867   -21572436.79549 -16781905.27548  20647024.213    20647031.705
       246.000         215.000
  20253118.036   -27157997.92849 -21142145.25448  20253118.028    20253124.681
       246.000         215.000
  21584604.886   -20632590.75549 -16056581.92347  21584604.319    21584612.243
       238.000         200.000
  23397096.109    -7700406.21149  -5978437.86546  23397095.438    23397104.091
       219.000         163.000
  22712830.336   -14855301.39749 -11557402.41046  22712831.024    22712840.245
       226.000         174.000
  23232087.161   -12375115.79549  -8983748.25946  23232085.712    23232096.762
       220.000         165.000
  22770047.377   -13174821.59149  -9454252.75946  22770046.235    22770055.267
       226.000         171.000
  22700559.161   -13064175.91749 -10158572.99046  22700558.181    22700566.099
       225.000         176.000
 03  2  6  0 59 30.0000000  0  9G26G23G 6G17G10G30G15G18G29
  22095272.030   -12386602.37249  -9303988.26746  22095271.362    22095279.858
       228.000         179.000
  20642091.044   -21598364.01049 -16802108.24648  20642090.258    20642097.614
       244.000         214.000
  20251958.327   -27164092.22749 -21146894.03248  20251958.101    20251964.831
       246.000         215.000
  21578283.896   -20665808.37449 -16082465.71447  21578283.405    21578291.486
       238.000         201.000
  23416273.811    -7599626.78949  -5899908.43746  23416273.731    23416281.555
       219.000         163.000
  22730832.303   -14760700.96549 -11483687.88146  22730832.902    22730842.477
       224.000         174.000
  23219533.197   -12441086.60749  -9035153.93446  23219532.802    23219543.592
       222.000         165.000
  22752644.513   -13266273.18149  -9525513.54646  22752643.253    22752652.496
       227.000         172.000
  22696805.326   -13083902.11249 -10173943.96646  22696805.229    22696813.181
       226.000         175.000
 03  2  6  1  0  0.0000000  0  9G26G23G 6G17G10G30G15G18G29
  22084501.241   -12443202.75949  -9348092.36246  22084501.168    22084509.193
       227.000         179.000
  20637250.760   -21623799.52449 -16821928.06448  20637250.169    20637257.318
       245.000         214.000
  20250882.928   -27169743.29149 -21151297.43848  20250882.716    20250889.324
       246.000         215.000
  21571987.638   -20698895.30149 -16108247.65647  21571986.774    21571995.161
       238.000         201.000
  23435478.024    -7498708.51449  -5821270.81346  23435477.237    23435485.622
       219.000         163.000
  22748864.569   -14665940.90149 -11409848.96846  22748865.298    22748875.395
       223.000         174.000
  23206998.861   -12506954.67249  -9086479.54546  23206997.820    23207008.789
       221.000         165.000
  22735293.937   -13357450.22149  -9596560.38946  22735293.724    22735301.871
       226.000         171.000
  22693145.409   -13103134.69349 -10188930.29846  22693145.392    22693153.319
       225.000         176.000
 03  2  6  1  0 30.0000000  0  9G26G23G 6G17G10G30G15G18G29
  22073819.318   -12499336.01049  -9391832.45546  22073819.413    22073826.663
       226.000         178.000
  20632504.235   -21648742.52549 -16841364.11348  20632503.825    20632511.201
       246.000         214.000
  20249892.292   -27174948.90849 -21155353.73548  20249892.081    20249898.870
       246.000         215.000
  21565716.343   -20731850.90849 -16133927.27547  21565716.075    21565723.884
       238.000         202.000
  23454708.198    -7397652.89749  -5742526.15745  23454707.244    23454715.227
       218.000         161.000
  22766926.769   -14571023.30449 -11335887.29346  22766927.164    22766937.062
       223.000         174.000
  23194484.244   -12572719.18549  -9137724.47046  23194483.014    23194494.690
       221.000         165.000
  22717996.070   -13448350.34349  -9667391.44446  22717994.710    22718004.225
       226.000         171.000
  22689579.804   -13121871.57349 -10203530.38346  22689579.931    22689586.982
       226.000         176.000
 03  2  6  1  1  0.0000000  0  9G26G23G 6G17G10G30G15G18G29
  22063226.822   -12554999.26349  -9435206.32046  22063226.816    22063233.892
       227.000         178.000
  20627851.385   -21673193.37349 -16860416.65948  20627850.806    20627858.191
       245.000         215.000
  20248986.634   -27179708.09149 -21159062.16448  20248986.438    20248993.196
       246.000         214.000
  21559470.015   -20764675.39949 -16159504.73747  21559470.019    21559477.301
       239.000         202.000
  23473963.952    -7296462.61249  -5663676.57745  23473962.914    23473971.117
       217.000         161.000
  22785018.410   -14475951.50949 -11261805.47246  22785018.200    22785028.210
       223.000         173.000
  23181989.232   -12638380.57149  -9188889.03046  23181988.263    23181999.555
       220.000         166.000
  22700751.096   -13538971.91549  -9738005.46546  22700751.187    22700758.806
       227.000         172.000
  22686108.815   -13140111.52149 -10217743.26746  22686108.244    22686115.739
       225.000         176.000
 03  2  6  1  1 30.0000000  0  9G26G23G 6G17G10G30G15G18G29
  22052724.043   -12610191.50449  -9478213.16046  22052724.457    22052731.656
       228.000         179.000
  20623291.755   -21697154.20849 -16879087.37448  20623291.203    20623298.440
       245.000         214.000
  20248165.797   -27184021.59749 -21162423.31248  20248165.637    20248172.083
       246.000         214.000
  21553248.232   -20797371.10949 -16184981.83747  21553247.677    21553255.734
       240.000         203.000
  23493244.562    -7195142.36449  -5584725.71445  23493243.616    23493252.894
       218.000         161.000
  22803138.446   -14380730.36649 -11187607.27446  22803138.166    22803148.969
       223.000         172.000
  23169513.422   -12703940.93249  -9239974.86446  23169512.101    23169523.358
       222.000         166.000
  22683559.204   -13629315.06149  -9808402.50946  22683558.569    22683566.284
       227.000         172.000
  22682732.266   -13157854.92449 -10231569.22746  22682731.891    22682739.412
       226.000         176.000
 03  2  6  1  2  0.0000000  0  9G26G23G 6G17G10G30G15G18G29
  22042311.843   -12664907.45849  -9520848.87346  22042311.645    22042319.179
       228.000         180.000
  20618825.776   -21720622.69549 -16897374.45048  20618825.284    20618832.437
       245.000         214.000
  20247430.438   -27187885.75149 -21165434.31548  20247430.366    20247436.848
       246.000         214.000
  21547051.290   -20829936.17149 -16210357.13447  21547050.577    21547058.798
       240.000         203.000
  23512549.859    -7093692.01049  -5505673.47245  23512549.051    23512557.785
       217.000         159.000
  22821286.780   -14285360.51849 -11113293.20846  22821287.302    22821297.089
       221.000         171.000
  23157057.376   -12769397.82849  -9290980.09546  23157057.073    23157067.517
       221.000         167.000
  22666421.039   -13719375.93349  -9878579.61946  22666420.094    22666428.240
       228.000         173.000
  22679450.960   -13175098.13349 -10245005.42246  22679451.023    22679458.012
       226.000         176.000
 03  2  6  1  2 30.0000000  0  9G26G23G 6G17G10G30G15G18G29
  22031990.891   -12719144.37749  -9563111.30246  22031990.630    22031998.217
       228.000         180.000
  20614453.441   -21743599.50649 -16915278.39648  20614452.781    20614460.226
       245.000         215.000
  20246780.818   -27191299.61749 -21168094.44748  20246780.595    20246787.364
       245.000         214.000
  21540879.015   -20862371.38449 -16235631.25547  21540878.630    21540886.141
       240.000         203.000
  23531879.616    -6992114.29749  -5426521.97945  23531878.919    23531887.791
       219.000         159.000
  22839462.748   -14189845.27849 -11038865.83946  22839463.808    22839473.001
       222.000         172.000
  23144620.821   -12834751.67249  -9341904.99946  23144619.793    23144631.017
       222.000         168.000
  22649336.956   -13809152.92549  -9948535.50946  22649335.701    22649344.071
       227.000         173.000
  22676265.033   -13191840.11849 -10258051.04146  22676264.439    22676272.175
       225.000         176.000
 03  2  6  1  3  0.0000000  0  9G26G23G 6G17G10G30G15G18G29
  22021761.510   -12772899.95049  -9604998.66146  22021761.682    22021769.096
       229.000         179.000
  20610174.446   -21766085.33649 -16932799.75748  20610173.993    20610181.164
       245.000         215.000
  20246216.963   -27194262.58249 -21170403.22248  20246216.746    20246223.361
       245.000         214.000
  21534731.407   -20894677.09549 -16260804.47247  21534730.906    21534738.473
       239.000         203.000
  23551232.997    -6890412.20649  -5347273.57745  23551232.381    23551240.890
       216.000         159.000
  22857665.701   -14094188.10649 -10964327.87946  22857665.857    22857676.390
       221.000         171.000
  23132203.760   -12900003.26849  -9392750.25446  23132202.150    23132213.048
       222.000         168.000
  22632307.037   -13898644.99849 -10018269.39446  22632306.111    22632314.961
       226.000         173.000
  22673174.609   -13208079.83249 -10270705.29246  22673173.818    22673181.705
       225.000         176.000
 03  2  6  1  3 30.0000000  0  9G26G23G 6G17G10G30G15G18G29
  22011624.249   -12826171.29349  -9646508.70046  22011624.260    22011631.495
       230.000         180.000
  20605988.884   -21788080.34349 -16949938.66348  20605988.261    20605995.634
       245.000         215.000
  20245739.148   -27196773.41549 -21172359.69048  20245738.967    20245745.603
       245.000         214.000
  21528608.342   -20926853.46649 -16285876.89747  21528607.435    21528615.574
       238.000         202.000
  23570609.373    -6788588.36249  -5267930.31245  23570608.777    23570617.951
       217.000         158.000
  22875895.147   -13998392.12549 -10889681.75246  22875896.686    22875905.506
       223.000         171.000
  23119806.167   -12965152.62349  -9443515.82446  23119804.862    23119815.790
       221.000         169.000
  22615331.642   -13987850.68249 -10087780.12846  22615331.022    22615338.751
       225.000         173.000
  22670180.042   -13223816.20749 -10282967.32646  22670180.121    22670188.519
       226.000         176.000
 03  2  6  1  4  0.0000000  0  9G26G23G 6G17G10G30G15G18G29
  22001579.778   -12878955.10249  -9687638.83646  22001579.533    22001587.249
       229.000         181.000
  20601896.758   -21809584.38349 -16966695.00348  20601896.124    20601903.298
       245.000         215.000
  20245347.695   -27198830.45449 -21173962.55148  20245347.408    20245354.125
       245.000         213.000
  21522509.899   -20958900.57349 -16310848.59147  21522509.027    21522517.458
       238.000         202.000
  23590008.638    -6686644.77949  -5188493.72145  23590006.878    23590015.538
       219.000         157.000
  22894150.588   -13902459.84049 -10814929.42246  22894151.199    22894161.209
       222.000         170.000
  23107427.985   -13030199.64649  -9494201.65146  23107426.851    23107437.316
       222.000         169.000
  22598411.123   -14076767.72849 -10157065.96346  22598410.076    22598418.415
       226.000         172.000
  22667281.601   -13239047.50949 -10294835.79146  22667281.188    22667288.954
       226.000         176.000
 03  2  6  1  4 30.0000000  0  9G26G23G 6G17G10G30G15G18G29
  21991628.511   -12931248.93749  -9728387.18446  21991628.432    21991636.041
       229.000         181.000
  20597897.896   -21830598.31849 -16983069.43848  20597897.312    20597904.664
       245.000         215.000
  20245042.692   -27200433.15249 -21175211.38348  20245042.489    20245049.242
       243.000         213.000
  21516435.896   -20990819.43449 -16335720.35847  21516435.142    21516443.077
       238.000         202.000
  23609430.006    -6584584.80749  -5108966.44445  23609428.003    23609436.147
       216.000         156.000
  22912431.240   -13806394.94349 -10740073.75446  22912432.003    22912441.792
       222.000         170.000
  23095069.097   -13095144.98349  -9544808.24846  23095067.877    23095079.471
       223.000         169.000
  22581545.808   -14165395.03449 -10226126.00846  22581545.162    22581553.506
       225.000         173.000
  22664479.361   -13253772.93249 -10306310.05746  22664478.758    22664486.903
       225.000         176.000
 03  2  6  1  5  0.0000000  0  9G26G23G 6G17G10G30G15G18G29
  21981771.059   -12983049.55649  -9768751.20146  21981770.897    21981778.740
       229.000         181.000
  20593992.346   -21851121.87749 -16999061.76048  20593991.796    20593999.094
       245.000         215.000
  20244824.448   -27201579.78449 -21176104.83748  20244824.300    20244830.765
       243.000         213.000
  21510386.321   -21022609.72549 -16360491.94447  21510385.660    21510393.313
       238.000         202.000
  23628872.956    -6482410.07849  -5029349.75545  23628871.882    23628880.792
       215.000         156.000
  22930736.661   -13710199.63649 -10665116.47446  22930737.121    22930747.388
       223.000         169.000
  23082729.713   -13159988.20649  -9595335.27846  23082729.109    23082739.410
       222.000         169.000
  22564735.971   -14253730.12049 -10294958.37146  22564735.739    22564743.038
       227.000         175.000
  22661773.719   -13267990.82349 -10317388.84546  22661773.251    22661780.912
       226.000         176.000
 03  2  6  1  5 30.0000000  0  9G26G23G 6G17G10G30G15G18G29
  21972008.008   -13034354.00449  -9808728.58746  21972008.335    21972016.146
       229.000         181.000
  20590180.060   -21871155.22449 -17014672.10848  20590179.365    20590186.708
       245.000         215.000
  20244693.200   -27202269.25149 -21176642.05648  20244692.991    20244699.719
       243.000         213.000
  21504361.189   -21054271.38549 -16385163.29847  21504360.401    21504368.387
       238.000         201.000
  23648337.469    -6380122.88449  -4949645.42845  23648336.327    23648344.737
       219.000         157.000
  22949066.328   -13613877.03849 -10590059.99446  22949068.171    22949076.436
       223.000         170.000
  23070409.728   -13224729.59049  -9645782.94846  23070408.359    23070419.137
       221.000         167.000
  22547982.089   -14341771.64249 -10363561.97946  22547981.477    22547989.121
       227.000         176.000
  22659164.915   -13281699.78349 -10328071.07546  22659164.487    22659172.205
       226.000         176.000
 03  2  6  1  6  0.0000000  0  9G26G23G 6G17G10G30G15G18G29
  21962339.719   -13085160.54849  -9848318.00846  21962339.729    21962346.830
       229.000         180.000
  20586460.803   -21890699.67549 -17029901.49848  20586460.170    20586467.310
       245.000         215.000
  20244648.995   -27202501.37649 -21176822.90448  20244648.711    20244655.404
       243.000         213.000
  21498360.335   -21085805.42549 -16409735.19747  21498359.515    21498367.760
       238.000         201.000
  23667822.901    -6277726.77649  -4869856.22745  23667822.298    23667829.873
       217.000         157.000
  22967419.486   -13517431.10949 -10514907.40646  22967419.786    22967430.096
       224.000         169.000
  23058108.844   -13289370.06849  -9696151.99546  23058108.084    23058118.164
       218.000         166.000
  22531284.171   -14429519.00849 -10431936.38346  22531283.427    22531291.573
       227.000         176.000
  22656652.903   -13294899.78049 -10338356.69846  22656652.316    22656659.551
       226.000         175.000
 03  2  6  1  6 30.0000000  0  9G26G23G 6G17G10G30G15G18G29
  21952766.869   -13135465.80449  -9887516.80946  21952767.086    21952774.618
       230.000         180.000
  20582834.633   -21909755.11349 -17044749.83048  20582833.971    20582841.354
       246.000         215.000
  20244692.130   -27202274.42649 -21176646.02748  20244691.911    20244698.774
       243.000         213.000
  21492383.859   -21117211.88849 -16434207.69047  21492383.453    21492390.697
       238.000         201.000
  23687328.735    -6175223.57949  -4789983.59545  23687328.384    23687337.050
       219.000         157.000
  22985795.669   -13420864.27449 -10439660.60446  22985796.194    22985805.840
       223.000         168.000
  23045827.160   -13353909.21949  -9746442.05246  23045825.107    23045837.044
       217.000         165.000
  22514642.730   -14516969.81649 -10500079.70646  22514641.348    22514649.287
       227.000         176.000
  22654238.173   -13307589.04949 -10348244.36246  22654238.207    22654244.641
       226.000         176.000
 03  2  6  1  7  0.0000000  0  9G26G23G 6G17G10G30G15G18G29
  21943289.947   -13185266.93249  -9926322.78646  21943290.346    21943297.358
       230.000         181.000
  20579301.404   -21928321.88849 -17059217.39248  20579300.886    20579308.013
       246.000         215.000
  20244822.879   -27201587.22649 -21176110.51648  20244822.681    20244829.301
       244.000         213.000
  21486431.483   -21148491.20549 -16458581.11847  21486430.714    21486438.230
       238.000         201.000
  23706854.529    -6072615.59749  -4710029.30945  23706854.106    23706863.246
       219.000         159.000
  23004194.319   -13324179.50549 -10364321.90746  23004195.087    23004205.015
       224.000         168.000
  23033564.796   -13418346.96949  -9796653.11746  23033564.495    23033574.861
       220.000         165.000
  22498057.933   -14604122.53249 -10567990.76146  22498057.159    22498065.510
       228.000         176.000
  22651920.866   -13319766.32649 -10357733.07146  22651920.842    22651928.192
       226.000         176.000
 03  2  6  1  7 30.0000000  0  9G26G23G 6G17G10G30G15G18G29
  21933909.447   -13234561.57049  -9964734.09146  21933909.450    21933916.615
       232.000         182.000
  20575861.082   -21946400.75349 -17073304.76848  20575860.468    20575867.601
       246.000         215.000
  20245041.346   -27200439.10549 -21175215.84748  20245041.080    20245047.845
       243.000         213.000
  21480503.326   -21179643.64949 -16482855.67447  21480502.498    21480510.325
       238.000         201.000
  23726399.625    -5969905.87049  -4629995.75145  23726398.206    23726407.700
       216.000         159.000
  23022614.763   -13227380.16549 -10288893.93846  23022615.655    23022625.511
       224.000         168.000
  23021321.825   -13482683.84849  -9846785.59146  23021320.851    23021331.004
       221.000         166.000
  22481530.109   -14690975.98749 -10635668.61346  22481529.871    22481537.634
       228.000         177.000
  22649701.086   -13331430.96849 -10366822.33246  22649700.249    22649707.512
       226.000         176.000
 03  2  6  1  8  0.0000000  0  9G26G23G 6G17G10G30G15G18G29
  21924625.909   -13283346.64449 -10002748.33946  21924626.047    21924633.704
       230.000         182.000
  20572513.541   -21963991.81449 -17087012.03748  20572512.956    20572520.264
       246.000         215.000
  20245347.743   -27198828.87649 -21173961.08948  20245347.647    20245354.331
       244.000         214.000
  21474599.310   -21210669.34249 -16507031.46747  21474598.865    21474606.540
       238.000         202.000
  23745963.458    -5867096.45549  -4549884.51045  23745963.082    23745971.717
       217.000         159.000
  23041056.373   -13130468.84949 -10213378.70846  23041057.358    23041065.902
       223.000         167.000
  23009098.086   -13546919.76449  -9896839.39846  23009096.574    23009106.561
       223.000         167.000
  22465059.705   -14777528.18949 -10703111.73446  22465058.344    22465066.752
       228.000         177.000
  22647579.155   -13342581.43749 -10375510.94346  22647579.487    22647585.637
       226.000         176.000
 03  2  6  1  8 30.0000000  0  9G26G23G 6G17G10G30G15G18G29
  21915439.834   -13331619.54149 -10040363.48746  21915439.867    21915447.458
       230.000         181.000
  20569258.805   -21981095.53149 -17100339.55148  20569258.319    20569265.547
       246.000         215.000
  20245742.313   -27196755.44249 -21172345.39448  20245742.114    20245748.861
       243.000         214.000
  21468719.418   -21241568.13849 -16531108.37347  21468718.645    21468726.655
       238.000         202.000
  23765545.883    -5764189.81649  -4469697.50545  23765545.375    23765554.283
       219.000         160.000
  23059518.688   -13033448.66149 -10137778.64846  23059519.057    23059528.424
       223.000         166.000
  22996893.564   -13611054.72549  -9946814.53946  22996893.192    22996901.868
       223.000         167.000
  22448646.819   -14863777.67749 -10770318.98646  22448645.786    22448654.104
       227.000         177.000
  22645555.266   -13353216.86649 -10383798.21846  22645555.408    22645561.885
       226.000         176.000
 03  2  6  1  9  0.0000000  0  9G26G23G 6G17G10G30G15G18G29
  21906351.758   -13379377.38349 -10077577.28646  21906351.628    21906358.529
       229.000         181.000
  20566096.710   -21997712.15349 -17113287.51648  20566096.198    20566103.314
       246.000         215.000
  20246225.218   -27194217.59749 -21170367.82248  20246225.140    20246231.680
       244.000         214.000
  21462863.596   -21272340.25049 -16555086.57347  21462863.099    21462870.572
       238.000         202.000
  23785146.447    -5661188.41849  -4389436.66245  23785145.626    23785155.168
       217.000         160.000
  23078001.264   -12936322.37749 -10062095.90046  23078001.592    23078012.291
       223.000         166.000
  22984708.184   -13675088.88349  -9996711.13946  22984707.018    22984718.278
       223.000         169.000
  22432291.872   -14949722.65749 -10837288.96646  22432291.058    22432298.363
       229.000         178.000
  22643629.649   -13363335.84149 -10391683.06546  22643629.631    22643636.858
       226.000         176.000
 03  2  6  1  9 30.0000000  0  9G26G23G 6G17G10G30G15G18G29
  21897362.112   -13426618.16249 -10114388.18046  21897361.812    21897368.872
       230.000         181.000
  20563027.083   -22013842.93849 -17125856.91048  20563026.413    20563033.657
       246.000         214.000
  20246796.594   -27191215.07149 -21168028.15548  20246796.454    20246802.967
       244.000         214.000
  21457031.749   -21302986.68249 -16578966.83747  21457030.967    21457038.930
       238.000         202.000
  23804764.374    -5558095.14549  -4309104.22945  23804762.306    23804772.849
       216.000         159.000
  23096503.301   -12839093.78049  -9986333.45446  23096503.224    23096513.816
       221.000         166.000
  22972541.786   -13739023.19249 -10046529.91846  22972540.481    22972550.912
       224.000         170.000
  22415995.058   -15035362.39049 -10904021.08046  22415994.040    22416001.757
       228.000         179.000
  22641802.300   -13372938.14149 -10399165.31846  22641801.227    22641808.610
       226.000         176.000
 03  2  6  1 10  0.0000000  0  9G26G23G 6G17G10G30G15G18G29
  21888471.447   -13473338.21149 -10150793.31046  21888471.496    21888478.456
       230.000         182.000
  20560050.019   -22029487.24649 -17138047.22748  20560049.504    20560056.733
       246.000         214.000
  20247456.782   -27187745.73449 -21165324.74248  20247456.478    20247463.321
       244.000         214.000
  21451223.893   -21333507.01449 -16602748.84147  21451223.237    21451231.393
       239.000         203.000
  23824399.459    -5454911.18349  -4228701.12645  23824398.052    23824406.448
       217.000         157.000
  23115024.400   -12741764.61549  -9910492.63146  23115025.271    23115034.991
       221.000         164.000
  22960394.652   -13802856.56049 -10096270.05146  22960393.310    22960403.820
       223.000         169.000
  22399756.839   -15120694.18049 -10970513.24746  22399756.621    22399764.625
       230.000         179.000
  22640073.697   -13382021.52449 -10406243.20546  22640073.104    22640081.129
       226.000         176.000
 03  2  6  1 10 30.0000000  0  9G26G23G 6G17G10G30G15G18G29
  21879680.293   -13519535.50749 -10186791.09946  21879679.993    21879687.620
       230.000         182.000
  20557165.362   -22044646.20249 -17149859.34948  20557164.931    20557172.097
       246.000         215.000
  20248205.822   -27183809.26749 -21162257.33548  20248205.689    20248212.240
       243.000         214.000
  21445439.966   -21363901.48049 -16626432.76747  21445439.371    21445447.106
       239.000         203.000
  23844051.334    -5351639.47349  -4148229.64745  23844050.737    23844059.699
       216.000         157.000
  23133564.082   -12644338.57649  -9834576.32146  23133564.736    23133574.108
       222.000         164.000
  22948266.468   -13866589.72449 -10145932.10146  22948265.267    22948275.474
       222.000         168.000
  22383577.498   -15205717.18849 -11036764.81646  22383576.492    22383584.619
       231.000         180.000
  22638443.924   -13390585.75249 -10412916.55746  22638444.451    22638450.783
       227.000         176.000
 03  2  6  1 11  0.0000000  0  9G26G23G 6G17G10G30G15G18G29
  21870989.032   -13565207.83249 -10222379.80946  21870988.829    21870996.344
       228.000         181.000
  20554372.874   -22059320.74749 -17161294.00948  20554372.184    20554379.437
       246.000         215.000
  20249043.882   -27179405.17549 -21158825.53948  20249043.609    20249050.065
       244.000         213.000
  21439679.870   -21394170.61249 -16650019.02747  21439679.069    21439687.174
       239.000         203.000
  23863719.501    -5248282.81749  -4067691.99845  23863719.970    23863727.092
       215.000         155.000
  23152121.441   -12546818.98949  -9758587.13946  23152121.290    23152131.930
       220.000         163.000
  22936157.263   -13930223.10949 -10195516.38546  22936156.050    22936165.805
       222.000         168.000
  22367457.045   -15290430.30749 -11102774.90746  22367456.322    22367464.013
       230.000         180.000
  22636913.033   -13398630.41649 -10419185.07646  22636913.201    22636920.180
       225.000         176.000
 03  2  6  1 11 30.0000000  0  9G26G23G 6G17G10G30G15G18G29
  21862398.257   -13610351.97249 -10257556.95946  21862398.187    21862405.864
       228.000         181.000
  20551672.520   -22073510.81449 -17172351.15148  20551671.984    20551679.055
       246.000         215.000
  20249971.252   -27174531.80449 -21155028.07048  20249971.017    20249977.434
       243.000         213.000
  21433943.705   -21424314.05949 -16673507.35547  21433943.230    21433950.465
       240.000         203.000
  23883403.651    -5144843.00349  -3987089.53245  23883402.934    23883410.666
       216.000         155.000
  23170696.156   -12449208.25049  -9682526.92046  23170696.521    23170706.558
       220.000         164.000
  22924067.209   -13993756.21249 -10245022.52546  22924066.859    22924075.302
       222.000         167.000
  22351396.015   -15374831.33049 -11168541.81846  22351395.511    22351402.705
       231.000         180.000
  22635481.302   -13406153.84249 -10425047.40646  22635481.452    22635487.954
       225.000         176.000
 03  2  6  1 12  0.0000000  0  9G26G23G 6G17G10G30G15G18G29
  21853908.471   -13654965.93449 -10292320.98446  21853908.094    21853915.849
       230.000         182.000
  20549064.219   -22087217.57449 -17183031.69148  20549063.669    20549070.698
       247.000         215.000
  20250987.935   -27169188.75749 -21150864.62548  20250987.643    20250994.458
       243.000         213.000
  21428231.405   -21454332.70649 -16696898.43847  21428230.954    21428237.893
       240.000         204.000
  23903102.932    -5041323.23649  -3906424.76445  23903103.016    23903110.071
       213.000         152.000
  23189287.683   -12351509.83549  -9606398.37446  23189288.480    23189297.835
       221.000         164.000
  22911996.015   -14057189.74149 -10294451.07446  22911995.416    22912003.916
       224.000         167.000
  22335394.494   -15458919.38749 -11234064.85746  22335393.579    22335401.613
       231.000         180.000
  22634148.851   -13413155.58649 -10430503.23446  22634148.365    22634155.338
       226.000         176.000
 03  2  6  1 12 30.0000000  0  9G26G23G 6G17G10G30G15G18G29
  21845520.092   -13699047.03049 -10326669.78846  21845520.261    21845527.633
       229.000         183.000
  20546547.747   -22100441.35049 -17193335.87848  20546547.211    20546554.336
       246.000         215.000
  20252094.248   -27163374.98449 -21146334.37948  20252094.057    20252100.591
       244.000         213.000
  21422542.701   -21484226.93049 -16720192.56847  21422541.913    21422549.664
       239.000         204.000
  23922817.046    -4937725.32149  -3825699.12445  23922816.589    23922822.924
       210.000         149.000
  23207895.463   -12253726.53849  -9530203.68646  23207896.358    23207905.885
       221.000         163.000
  22899943.907   -14120523.67949 -10343802.02346  22899943.459    22899952.351
       224.000         168.000
  22319452.757   -15542692.90649 -11299342.80246  22319452.145    22319459.962
       231.000         181.000
  22632915.853   -13419634.66549 -10435551.81546  22632915.439    22632922.944
       226.000         176.000
 03  2  6  1 13  0.0000000  0  9G26G23G 6G17G10G30G15G18G29
  21837233.423   -13742593.50649 -10360602.00746  21837233.278    21837240.602
       228.000         183.000
  20544122.925   -22113183.61049 -17203264.85748  20544122.340    20544129.321
       247.000         215.000
  20253290.093   -27157090.56949 -21141437.39348  20253289.929    20253296.335
       243.000         213.000
  21416877.515   -21513997.35949 -16743390.23247  21416877.065    21416884.496
       240.000         204.000
  23942545.350    -4834052.40649  -3744915.02145  23942545.061    23942552.329
       209.000         148.000
  23226518.619   -12155862.14549  -9453945.80445  23226519.945    23226529.015
       220.000         162.000
  22887910.554   -14183758.81049 -10393075.98946  22887909.700    22887918.924
       225.000         169.000
  22303571.116   -15626151.20949 -11364375.12346  22303569.680    22303578.051
       231.000         181.000
  22631782.392   -13425590.99649 -10440193.03846  22631781.833    22631788.816
       226.000         176.000
 03  2  6  1 13 30.0000000  0  9G26G23G 6G17G10G30G15G18G29
  21829049.206   -13785601.30849 -10394114.48046  21829049.394    21829056.352
       228.000         183.000
  20541789.927   -22125443.56349 -17212818.01248  20541789.445    20541796.502
       246.000         215.000
  20254576.013   -27150332.93549 -21136171.67148  20254575.679    20254582.474
       243.000         213.000
  21411236.187   -21543642.97049 -16766490.64347  21411235.630    21411242.688
       239.000         204.000
  23962287.604    -4730305.45249  -3664073.24045  23962285.945    23962294.369
       207.000         145.000
  23245156.871   -12057918.03649  -9377625.83045  23245157.382    23245167.780
       219.000         162.000
  22875896.314   -14246893.73549 -10442271.86046  22875895.247    22875904.905
       226.000         171.000
  22287750.003   -15709291.21149 -11429159.41346  22287749.452    22287757.203
       233.000         181.000
  22630748.842   -13431022.20149 -10444425.07646  22630748.269    22630755.888
       226.000         176.000
 03  2  6  1 14  0.0000000  0  9G26G23G 6G17G10G30G15G18G29
  21820967.925   -13828068.49049 -10427205.70146  21820968.518    21820974.701
       230.000         183.000
  20539548.472   -22137222.29349 -17221996.18048  20539547.687    20539555.230
       246.000         215.000
  20255952.024   -27143101.79449 -21130536.98348  20255951.876    20255958.405
       244.000         214.000
  21405618.500   -21573163.99949 -16789493.98147  21405617.729    21405624.902
       239.000         204.000
  23982043.285    -4626487.03549  -3583175.75345  23982042.028    23982050.932
       206.000         143.000
  23263809.594   -11959897.66349  -9301246.41045  23263810.049    23263820.457
       220.000         162.000
  22863900.957   -14309929.19149 -10491390.19946  22863900.011    22863909.888
       225.000         172.000
  22271989.742   -15792111.63249 -11493694.67946  22271988.943    22271997.130
       232.000         182.000
  22629815.266   -13435928.01649 -10448247.73146  22629815.495    22629821.961
       227.000         176.000
 03  2  6  1 14 30.0000000  0  9G26G23G 6G17G10G30G15G18G29
  21812990.031   -13869992.50949 -10459873.66846  21812989.332    21812997.201
       229.000         183.000
  20537398.446   -22148520.42849 -17230799.86248  20537397.935    20537404.856
       246.000         215.000
  20257418.332   -27135396.27649 -21124532.65848  20257418.191    20257424.359
       244.000         213.000
  21400024.322   -21602560.79049 -16812400.50947  21400023.362    21400030.757
       238.000         203.000
  24001812.378    -4522599.45849  -3502224.37745  24001811.392    24001819.809
       208.000         142.000
  23282476.261   -11861803.99149  -9224809.88246  23282476.417    23282486.649
       220.000         163.000
  22851924.480   -14372865.12349 -10540431.01046  22851922.883    22851932.396
       224.000         171.000
  22256290.432   -15874611.48749 -11557980.15146  22256290.161    22256297.307
       231.000         182.000
  22628981.897   -13440307.53049 -10451660.28146  22628981.622    22628988.598
       226.000         176.000
 03  2  6  1 15  0.0000000  0  9G26G23G 6G17G10G30G15G18G29
  21805115.781   -13911371.25049 -10492116.74446  21805115.972    21805122.935
       229.000         183.000
  20535339.733   -22159338.76449 -17239229.67548  20535339.200    20535346.057
       246.000         214.000
  20258975.043   -27127215.64849 -21118158.10448  20258974.894    20258981.275
       244.000         213.000
  21394453.771   -21631833.62949 -16835210.45047  21394453.098    21394460.532
       238.000         203.000
  24021594.268    -4418645.48349  -3421221.24345  24021592.328    24021601.732
       207.000         142.000
  23301156.256   -11763640.18349  -9148318.70346  23301157.354    23301166.481
       221.000         163.000
  22839966.873   -14435701.87249 -10589394.53046  22839965.901    22839975.150
       225.000         171.000
  22240652.346   -15956789.45349 -11622014.78246  22240651.248    22240659.142
       232.000         182.000
  22628248.696   -13444160.32549 -10454662.39246  22628248.540    22628255.076
       227.000         177.000
 03  2  6  1 15 30.0000000  0  9G26G23G 6G17G10G30G15G18G29
  21797345.780   -13952202.14649 -10523932.92846  21797345.652    21797352.563
       230.000         184.000
  20533372.184   -22169677.97249 -17247286.14048  20533371.543    20533378.740
       246.000         214.000
  20260622.306   -27118559.08849 -21111412.70348  20260622.103    20260628.679
       244.000         214.000
  21388906.841   -21660982.49149 -16857923.78447  21388905.829    21388914.013
       239.000         203.000
  24041388.149    -4314627.11649  -3340167.95645  24041386.065    24041395.394
       206.000         141.000
  23319849.107   -11665409.12749  -9071775.12346  23319849.294    23319860.590
       220.000         163.000
  22828028.192   -14498439.43949 -10638280.77646  22828026.276    22828035.884
       224.000         171.000
  22225075.880   -16038643.83449 -11685797.27246  22225074.871    22225082.555
       230.000         182.000
  22627615.922   -13447485.48449 -10457253.36546  22627615.618    22627622.665
       227.000         177.000
 03  2  6  1 16  0.0000000  0  9G26G23G 6G17G10G30G15G18G29
  21789680.551   -13992482.77349 -10555320.32846  21789680.648    21789687.686
       230.000         184.000
  20531495.704   -22179538.70849 -17254969.76448  20531495.232    20531502.200
       246.000         214.000
  20262360.313   -27109425.77349 -21104295.80348  20262360.120    20262366.502
       244.000         214.000
  21383383.508   -21690007.49549 -16880540.60847  21383382.692    21383390.475
       239.000         203.000
  24061193.670    -4210546.56549  -3259066.20645  24061192.723    24061201.674
       206.000         141.000
  23338554.193   -11567113.55149  -8995181.26246  23338554.575    23338565.091
       219.000         163.000
  22816108.313   -14561078.08649 -10687089.94546  22816107.517    22816117.148
       226.000         172.000
  22209561.183   -16120173.05249 -11749326.39346  22209560.461    22209568.213
       232.000         182.000
  22627083.686   -13450282.07849 -10459432.46646  22627083.546    22627089.940
       227.000         177.000
 03  2  6  1 16 30.0000000  0  9G26G23G 6G17G10G30G15G18G29
  21782120.530   -14032210.73549 -10586277.08446  21782120.512    21782127.505
       230.000         184.000
  20529710.178   -22188921.71249 -17262281.13648  20529709.668    20529716.269
       245.000         214.000
  20264189.190   -27099814.99649 -21096806.85548  20264189.094    20264195.215
       245.000         214.000
  21377883.699   -21718908.81249 -16903061.05447  21377883.000    21377890.939
       238.000         203.000
  24081010.749    -4106406.13149  -3177917.78545  24081010.713    24081017.903
       210.000         144.000
  23357270.868   -11468756.36049  -8918539.40045  23357271.248    23357280.806
       218.000         162.000
  22804207.329   -14623617.64249 -10735821.90046  22804206.356    22804216.213
       226.000         173.000
  22194108.690   -16201375.95849 -11812601.23646  22194107.839    22194115.757
       232.000         183.000
  22626652.150   -13452549.53749 -10461199.25046  22626651.965    22626658.616
       227.000         177.000
 03  2  6  1 17  0.0000000  0  9G26G23G 6G17G10G30G15G18G29
  21774666.040   -14071384.02149 -10616801.62546  21774665.932    21774673.000
       229.000         184.000
  20528015.284   -22197828.07349 -17269221.10048  20528014.581    20528021.587
       246.000         214.000
  20266109.018   -27089726.15449 -21088945.39048  20266108.785    20266115.009
       245.000         214.000
  21372407.155   -21747687.43349 -16925485.88947  21372406.271    21372414.330
       238.000         203.000
  24100838.854    -4002208.49149  -3096724.79145  24100838.896    24100846.939
       210.000         145.000
  23375998.768   -11370340.93949  -8841852.15445  23375999.342    23376009.474
       219.000         162.000
  22792325.151   -14686058.65849 -10784477.08746  22792325.072    22792333.475
       228.000         174.000
  22178718.435   -16282251.71949 -11875621.15446  22178717.843    22178725.485
       233.000         184.000
  22626321.330   -13454287.55149 -10462553.48346  22626320.994    22626327.758
       227.000         177.000
 03  2  6  1 17 30.0000000  0  9G26G23G 6G17G10G30G15G18G29
  21767317.451   -14110000.42449 -10646892.23946  21767317.510    21767324.010
       230.000         184.000
  20526410.942   -22206258.69349 -17275790.35648  20526410.482    20526417.285
       245.000         214.000
  20268119.929   -27079158.60149 -21080710.90948  20268119.793    20268126.214
       244.000         214.000
  21366954.177   -21776342.88549 -16947814.75747  21366953.796    21366961.425
       239.000         203.000
  24120677.510    -3897955.90049  -3015488.98545  24120677.303    24120684.727
       211.000         147.000
  23394737.129   -11271870.23549  -8765121.84645  23394737.450    23394748.588
       217.000         161.000
  22780461.727   -14748401.29949 -10833055.62246  22780460.935    22780469.303
       227.000         174.000
  22163390.744   -16362798.78249 -11938384.94546  22163390.354    22163397.824
       234.000         184.000
  22626091.423   -13455495.48049 -10463494.64846  22626090.723    22626097.196
       227.000         177.000
 03  2  6  1 18  0.0000000  0  9G26G23G 6G17G10G30G15G18G29
  21760075.440   -14148057.37049 -10676546.90646  21760075.063    21760082.075
       230.000         185.000
  20524897.037   -22214214.02649 -17281989.25648  20524896.230    20524903.420
       245.000         214.000
  20270222.111   -27068111.38149 -21072102.66248  20270221.877    20270228.222
       244.000         214.000
  21361524.646   -21804875.34049 -16970047.78347  21361524.045    21361531.633
       239.000         204.000
  24140526.248    -3793650.29749  -2934211.86845  24140526.441    24140531.806
       214.000         148.000
  23413485.459   -11173346.93549  -8688350.54245  23413486.531    23413496.667
       219.000         161.000
  22768616.937   -14810645.38549 -10881557.35846  22768615.206    22768625.702
       224.000         174.000
  22148125.901   -16443015.53549 -12000891.35946  22148124.862    22148132.767
       233.000         185.000
  22625962.497   -13456172.54549 -10464022.15846  22625961.992    22625969.035
       226.000         176.000
 03  2  6  1 18 30.0000000  0  9G26G23G 6G17G10G30G15G18G29
  21752940.213   -14185552.87449 -10705764.09646  21752939.973    21752947.225
       231.000         185.000
  20523473.360   -22221695.06249 -17287818.57848  20523472.845    20523479.740
       246.000         214.000
  20272415.703   -27056583.97449 -21063120.23848  20272415.549    20272421.827
       244.000         214.000
  21356118.399   -21833285.28749 -16992185.34847  21356117.797    21356124.847
       238.000         204.000
  24160384.697    -3689294.13249  -2852895.33445  24160384.394    24160391.738
       213.000         149.000
  23432243.342   -11074774.10649  -8611540.64945  23432244.814    23432254.873
       218.000         161.000
  22756790.783   -14872791.40549 -10929982.67046  22756789.652    22756798.453
       223.000         173.000
  22132924.155   -16522900.93549 -12063139.55546  22132923.466    22132931.076
       233.000         185.000
  22625934.722   -13456318.18549 -10464135.56546  22625933.812    22625941.199
       227.000         177.000
 03  2  6  1 19  0.0000000  0  9G26G23G 6G17G10G30G15G18G29
  21745912.303   -14222484.42649 -10734541.85046  21745911.908    21745919.151
       230.000         185.000
  20522139.873   -22228702.43549 -17293278.82248  20522139.488    20522146.186
       245.000         214.000
  20274700.844   -27044575.42549 -21053762.90548  20274700.507    20274706.991
       244.000         214.000
  21350735.487   -21861572.45349 -17014227.24047  21350734.964    21350741.954
       239.000         203.000
  24180252.512    -3584889.52249  -2771541.07945  24180251.640    24180259.124
       215.000         151.000
  23451010.200   -10976154.49749  -8534694.30245  23451010.893    23451020.706
       218.000         161.000
  22744983.220   -14934839.10649 -10978331.36746  22744982.027    22744991.901
       224.000         173.000
  22117785.670   -16602453.39749 -12125128.33646  22117784.696    22117792.363
       234.000         185.000
  22626008.174   -13455931.71649 -10463834.36146  22626007.801    22626015.679
       226.000         176.000
 03  2  6  1 19 30.0000000  0  9G26G23G 6G17G10G30G15G18G29
  21738992.155   -14258849.65949 -10762878.30646  21738991.889    21738999.129
       231.000         186.000
  20520896.342   -22235237.15549 -17298370.75648  20520895.710    20520902.886
       246.000         214.000
  20277077.624   -27032085.05849 -21044030.13048  20277077.381    20277083.817
       244.000         214.000
  21345375.912   -21889736.76749 -17036173.40447  21345375.244    21345382.387
       239.000         203.000
  24200128.859    -3480438.64149  -2690150.76145  24200128.090    24200135.577
       216.000         152.000
  23469785.366   -10877490.96349  -8457813.74245  23469786.085    23469795.494
       218.000         160.000
  22733194.629   -14996788.47849 -11026603.46446  22733193.947    22733203.099
       226.000         175.000
  22102710.825   -16681671.69449 -12186856.72246  22102709.872    22102717.345
       234.000         185.000
  22626182.928   -13455012.64349 -10463118.12146  22626181.980    22626190.070
       225.000         176.000
 03  2  6  1 20  0.0000000  0  9G26G23G 6G17G10G30G15G18G29
  21732180.098   -14294646.78349 -10790772.08546  21732180.185    21732186.744
       231.000         186.000
  20519742.560   -22241300.12149 -17303095.09148  20519742.138    20519748.850
       244.000         214.000
  20279546.186   -27019112.57849 -21033921.68048  20279546.022    20279552.306
       244.000         214.000
  21340039.582   -21917778.87749 -17058024.33747  21340038.849    21340046.032
       239.000         203.000
  24220013.496    -3375943.80049  -2608726.18345  24220012.274    24220020.489
       214.000         153.000
  23488568.338   -10778786.61049  -8380901.36045  23488568.862    23488579.131
       217.000         159.000
  22721424.637   -15058639.74849 -11074799.11946  22721422.986    22721432.907
       224.000         175.000
  22087699.891   -16760554.38249 -12248323.59346  22087699.234    22087706.283
       235.000         186.000
  22626459.229   -13453560.34749 -10461986.40246  22626459.438    22626465.869
       226.000         177.000
 03  2  6  1 20 30.0000000  0  9G26G23G 6G17G10G30G15G18G29
  21725476.650   -14329873.19649 -10818221.15846  21725476.436    21725483.562
       230.000         186.000
  20518678.446   -22246892.03949 -17307452.38748  20518677.905    20518684.585
       244.000         214.000
  20282106.680   -27005657.00849 -21023436.79348  20282106.280    20282112.779
       244.000         213.000
  21334726.565   -21945698.57649 -17079779.88247  21334725.867    21334733.481
       240.000         203.000
  24239906.030    -3271407.05449  -2527268.96545  24239905.063    24239913.190
       213.000         152.000
  23507358.606   -10680044.10449  -8303959.26545  23507359.674    23507369.075
       217.000         158.000
  22709673.243   -15120392.93949 -11122918.34146  22709672.561    22709682.010
       226.000         176.000
  22072753.090   -16839100.11249 -12309527.91046  22072752.212    22072759.116
       235.000         187.000
  22626837.076   -13451574.40349 -10460438.84146  22626837.027    22626843.837
       226.000         177.000
 03  2  6  1 21  0.0000000  0  9G26G23G 6G17G10G30G15G18G29
  21718882.238   -14364526.90649 -10845223.97046  21718882.231    21718889.566
       230.000         186.000
  20517703.770   -22252013.69949 -17311443.24548  20517703.250    20517710.089
       244.000         214.000
  20284759.212   -26991717.75249 -21012575.00948  20284759.024    20284765.364
       244.000         213.000
  21329436.885   -21973495.88049 -17101440.05347  21329436.508    21329443.339
       240.000         204.000
  24259806.223    -3166830.39549  -2445780.63345  24259805.586    24259813.070
       211.000         152.000
  23526155.545   -10581266.31749  -8226989.67645  23526155.701    23526166.697
       217.000         157.000
  22697940.667   -15182048.00649 -11170961.09946  22697939.973    22697948.358
       225.000         176.000
  22057870.586   -16917307.64849 -12370468.69946  22057869.854    22057876.753
       235.000         187.000
  22627316.611   -13449054.17549 -10458474.96746  22627316.305    22627322.881
       227.000         177.000
 03  2  6  1 21 30.0000000  0  9G26G23G 6G17G10G30G15G18G29
  21712397.217   -14398605.68349 -10871778.78146  21712397.150    21712404.245
       230.000         187.000
  20516818.450   -22256666.01649 -17315068.37648  20516817.992    20516824.857
       244.000         215.000
  20287503.927   -26977294.14549 -21001335.81048  20287503.893    20287510.089
       244.000         214.000
  21324170.526   -22001170.78149 -17123004.84147  21324170.324    21324177.072
       241.000         205.000
  24279713.459    -3062216.11849  -2364262.99545  24279712.525    24279721.048
       210.000         152.000
  23544958.592   -10482456.11549  -8149994.83445  23544959.254    23544968.523
       217.000         157.000
  22686226.544   -15243605.13149 -11218927.54346  22686225.313    22686234.909
       226.000         175.000
  22043052.647   -16995175.79549 -12431145.03347  22043051.773    22043058.789
       234.000         188.000
  22627897.958   -13445999.18649 -10456094.38746  22627897.153    22627904.818
       227.000         177.000
 03  2  6  1 22  0.0000000  0  9G26G23G 6G17G10G30G15G18G29
  21706021.953   -14432107.73349 -10897884.19146  21706021.404    21706029.057
       231.000         187.000
  20516022.264   -22260850.05649 -17318328.62548  20516021.624    20516028.449
       244.000         214.000
  20290340.859   -26962385.90149 -20989718.96848  20290340.619    20290346.873
       244.000         213.000
  21318927.493   -22028723.55449 -17144474.46847  21318927.194    21318934.013
       242.000         205.000
  24299627.506    -2957566.73749  -2282718.00945  24299626.808    24299634.606
       211.000         152.000
  23563767.249   -10383616.54949  -8072977.10945  23563767.813    23563777.328
       216.000         156.000
  22674531.185   -15305064.43549 -11266817.75646  22674530.679    22674539.357
       227.000         177.000
  22028299.495   -17072703.35149 -12491555.96546  22028298.806    22028305.699
       233.000         187.000
  22628581.011   -13442409.40249 -10453297.08046  22628580.680    22628586.974
       227.000         177.000
 03  2  6  1 22 30.0000000  0  9G26G23G 6G17G10G30G15G18G29
  21699756.916   -14465030.50649 -10923538.22746  21699756.551    21699763.474
       230.000         186.000
  20515314.997   -22264566.48949 -17321224.50348  20515314.443    20515321.141
       243.000         214.000
  20293270.194   -26946991.98649 -20977723.67948  20293269.832    20293276.445
       244.000         213.000
  21313707.643   -22056154.25749 -17165848.97047  21313707.387    21313714.450
       242.000         206.000
  24319547.927    -2852883.78749  -2201146.85645  24319547.448    24319555.609
       208.000         150.000
  23582581.078   -10284750.20449  -7995938.52145  23582581.559    23582591.540
       217.000         156.000
  22662854.463   -15366425.74949 -11314631.60646  22662853.913    22662862.881
       228.000         178.000
  22013611.382   -17149888.94349 -12551700.42946  22013610.654    22013618.125
       233.000         187.000
  22629365.994   -13438283.96049 -10450082.40146  22629366.496    22629371.423
       226.000         177.000
 03  2  6  1 23  0.0000000  0  9G26G23G 6G17G10G30G15G18G29
  21693602.371   -14497372.63249 -10948739.80746  21693602.292    21693608.708
       232.000         187.000
  20514696.423   -22267816.82049 -17323757.18348  20514695.762    20514702.787
       244.000         214.000
  20296291.944   -26931112.43949 -20965349.97548  20296291.830    20296298.030
       244.000         213.000
  21308510.907   -22083463.48749 -17187128.81547  21308510.635    21308517.526
       241.000         206.000
  24339474.147    -2748170.04849  -2119551.70445  24339472.254    24339481.891
       205.000         148.000
  23601399.305   -10185860.40549  -7918881.63645  23601400.101    23601408.904
       216.000         156.000
  22651196.198   -15427689.78949 -11362369.65146  22651194.894    22651204.284
       227.000         178.000
  21998988.549   -17226731.69649 -12611577.74747  21998987.648    21998994.957
       234.000         188.000
  22630252.890   -13433622.94549 -10446450.35946  22630253.432    22630259.356
       227.000         177.000
 03  2  6  1 23 30.0000000  0  9G26G23G 6G17G10G30G15G18G29
  21687558.892   -14529131.14949 -10973486.62446  21687559.255    21687565.309
       232.000         187.000
  20514166.553   -22270601.14749 -17325926.74148  20514165.998    20514172.780
       244.000         214.000
  20299406.356   -26914745.86149 -20952596.76548  20299406.044    20299412.188
       244.000         213.000
  21303337.441   -22110650.20549 -17208313.19747  21303336.937    21303343.914
       241.000         206.000
  24359405.768    -2643426.80649  -2037933.59345  24359404.585    24359414.128
       207.000         148.000
  23620221.405   -10086949.34749  -7841808.20345  23620220.861    23620231.637
       214.000         155.000
  22639556.653   -15488855.66949 -11410031.22846  22639555.902    22639564.139
       228.000         177.000
  21984431.432   -17303229.47949 -12671186.26947  21984430.595    21984437.592
       235.000         188.000
  22631241.984   -13428425.08149 -10442400.00546  22631241.697    22631248.747
       226.000         177.000
 03  2  6  1 24  0.0000000  0  9G26G23G 6G17G10G30G15G18G29
  21681626.747   -14560304.66049 -10997777.58146  21681626.962    21681633.202
       231.000         187.000
  20513724.989   -22272921.11049 -17327734.45448  20513724.284    20513730.911
       243.000         213.000
  20302613.455   -26897892.39049 -20939464.15648  20302613.223    20302619.486
       244.000         213.000
  21298187.044   -22137715.26049 -17229402.77447  21298186.203    21298193.495
       240.000         206.000
  24379342.913    -2538656.79249  -1956294.60245  24379342.522    24379351.100
       205.000         147.000
  23639046.903    -9988020.26849  -7764720.71945  23639047.588    23639056.728
       216.000         154.000
  22627935.671   -15549923.82449 -11457616.62546  22627934.507    22627943.421
       228.000         178.000
  21969940.068   -17379381.75549 -12730525.56447  21969939.347    21969946.127
       235.000         189.000
  22632333.098   -13422690.65049 -10437931.54946  22632332.972    22632339.950
       227.000         176.000
 03  2  6  1 24 30.0000000  0  9G26G23G 6G17G10G30G15G18G29
  21675806.283   -14590891.22449 -11021611.18846  21675806.102    21675812.563
       232.000         187.000
  20513371.622   -22274777.82349 -17329181.19848  20513371.009    20513377.765
       243.000         213.000
  20305913.270   -26880551.70849 -20925951.90148  20305913.069    20305919.357
       244.000         213.000
  21293059.812   -22164658.24149 -17250397.22647  21293059.092    21293066.311
       240.000         205.000
  24399284.930    -2433861.88449  -1874636.19945  24399283.907    24399293.195
       205.000         146.000
  23657875.356    -9889076.15449  -7687621.51145  23657876.023    23657886.500
       214.000         154.000
  22616333.168   -15610894.58749 -11505126.14546  22616332.089    22616340.507
       226.000         177.000
  21955514.624   -17455187.24349 -12789594.63747  21955513.814    21955520.786
       234.000         189.000
  22633526.435   -13416419.52049 -10433044.88646  22633526.116    22633532.301
       227.000         177.000
 03  2  6  1 25  0.0000000  0  9G26G23G 6G17G10G30G15G18G29
  21670097.815   -14620888.82949 -11044985.86546  21670097.364    21670104.440
       232.000         187.000
  20513106.238   -22276172.29149 -17330267.74448  20513105.662    20513112.562
       243.000         213.000
  20309305.894   -26862723.15049 -20912059.48248  20309305.610    20309311.966
       244.000         213.000
  21287955.757   -22191479.76949 -17271297.04747  21287954.975    21287962.056
       240.000         205.000
  24419230.997    -2329044.33949  -1792960.21045  24419230.089    24419238.718
       204.000         144.000
  23676706.185    -9790119.63349  -7610512.65145  23676705.988    23676718.208
       213.000         155.000
  22604749.178   -15671767.97049 -11552559.79246  22604747.959    22604756.925
       227.000         177.000
  21941155.352   -17530644.76349 -12848392.56247  21941154.295    21941161.703
       234.000         189.000
  22634821.955   -13409611.21349 -10427739.64846  22634821.759    22634827.962
       226.000         177.000
 03  2  6  1 25 30.0000000  0  9G26G23G 6G17G10G30G15G18G29
  21664501.833   -14650295.40149 -11067899.99047  21664501.648    21664508.301
       231.000         188.000
  20512928.624   -22277105.19849 -17330994.62448  20512927.975    20512934.771
       243.000         213.000
  20312791.524   -26844405.95749 -20897786.30548  20312791.387    20312797.597
       244.000         213.000
  21282874.918   -22218179.21049 -17292101.73547  21282874.243    21282881.465
       239.000         205.000
  24439180.784    -2224205.94249  -1711267.91545  24439180.887    24439189.616
       205.000         143.000
  23695538.865    -9691153.41449  -7533396.22745  23695539.699    23695550.560
       214.000         155.000
  22593183.807   -15732543.67749 -11599917.32246  22593182.895    22593190.948
       228.000         177.000
  21926862.617   -17605752.95449 -12906918.28647  21926862.109    21926868.887
       235.000         189.000
  22636219.843   -13402265.19649 -10422015.41546  22636219.511    22636226.067
       228.000         177.000
 03  2  6  1 26  0.0000000  0  9G26G23G 6G17G10G30G15G18G29
  21659018.640   -14679109.31149 -11090352.29347  21659018.354    21659024.914
       231.000         188.000
  20512838.613   -22277578.14849 -17331363.10448  20512838.068    20512844.689
       243.000         213.000
  20316370.161   -26825600.11449 -20883132.36348  20316369.860    20316376.253
       244.000         213.000
  21277817.235   -22244757.42949 -17312811.96947  21277816.354    21277823.902
       239.000         205.000
  24459134.558    -2119349.43049  -1629561.47745  24459134.084    24459143.226
       207.000         142.000
  23714372.719    -9592180.86049  -7456274.86745  23714373.561    23714383.947
       214.000         155.000
  22581636.914   -15793222.02649 -11647199.00146  22581635.819    22581644.268
       227.000         176.000
  21912636.520   -17680511.14449 -12965171.28847  21912635.488    21912642.581
       236.000         190.000
  22637720.033   -13394381.81449 -10415872.45246  22637720.063    22637726.547
       228.000         178.000
 03  2  6  1 26 30.0000000  0  9G26G23G 6G17G10G30G15G18G29
  21653648.520   -14707328.89849 -11112341.50746  21653648.261    21653654.666
       231.000         187.000
  20512835.914   -22277592.18149 -17331373.98148  20512835.310    20512842.220
       243.000         213.000
  20320041.819   -26806305.31649 -20868097.41948  20320041.598    20320047.801
       244.000         213.000
  21272782.650   -22271214.01649 -17333427.42347  21272781.730    21272789.246
       239.000         205.000
  24479091.392    -2014476.69049  -1547842.40345  24479089.979    24479100.112
       207.000         142.000
  23733207.272    -9493204.77949  -7379150.76145  23733207.872    23733218.782
       216.000         156.000
  22570108.516   -15853803.11049 -11694404.88446  22570107.090    22570117.037
       227.000         177.000
  21898477.222   -17754918.19649 -13023150.67547  21898477.040    21898483.581
       236.000         191.000
  22639322.458   -13385960.89949 -10409310.63146  22639322.093    22639328.695
       227.000         178.000
 03  2  6  1 27  0.0000000  0  9G26G23G 6G17G10G30G15G18G29
  21648391.896   -14734952.07449 -11133865.97346  21648391.610    21648398.018
       231.000         187.000
  20512920.383   -22277148.08749 -17331027.87148  20512919.641    20512926.710
       243.000         213.000
  20323806.647   -26786520.89149 -20852680.94748  20323806.512    20323812.500
       244.000         213.000
  21267771.115   -22297549.34149 -17353948.38747  21267770.219    21267777.771
       239.000         205.000
  24499050.748    -1909589.57749  -1466112.17045  24499050.310    24499058.477
       206.000         142.000
  23752042.116    -9394227.65449  -7302025.83745  23752043.053    23752053.655
       218.000         157.000
  22558598.703   -15914286.93049 -11741534.98246  22558598.058    22558606.528
       229.000         179.000
  21884385.125   -17828972.53449 -13080855.23347  21884384.156    21884391.195
       237.000         191.000
  22641027.308   -13377001.85549 -10402329.49446  22641027.043    22641033.305
       228.000         178.000
 03  2  6  1 27 30.0000000  0  9G26G23G 6G17G10G30G15G18G29
  21643249.140   -14761976.98449 -11154924.24647  21643249.270    21643255.725
       231.000         188.000
  20513091.799   -22276247.07649 -17330325.71948  20513091.272    20513097.897
       244.000         214.000
  20327664.701   -26766246.43849 -20836882.63048  20327664.331    20327670.754
       243.000         213.000
  21262782.747   -22323763.11449 -17374374.63847  21262782.002    21262788.989
       239.000         205.000
  24519012.411    -1804690.09949  -1384372.28645  24519012.561    24519020.544
       209.000         143.000
  23770876.481    -9295252.35149  -7224902.34445  23770877.514    23770888.380
       215.000         158.000
  22547107.447   -15974673.48049 -11788589.30746  22547106.593    22547115.009
       229.000         179.000
  21870360.276   -17902673.23849 -13138284.23247  21870359.535    21870366.343
       236.000         191.000
  22642834.560   -13367504.61449 -10394928.98346  22642834.792    22642840.932
       228.000         178.000
 03  2  6  1 28  0.0000000  0  9G26G23G 6G17G10G30G15G18G29
  21638220.530   -14788402.07749 -11175515.13347  21638219.862    21638226.946
       231.000         188.000
  20513349.938   -22274890.55649 -17329268.62948  20513349.334    20513355.978
       244.000         214.000
  20331616.055   -26745481.84749 -20820702.39048  20331615.775    20331622.019
       244.000         213.000
  21257817.397   -22349855.77449 -17394706.52047  21257816.600    21257823.807
       239.000         204.000
  24538976.215    -1699780.65649  -1302624.61845  24538975.950    24538984.216
       212.000         143.000
  23789709.931    -9196281.84549  -7147782.57745  23789711.016    23789722.269
       215.000         158.000
  22535634.611   -16034962.94949 -11835567.95846  22535633.985    22535642.566
       229.000         180.000
  21856402.939   -17976018.99449 -13195436.64947  21856402.128    21856408.660
       236.000         191.000
  22644744.223   -13357469.16049 -10387109.07946  22644744.380    22644750.148
       227.000         178.000
 03  2  6  1 28 30.0000000  0  9G26G23G 6G17G10G30G15G18G29
  21633306.414   -14814225.50349 -11195637.19047  21633306.084    21633312.877
       232.000         188.000
  20513694.535   -22273079.41349 -17327857.28748  20513693.885    20513700.745
       244.000         214.000
  20335660.699   -26724226.74449 -20804139.93948  20335660.425    20335666.809
       243.000         213.000
  21252875.075   -22375826.97849 -17414943.76147  21252874.131    21252881.500
       239.000         204.000
  24558941.590    -1594862.89249  -1220870.44645  24558940.509    24558948.482
       211.000         143.000
  23808542.035    -9097318.74849  -7070668.59945  23808543.079    23808553.702
       216.000         158.000
  22524180.321   -16095155.34649 -11882470.98146  22524179.455    22524187.803
       230.000         180.000
  21842513.361   -18049008.90249 -13252311.78447  21842512.413    21842519.433
       236.000         191.000
  22646756.313   -13346895.27149 -10378869.62646  22646756.557    22646762.555
       227.000         178.000
 03  2  6  1 29  0.0000000  0  9G26G23G 6G17G10G30G15G18G29
  21628507.167   -14839445.47349 -11215289.03547  21628507.156    21628513.444
       232.000         188.000
  20514125.437   -22270814.86149 -17326092.63548  20514124.957    20514131.529
       244.000         215.000
  20339798.779   -26702480.73949 -20787194.96348  20339798.550    20339804.788
       244.000         213.000
  21247955.833   -22401677.04649 -17435086.60847  21247954.987    21247962.768
       238.000         204.000
  24578907.972    -1489938.92449  -1139111.46045  24578907.287    24578914.692
       211.000         141.000
  23827372.196    -8998366.13749  -6993562.78445  23827372.923    23827384.452
       215.000         158.000
  22512744.434   -16155250.87549 -11929298.53346  22512742.942    22512751.634
       228.000         178.000
  21828691.665   -18121642.00949 -13308908.88947  21828690.962    21828697.278
       236.000         192.000
  22648870.888   -13335782.92349 -10370210.59346  22648870.723    22648877.203
       227.000         178.000
 03  2  6  1 29 30.0000000  0  9G26G23G 6G17G10G30G15G18G29
  21623823.130   -14864059.96049 -11234469.05947  21623823.019    21623829.747
       231.000         188.000
  20514642.531   -22268097.71549 -17323975.31948  20514641.889    20514648.503
       244.000         215.000
  20344030.396   -26680243.19449 -20769866.96747  20344030.091    20344036.449
       243.000         212.000
  21243059.729   -22427405.61549 -17455134.78447  21243059.286    21243066.745
       239.000         204.000
  24598875.219    -1385010.56649  -1057349.05345  24598874.544    24598883.441
       210.000         141.000
  23846199.906    -8899426.25749  -6916466.89845  23846200.639    23846211.976
       217.000         158.000
  22501327.021   -16215248.92249 -11976050.12646  22501326.816    22501334.439
       229.000         178.000
  21814938.131   -18193916.82749 -13365226.80247  21814937.503    21814943.918
       237.000         193.000
  22651087.981   -13324131.79249 -10361131.72646  22651087.688    22651093.697
       227.000         177.000
 03  2  6  1 30  0.0000000  0  9G26G23G 6G17G10G30G15G18G29
  21619254.521   -14888067.81649 -11253176.38847  21619254.242    21619261.113
       231.000         189.000
  20515245.312   -22264929.65049 -17321506.63948  20515244.802    20515251.154
       244.000         214.000
  20348355.474   -26657514.30649 -20752156.11047  20348355.107    20348361.599
       243.000         212.000
  21238186.858   -22453012.84949 -17475088.41847  21238186.519    21238193.538
       240.000         205.000
  24618842.635    -1280080.21249   -975585.09145  24618842.100    24618850.513
       212.000         143.000
  23865024.681    -8800502.45849  -6839383.52945  23865026.346    23865036.843
       217.000         157.000
  22489928.203   -16275150.00649 -12022726.15846  22489926.848    22489935.300
       229.000         178.000
  21801252.900   -18265832.74749 -13421265.05447  21801252.097    21801258.964
       237.000         193.000
  22653407.570   -13311942.06349 -10351633.16846  22653407.063    22653413.284
       227.000         177.000
 03  2  6  1 30 30.0000000  0  9G26G23G 6G17G10G30G15G18G29
  21614801.607   -14911467.81349 -11271410.07047  21614801.364    21614808.207
       232.000         188.000
  20515933.672   -22261312.23149 -17318687.81548  20515933.065    20515939.615
       245.000         214.000
  20352774.107   -26634294.22149 -20734062.50547  20352773.838    20352780.134
       243.000         212.000
  21233336.959   -22478499.26649 -17494947.91447  21233336.567    21233343.340
       241.000         205.000
  24638810.190    -1175150.23749   -893821.41245  24638808.878    24638817.668
       212.000         143.000
  23883845.928    -8701597.76249  -6762315.05145  23883846.867    23883857.241
       217.000         156.000
  22478547.564   -16334954.71449 -12069327.07846  22478546.456    22478554.771
       229.000         177.000
  21787636.063   -18337389.21449 -13477023.22547  21787635.524    21787641.912
       237.000         193.000
  22655829.534   -13299214.19949 -10341715.28746  22655829.476    22655835.092
       228.000         177.000
 03  2  6  1 31  0.0000000  0  9G26G23G 6G17G10G30G15G18G29
  21610464.850   -14934257.39649 -11289168.10747  21610464.807    21610471.094
       232.000         189.000
  20516707.461   -22257245.75549 -17315519.07848  20516706.799    20516713.434
       244.000         214.000
  20357286.421   -26610581.64849 -20715585.14047  20357285.984    20357292.304
       242.000         212.000
  21228510.273   -22503863.98749 -17514712.58547  21228510.268    21228516.211
       241.000         205.000
  24658777.373    -1070221.75549   -812058.90645  24658776.824    24658783.862
       211.000         142.000
  23902663.140    -8602714.21049  -6685263.03645  23902663.790    23902674.571
       217.000         155.000
  22467185.553   -16394661.93049 -12115852.04946  22467184.472    22467192.287
       229.000         177.000
  21774088.013   -18408584.23149 -13532499.73847  21774087.093    21774093.892
       237.000         193.000
  22658354.039   -13285947.42549 -10331377.48246  22658353.908    22658359.959
       227.000         177.000
 03  2  6  1 31 30.0000000  0  9G26G23G 6G17G10G30G15G18G29
  21606244.554   -14956435.12649 -11306449.37347  21606244.538    21606251.057
       231.000         189.000
  20517566.419   -22252731.70449 -17312001.58548  20517565.645    20517572.215
       244.000         214.000
  20361892.444   -26586376.51149 -20696723.96147  20361892.235    20361898.375
       243.000         212.000
  21223706.800   -22529106.87149 -17534382.32047  21223706.484    21223712.321
       241.000         205.000
  24678743.784     -965296.96449   -730299.26345  24678742.762    24678751.366
       209.000         140.000
  23921475.728    -8503854.54149  -6608229.64445  23921476.726    23921487.339
       216.000         154.000
  22455842.024   -16454272.12849 -12162301.39146  22455841.105    22455849.043
       229.000         178.000
  21760608.895   -18479416.87349 -13587693.88347  21760608.364    21760614.976
       237.000         193.000
  22660981.093   -13272141.71249 -10320619.71746  22660980.749    22660986.994
       227.000         177.000
 03  2  6  1 32  0.0000000  0  9G26G23G 6G17G10G30G15G18G29
  21602140.989   -14977999.24449 -11323252.50547  21602140.739    21602146.984
       232.000         189.000
  20518510.305   -22247771.12049 -17308136.14548  20518509.781    20518516.140
       244.000         214.000
  20366592.359   -26561678.29749 -20677478.56147  20366592.202    20366598.465
       244.000         212.000
  21218926.374   -22554228.17449 -17553957.30847  21218925.633    21218932.548
       240.000         205.000
  24698709.067     -860377.68449   -648543.94745  24698708.190    24698717.426
       207.000         141.000
  23940283.130    -8405021.43249  -6531216.94845  23940283.277    23940294.372
       215.000         153.000
  22444516.999   -16513784.89949 -12208674.84346  22444516.085    22444523.803
       230.000         178.000
  21747199.046   -18549885.69849 -13642604.53447  21747198.318    21747204.642
       238.000         194.000
  22663710.765   -13257797.06049 -10309442.00846  22663711.319    22663716.505
       227.000         177.000
 03  2  6  1 32 30.0000000  0  9G26G23G 6G17G10G30G15G18G29
  21598154.431   -14998948.64149 -11339576.64047  21598154.039    21598159.983
       232.000         189.000
  20519538.912   -22242365.65949 -17303924.05148  20519538.219    20519544.699
       244.000         213.000
  20371386.023   -26536487.34249 -20657849.21247  20371385.643    20371391.997
       243.000         212.000
  21214168.997   -22579227.86649 -17573437.53847  21214168.077    21214174.974
       240.000         205.000
  24718673.204     -755466.25649   -566794.73245  24718672.869    24718681.686
       212.000         143.000
  23959084.849    -8306217.97449  -6454227.34645  23959085.600    23959096.854
       215.000         152.000
  22433210.498   -16573200.72149 -12254972.75246  22433209.382    22433218.346
       230.000         179.000
  21733858.492   -18619990.24749 -13697231.33747  21733857.793    21733864.628
       238.000         195.000
  22666542.943   -13242913.76049 -10297844.56846  22666543.009    22666548.730
       227.000         176.000
 03  2  6  1 33  0.0000000  0  8G26G23G 6G17G30G15G18G29
  21594285.935   -15019277.44449 -11355417.18947  21594286.327    21594292.052
       231.000         189.000
  20520652.729   -22236512.05749 -17299362.75148  20520651.858    20520658.507
       243.000         213.000
  20376274.287   -26510799.22449 -20637832.45947  20376274.239    20376280.224
       244.000         212.000
  21209435.596   -22604101.39449 -17592819.45547  21209434.924    21209442.231
       240.000         205.000
  23977881.203    -8207442.53549  -6377259.60345  23977882.108    23977892.218
       215.000         152.000
  22421923.173   -16632515.11449 -12301191.60346  22421921.866    22421930.930
       229.000         179.000
  21720588.267   -18689725.35849 -13751570.27347  21720587.660    21720593.848
       238.000         195.000
  22669478.258   -13227487.82349 -10285824.28646  22669477.827    22669484.568
       227.000         176.000
 03  2  6  1 33 30.0000000  0  8G26G23G 6G17G30G15G18G29
  21590535.011   -15038988.25449 -11370776.18847  21590534.994    21590541.751
       232.000         189.000
  20521850.772   -22230215.74649 -17294456.48548  20521850.159    20521856.540
       243.000         213.000
  20381256.470   -26484617.75649 -20617431.27448  20381256.250    20381262.451
       244.000         213.000
  21204725.460   -22628853.02249 -17612106.38247  21204724.824    21204732.236
       240.000         206.000
  23996670.918    -8108701.97149  -6300319.01945  23996670.940    23996682.277
       214.000         151.000
  22410654.427   -16691732.17049 -12347334.62846  22410653.627    22410661.780
       230.000         180.000
  21707387.732   -18759094.21549 -13805623.80947  21707386.959    21707393.544
       238.000         195.000
  22672516.243   -13211523.11149 -10273384.19746  22672515.714    22672521.632
       227.000         176.000
 03  2  6  1 34  0.0000000  0  8G26G23G 6G17G30G15G18G29
  21586901.702   -15058081.65849 -11385654.10347  21586901.389    21586907.857
       232.000         189.000
  20523132.495   -22223480.12349 -17289207.90448  20523131.981    20523138.343
       243.000         213.000
  20386332.135   -26457944.76949 -20596647.09948  20386331.946    20386338.134
       244.000         213.000
  21200038.155   -22653484.75149 -17631299.88347  21200037.569    21200044.642
       240.000         206.000
  24015453.126    -8010001.03849  -6223409.29545  24015453.867    24015463.688
       213.000         150.000
  22399403.826   -16750854.08349 -12393403.51346  22399402.596    22399411.074
       229.000         180.000
  21694256.714   -18828097.82449 -13859392.74447  21694256.049    21694262.576
       238.000         195.000
  22675656.253   -13195022.04549 -10260526.16946  22675655.980    22675662.054
       226.000         176.000
 03  2  6  1 34 30.0000000  0  8G26G23G 6G17G30G15G18G29
  21583386.197   -15076555.12049 -11400048.93547  21583386.173    21583392.165
       231.000         188.000
  20524497.719   -22216305.41649 -17283617.17247  20524497.056    20524503.782
       243.000         212.000
  20391501.578   -26430779.08649 -20575479.00347  20391501.417    20391507.371
       244.000         212.000
  21195373.952   -22677995.25349 -17650398.92247  21195373.518    21195380.556
       241.000         206.000
  24034227.424    -7911341.38349  -6146531.75545  24034227.291    24034238.582
       212.000         149.000
  22388171.449   -16809879.55849 -12439397.24246  22388169.763    22388178.705
       228.000         180.000
  21681195.596   -18896733.98149 -13912875.35947  21681195.171    21681200.826
       239.000         195.000
  22678898.461   -13177983.73749 -10247249.50346  22678898.175    22678904.123
       226.000         177.000
 03  2  6  1 35  0.0000000  0  8G26G23G 6G17G30G15G18G29
  21579989.075   -15094406.76249 -11413959.23647  21579989.194    21579995.271
       232.000         189.000
  20525946.434   -22208692.39649 -17277684.90148  20525945.923    20525952.155
       243.000         213.000
  20396764.896   -26403120.12049 -20553926.52547  20396764.724    20396770.689
       244.000         212.000
  21190732.831   -22702384.51349 -17669403.48547  21190732.431    21190739.029
       241.000         207.000
  24052993.655    -7812724.98249  -6069687.92645  24052994.658    24053004.603
       217.000         148.000
  22376957.556   -16868808.09549 -12485315.45546  22376956.865    22376964.575
       229.000         180.000
  21668204.668   -18965001.28149 -13966070.55247  21668203.815    21668209.993
       239.000         196.000
  22682242.979   -13160407.57049 -10233553.73046  22682242.180    22682249.248
       226.000         176.000
 03  2  6  1 35 30.0000000  0  8G26G23G 6G17G30G15G18G29
  21576710.537   -15111635.51449 -11427384.17347  21576710.484    21576716.639
       233.000         189.000
  20527478.199   -22200642.87149 -17271412.49547  20527477.533    20527484.009
       243.000         212.000
  20402122.037   -26374968.07649 -20531989.83447  20402121.865    20402127.991
       244.000         212.000
  21186114.932   -22726652.22149 -17688313.33847  21186114.578    21186120.858
       242.000         207.000
  24071751.285    -7714155.02349  -5992880.27445  24071752.552    24071761.544
       215.000         150.000
  22365762.156   -16927639.98149 -12531158.35646  22365761.266    22365769.177
       229.000         180.000
  21655284.009   -19032899.25449 -14018977.95447  21655283.209    21655289.946
       238.000         195.000
  22685689.751   -13142294.37149 -10219439.49746  22685688.894    22685695.804
       227.000         177.000
 03  2  6  1 36  0.0000000  0  8G26G23G 6G17G30G15G18G29
  21573550.670   -15128240.18649 -11440322.81547  21573550.132    21573556.613
       231.000         188.000
  20529092.699   -22192158.06949 -17264800.90947  20529092.215    20529098.555
       243.000         212.000
  20407573.008   -26346322.88049 -20509668.87647  20407572.661    20407578.803
       244.000         212.000
  21181520.087   -22750798.54349 -17707128.60147  21181519.719    21181525.924
       241.000         207.000
  24090499.380    -7615634.31649  -5916111.01145  24090500.643    24090508.859
       213.000         150.000
  22354585.116   -16986375.03549 -12576925.80346  22354584.403    22354592.189
       230.000         180.000
  21642433.846   -19100426.87749 -14071596.77347  21642433.355    21642439.536
       238.000         196.000
  22689238.760   -13123644.05249 -10204906.72446  22689238.407    22689244.700
       227.000         177.000
 03  2  6  1 36 30.0000000  0  8G26G23G 6G17G30G15G18G29
  21570510.058   -15144218.56049 -11452773.43347  21570510.207    21570516.203
       232.000         189.000
  20530789.961   -22183238.74549 -17257850.73748  20530789.430    20530795.815
       243.000         213.000
  20413117.933   -26317183.91449 -20486963.15647  20413117.833    20413123.608
       244.000         212.000
  21176948.412   -22774822.67649 -17725848.64747  21176947.734    21176954.392
       241.000         207.000
  24109237.556    -7517164.71149  -5839381.56145  24109237.852    24109247.706
       213.000         149.000
  22343426.715   -17045012.71849 -12622617.39446  22343425.708    22343434.020
       231.000         181.000
  21629654.379   -19167582.79249 -14123925.95247  21629653.772    21629660.227
       238.000         196.000
  22692889.939   -13104456.66449 -10189955.46346  22692889.519    22692896.686
       226.000         177.000
 03  2  6  1 37  0.0000000  0  8G26G23G 6G17G30G15G18G29
  21567588.778   -15159569.77349 -11464735.34047  21567588.189    21567594.770
       232.000         189.000
  20532569.609   -22173886.48149 -17250563.20648  20532569.118    20532575.289
       244.000         213.000
  20418756.842   -26287551.31649 -20463872.78847  20418756.629    20418762.690
       243.000         212.000
  21172399.969   -22798724.64649 -17744473.49947  21172399.073    21172406.094
       241.000         207.000
  24127965.471    -7418749.13249  -5762694.19445  24127966.067    24127977.071
       212.000         147.000
  22332286.735   -17103553.05149 -12668233.12446  22332286.200    22332293.663
       231.000         181.000
  21616945.842   -19234366.19349 -14175964.86247  21616945.330    21616951.383
       238.000         196.000
  22696643.282   -13084732.39449 -10174585.84446  22696643.701    22696649.588
       227.000         177.000
 03  2  6  1 37 30.0000000  0  8G26G23G 6G17G30G15G18G29
  21564787.090   -15174292.22149 -11476207.29847  21564787.139    21564793.126
       233.000         188.000
  20534431.450   -22164102.27949 -17242939.10448  20534430.979    20534436.993
       244.000         213.000
  20424489.653   -26257424.77249 -20440397.53547  20424489.260    20424495.682
       243.000         211.000
  21167874.859   -22822503.64849 -17763002.53447  21167874.096    21167881.007
       241.000         207.000
  24146682.504    -7320389.96449  -5686050.79345  24146683.159    24146693.722
       214.000         147.000
  22321165.480   -17161995.74649 -12713772.77546  22321164.499    22321171.772
       229.000         182.000
  21604308.435   -19300775.63049 -14227712.37147  21604307.819    21604314.048
       237.000         196.000
  22700498.800   -13064471.27649 -10158797.90546  22700498.522    22700504.466
       228.000         177.000
 03  2  6  1 38  0.0000000  0  8G26G23G 6G17G30G15G18G29
  21562105.347   -15188384.91049 -11487188.55447  21562105.195    21562111.591
       233.000         189.000
  20536375.203   -22153887.90149 -17234979.79448  20536374.804    20536380.926
       243.000         213.000
  20430316.467   -26226804.69849 -20416537.71047  20430316.446    20430322.511
       244.000         211.000
  21163373.034   -22846160.48549 -17781436.37247  21163372.202    21163379.332
       241.000         207.000
  24165388.335    -7222090.24549  -5609453.71045  24165387.870    24165399.954
       213.000         149.000
  22310062.626   -17220341.19049 -12759236.64746  22310061.356    22310069.206
       229.000         182.000
  21591742.239   -19366810.78049 -14279168.22547  21591741.538    21591747.514
       237.000         195.000
  22704456.429   -13043673.89749 -10142592.11046  22704456.742    22704463.128
       227.000         177.000
 03  2  6  1 38 30.0000000  0  8G26G23G 6G17G30G15G18G29
  21559543.512   -15201846.83049 -11497678.28547  21559543.109    21559549.659
       232.000         188.000
  20538400.492   -22143244.58349 -17226686.24548  20538400.052    20538406.263
       244.000         213.000
  20436237.200   -26195691.04549 -20392293.27847  20436236.748    20436243.100
       243.000         211.000
  21158894.528   -22869694.89949 -17799774.81047  21158893.663    21158900.862
       241.000         207.000
  24184082.361    -7123852.51849  -5532904.94845  24184082.448    24184094.255
       213.000         149.000
  22298978.180   -17278589.20949 -12804624.59346  22298976.949    22298985.402
       228.000         181.000
  21579247.434   -19432470.68849 -14330331.68947  21579246.788    21579253.135
       238.000         195.000
  22708516.001   -13022340.61049 -10125968.70646  22708516.231    22708521.885
       227.000         177.000
 03  2  6  1 39  0.0000000  0  8G26G23G 6G17G30G15G18G29
  21557102.114   -15214675.92849 -11507674.91447  21557101.839    21557108.526
       233.000         189.000
  20540507.299   -22132173.29349 -17218059.21348  20540506.633    20540512.975
       244.000         213.000
  20442251.913   -26164083.17949 -20367663.74947  20442251.784    20442258.065
       243.000         211.000
  21154439.562   -22893105.60149 -17818016.85247  21154439.017    21154445.851
       241.000         207.000
  24202764.185    -7025678.69249  -5456405.97545  24202764.225    24202774.844
       212.000         149.000
  22287912.472   -17336739.19149 -12849936.15746  22287911.400    22287919.477
       229.000         182.000
  21566824.330   -19497754.07449 -14381201.75347  21566823.659    21566830.020
       237.000         196.000
  22712677.637   -13000471.08549 -10108927.45846  22712677.740    22712683.851
       227.000         177.000
 03  2  6  1 39 30.0000000  0  8G26G23G 6G17G30G15G18G29
  21554781.287   -15226872.13749 -11517178.39447  21554780.996    21554787.219
       232.000         189.000
  20542695.053   -22120676.25949 -17209100.43148  20542694.519    20542700.977
       243.000         214.000
  20448360.559   -26131982.04649 -20342649.85747  20448360.145    20448366.831
       243.000         211.000
  21150007.818   -22916394.08849 -17836163.66147  21150007.125    21150013.938
       241.000         208.000
  24221433.216    -6927572.44849  -5379959.65345  24221434.250    24221445.010
       211.000         148.000
  22276865.339   -17394791.94049 -12895171.96146  22276864.558    22276872.150
       231.000         183.000
  21554472.909   -19562660.79949 -14431778.31347  21554472.149    21554478.500
       237.000         197.000
  22716941.012   -12978066.77049 -10091469.50346  22716940.849    22716946.627
       226.000         177.000
 03  2  6  1 40  0.0000000  0  8G26G23G 6G17G30G15G18G29
  21552580.972   -15238434.02749 -11526187.59147  21552580.759    21552587.019
       232.000         189.000
  20544963.635   -22108754.66849 -17199810.82948  20544963.258    20544969.631
       244.000         214.000
  20454563.031   -26099387.36549 -20317251.38247  20454562.701    20454568.943
       242.000         211.000
  21145599.566   -22939559.29449 -17854214.40647  21145598.946    21145605.782
       242.000         207.000
  24240088.850    -6829536.08749  -5303567.80145  24240089.525    24240099.782
       211.000         147.000
  22265836.776   -17452747.12449 -12940331.72946  22265835.793    22265843.504
       230.000         183.000
  21542193.310   -19627189.93949 -14482060.65247  21542192.800    21542198.908
       238.000         197.000
  22721306.081   -12955127.50849 -10073594.69146  22721306.127    22721311.605
       227.000         177.000
 03  2  6  1 40 30.0000000  0  8G26G23G 6G17G30G15G18G29
  21550501.688   -15249360.61249 -11534701.75647  21550501.758    21550507.787
       233.000         189.000
  20547312.686   -22096410.03449 -17190191.58148  20547312.102    20547318.492
       242.000         213.000
  20460859.469   -26066299.24749 -20291468.40647  20460859.332    20460865.276
       242.000         210.000
  21141214.780   -22962601.18649 -17872169.06847  21141214.122    21141220.908
       242.000         207.000
  24258730.794    -6731572.15249  -5227232.37745  24258731.789    24258743.203
       211.000         147.000
  22254826.860   -17510604.32049 -12985415.15846  22254826.094    22254834.304
       230.000         184.000
  21529985.757   -19691340.66749 -14532048.12647  21529984.832    21529991.294
       238.000         197.000
  22725772.966   -12931653.99449 -10055303.58946  22725773.334    22725779.001
       227.000         177.000
 03  2  6  1 41  0.0000000  0  8G26G23G 6G17G30G15G18G29
  21548543.435   -15259651.13249 -11542720.28247  21548542.824    21548549.615
       232.000         189.000
  20549741.873   -22083644.21649 -17180244.14048  20549741.290    20549747.731
       243.000         213.000
  20467249.663   -26032718.38749 -20265301.47947  20467249.438    20467255.744
       243.000         211.000
  21136853.385   -22985520.26849 -17890028.02847  21136852.651    21136859.272
       242.000         207.000
  24277358.433    -6633683.66449  -5150955.74845  24277359.394    24277370.578
       211.000         147.000
  22243835.511   -17568363.95349 -13030422.56646  22243834.834    22243842.174
       231.000         184.000
  21517850.244   -19755112.47449 -14581740.33947  21517849.713    21517855.887
       237.000         197.000
  22730341.280   -12907647.11649 -10036596.88046  22730340.972    22730346.901
       226.000         176.000
 03  2  6  1 41 30.0000000  0  8G26G23G 6G17G30G15G18G29
  21546706.452   -15269304.04649 -11550241.97147  21546706.775    21546712.347
       233.000         189.000
  20552251.100   -22070458.10349 -17169969.19948  20552250.553    20552256.943
       243.000         213.000
  20473733.722   -25998644.19849 -20238750.14347  20473733.559    20473739.732
       243.000         211.000
  21132515.479   -23008315.68549 -17907790.63247  21132515.014    21132521.491
       242.000         207.000
  24295971.297    -6535872.78749  -5074739.59645  24295971.619    24295983.800
       211.000         147.000
  22232862.892   -17626025.18549 -13075353.29246  22232862.340    22232870.055
       231.000         184.000
  21505787.112   -19818504.17549 -14631136.36847  21505786.574    21505792.624
       238.000         197.000
  22735011.164   -12883106.63649 -10017474.37146  22735011.289    22735017.656
       226.000         177.000
 03  2  6  1 42  0.0000000  0  8G26G23G 6G17G30G15G18G29
  21544990.951   -15278318.91649 -11557266.49247  21544990.823    21544996.925
       232.000         189.000
  20554839.834   -22056853.77449 -17159368.37348  20554839.321    20554845.494
       242.000         213.000
  20480311.574   -25964077.33849 -20211814.90647  20480311.365    20480317.464
       243.000         211.000
  21128201.086   -23030987.59849 -17925457.00047  21128200.431    21128207.418
       242.000         207.000
  24314568.784    -6438142.63049  -4998586.33545  24314569.334    24314581.166
       211.000         147.000
  22221908.802   -17683588.75849 -13120207.93146  22221907.773    22221915.639
       230.000         184.000
  21493796.401   -19881515.51749 -14680236.00047  21493796.045    21493802.118
       239.000         198.000
  22739782.326   -12858033.63249  -9997936.91246  22739782.306    22739787.667
       226.000         175.000
 03  2  6  1 42 30.0000000  0  8G26G23G 6G17G30G15G18G29
  21543397.132   -15286694.36949 -11563792.76047  21543396.947    21543403.252
       232.000         189.000
  20557507.965   -22042832.26049 -17148442.47447  20557507.354    20557513.617
       242.000         212.000
  20486983.233   -25929017.55149 -20184495.56447  20486983.127    20486989.138
       243.000         211.000
  21123910.190   -23053535.89349 -17943027.04047  21123909.562    21123916.225
       241.000         207.000
  24333150.671    -6340495.18449  -4922497.54645  24333150.830    24333162.052
       208.000         147.000
  22210973.422   -17741054.21149 -13164986.10946  22210972.244    22210979.869
       231.000         184.000
  21481878.283   -19944145.21549 -14729038.25247  21481878.095    21481883.894
       239.000         198.000
  22744654.850   -12832428.09449  -9977984.50746  22744654.833    22744660.753
       226.000         176.000
 03  2  6  1 43  0.0000000  0  8G26G23G 6G17G30G15G18G29
  21541925.107   -15294429.62449 -11569820.17447  21541925.116    21541931.041
       233.000         189.000
  20560255.250   -22028395.11349 -17137192.70747  20560254.622    20560261.012
       242.000         212.000
  20493748.585   -25893465.22449 -20156792.42747  20493748.453    20493754.621
       243.000         211.000
  21119643.041   -23075959.94849 -17960500.27547  21119642.406    21119649.150
       241.000         207.000
  24351716.148    -6242933.11149  -4846475.28545  24351716.677    24351728.583
       211.000         147.000
  22200056.738   -17798421.47349 -13209687.77546  22200055.901    22200063.423
       232.000         185.000
  21470032.947   -20006392.65449 -14777542.64747  21470032.456    21470037.968
       239.000         198.000
  22749628.618   -12806290.71849  -9957617.67346  22749628.510    22749634.148
       226.000         175.000
 03  2  6  1 43 30.0000000  0  8G26G23G 6G17G30G15G18G29
  21540575.118   -15301523.87849 -11575348.10947  21540574.730    21540581.427
       232.000         190.000
  20563081.230   -22013544.08449 -17125620.43347  20563080.556    20563087.033
       241.000         212.000
  20500607.608   -25857420.75649 -20128705.80747  20500607.345    20500613.542
       243.000         211.000
  21115399.526   -23098259.67849 -17977876.63447  21115399.083    21115405.824
       242.000         207.000
  24370264.943    -6145459.27449  -4770521.75545  24370265.796    24370277.114
       209.000         147.000
  22189158.783   -17855690.37149 -13254312.79846  22189158.265    22189165.952
       233.000         186.000
  21458260.406   -20068257.41749 -14825748.85147  21458259.936    21458265.818
       239.000         198.000
  22754703.401   -12779622.26249  -9936836.99046  22754703.487    22754709.510
       226.000         175.000
 03  2  6  1 44  0.0000000  0  8G26G23G 6G17G30G15G18G29
  21539347.110   -15307976.47249 -11580376.04747  21539347.530    21539353.144
       233.000         190.000
  20565985.633   -21998280.99849 -17113727.07547  20565985.035    20565991.449
       242.000         212.000
  20507560.219   -25820884.55249 -20100236.01247  20507560.042    20507566.045
       243.000         211.000
  21111179.666   -23120435.25049 -17995156.24447  21111179.085    21111186.048
       241.000         207.000
  24388796.361    -6048076.45949  -4694639.17245  24388796.747    24388808.708
       211.000         147.000
  22178279.567   -17912861.04349 -13298861.28746  22178278.287    22178285.893
       231.000         186.000
  21446560.833   -20129738.90949 -14873656.40047  21446560.205    21446566.165
       240.000         199.000
  22759879.129   -12752423.56449  -9915643.16446  22759878.204    22759884.486
       226.000         175.000
 03  2  6  1 44 30.0000000  0  8G26G23G 6G17G30G15G18G29
  21538241.519   -15313786.15149 -11584903.01347  21538241.266    21538247.738
       233.000         190.000
  20568968.255   -21982606.88449 -17101513.44347  20568967.880    20568974.144
       242.000         212.000
  20514606.431   -25783856.38249 -20071382.86647  20514606.274    20514612.132
       243.000         210.000
  21106983.485   -23142486.11049 -18012338.67847  21106982.770    21106989.759
       241.000         206.000
  24407310.093    -5950786.60649  -4618829.03845  24407311.060    24407323.320
       213.000         148.000
  22167419.056   -17969932.83349 -13343332.71846  22167418.186    22167425.796
       230.000         185.000
  21434934.377   -20190836.12349 -14921264.51247  21434933.684    21434939.655
       240.000         200.000
  22765155.737   -12724694.67149  -9894036.17746  22765155.571    22765161.322
       226.000         175.000
 03  2  6  1 45  0.0000000  0  8G26G23G 6G17G30G15G18G29
  21537258.440   -15318952.08549 -11588928.35347  21537258.306    21537264.470
       233.000         190.000
  20572028.860   -21966523.29149 -17088980.73647  20572028.251    20572034.499
       242.000         212.000
  20521746.187   -25746336.44849 -20042146.52247  20521745.981    20521751.946
       243.000         210.000
  21102811.161   -23164411.40549 -18029423.26947  21102810.109    21102817.323
       240.000         206.000
  24425805.676    -5853592.37149  -4543093.41145  24425806.486    24425818.291
       211.000         149.000
  22156577.253   -18026905.60249 -13387726.97846  22156576.162    22156583.939
       229.000         184.000
  21423381.213   -20251548.17549 -14968572.49647  21423380.642    21423386.358
       241.000         200.000
  22770533.163   -12696436.22249  -9872016.56046  22770532.948    22770538.546
       227.000         175.000
 03  2  6  1 45 30.0000000  0  8G26G23G 6G17G30G15G18G29
  21536397.832   -15323474.01849 -11592451.87047  21536397.572    21536403.878
       233.000         190.000
  20575166.944   -21950032.31349 -17076130.57747  20575166.389    20575172.542
       242.000         212.000
  20528979.363   -25708325.71249 -20012527.73747  20528979.103    20528985.167
       242.000         210.000
  21098662.440   -23186212.29049 -18046410.92047  21098661.521    21098668.467
       241.000         206.000
  24444282.484    -5756496.81149  -4467434.67745  24444282.785    24444294.543
       211.000         148.000
  22145754.341   -18083779.76749 -13432044.41546  22145753.534    22145761.149
       230.000         183.000
  21411901.316   -20311875.06349 -15015580.36047  21411900.780    21411906.302
       240.000         200.000
  22776010.994   -12667649.43849  -9849585.25546  22776010.936    22776017.273
       226.000         175.000
 03  2  6  1 46  0.0000000  0  8G26G23G 6G17G30G15G18G29
  21535660.083   -15327350.75949 -11595472.65047  21535659.783    21535665.982
       233.000         190.000
  20578382.397   -21933135.04749 -17062963.84047  20578381.993    20578387.928
       243.000         212.000
  20536305.991   -25669823.93949 -19982526.33847  20536305.731    20536311.614
       242.000         210.000
  21094537.618   -23207887.76449 -18063300.85047  21094536.826    21094543.738
       241.000         206.000
  24462740.159    -5659501.81249  -4391854.29645  24462740.737    24462752.189
       211.000         146.000
  22134950.320   -18140554.83449 -13476284.64046  22134949.613    22134956.601
       231.000         184.000
  21400494.910   -20371815.72749 -15062287.26747  21400494.276    21400500.169
       240.000         200.000
  22781589.403   -12638334.58849  -9826742.47246  22781588.904    22781595.285
       227.000         175.000
 03  2  6  1 46 30.0000000  0  8G26G23G 6G17G30G15G18G29
  21535045.174   -15330581.77949 -11597990.26747  21535044.999    21535051.444
       233.000         190.000
  20581674.845   -21915833.06349 -17049481.73347  20581674.104    20581680.597
       242.000         212.000
  20543725.957   -25630831.49449 -19952142.58747  20543725.535    20543731.695
       243.000         209.000
  21090436.833   -23229437.36749 -18080092.69947  21090436.205    21090443.087
       241.000         207.000
  24481178.266    -5562610.18849  -4316354.46745  24481179.172    24481191.256
       213.000         146.000
  22124165.145   -18197230.80449 -13520447.64946  22124165.029    22124171.900
       232.000         185.000
  21389162.114   -20431369.52649 -15108692.71947  21389161.522    21389167.174
       240.000         201.000
  22787268.181   -12608492.33949  -9803488.72746  22787267.693    22787273.828
       227.000         175.000
 03  2  6  1 47  0.0000000  0  8G26G23G 6G17G30G15G18G29
  21534553.206   -15333167.06549 -11600004.71447  21534553.219    21534559.325
       233.000         190.000
  20585043.787   -21898128.88649 -17035686.22747  20585043.231    20585049.616
       243.000         212.000
  20551239.110   -25591349.46449 -19921377.33747  20551238.903    20551244.890
       242.000         209.000
  21086359.805   -23250861.95749 -18096787.13147  21086359.207    21086366.031
       241.000         207.000
  24499596.071    -5465825.05849  -4240937.61345  24499596.772    24499608.030
       211.000         146.000
  22113398.892   -18253808.15649 -13564533.81746  22113398.043    22113405.393
       232.000         186.000
  21377902.973   -20490536.41549 -15154796.68847  21377902.126    21377908.157
       240.000         201.000
  22793047.051   -12578124.30649  -9779825.28546  22793046.912    22793052.802
       226.000         175.000
 03  2  6  1 47 30.0000000  0  8G26G23G 6G17G30G15G18G29
  21534184.161   -15335106.16349 -11601515.64147  21534184.294    21534189.950
       234.000         190.000
  20588489.036   -21880024.22749 -17021578.65848  20588488.506    20588494.664
       243.000         213.000
  20558845.373   -25551378.47549 -19890231.07747  20558845.268    20558851.222
       242.000         209.000
  21082306.592   -23272161.33249 -18113383.99147  21082305.833    21082312.704
       241.000         207.000
  24517993.015    -5369149.20449  -4165605.93945  24517993.266    24518005.499
       212.000         145.000
  22102651.360   -18310286.83849 -13608543.09546  22102649.944    22102657.984
       231.000         186.000
  21366717.435   -20549316.30949 -15200599.09247  21366716.540    21366722.467
       240.000         201.000
  22798925.717   -12547231.36949  -9755752.82046  22798925.482    22798931.222
       227.000         175.000
 03  2  6  1 48  0.0000000  0  8G26G23G 6G17G30G15G18G29
  21533938.491   -15336397.10949 -11602521.51247  21533938.315    21533944.048
       234.000         190.000
  20592010.420   -21861519.18149 -17007159.10047  20592009.658    20592016.110
       243.000         212.000
  20566544.795   -25510917.44249 -19858702.97647  20566544.627    20566550.747
       242.000         209.000
  21078277.639   -23293333.63549 -18129881.83947  21078277.072    21078283.632
       241.000         207.000
  24536369.029    -5272583.57449  -4090360.13745  24536370.334    24536380.670
       209.000         143.000
  22091922.721   -18366665.46149 -13652474.39546  22091921.841    22091929.426
       232.000         186.000
  21355605.907   -20607706.93249 -15246098.18247  21355605.092    21355610.529
       240.000         201.000
  22804904.448   -12515812.71249  -9731270.70246  22804903.824    22804910.160
       226.000         175.000
 03  2  6  1 48 30.0000000  0  8G26G23G 6G17G30G15G18G29
  21533816.217   -15337039.45149 -11603021.98047  21533816.359    21533821.701
       233.000         190.000
  20595607.573   -21842615.70449 -16992429.07547  20595607.108    20595613.213
       243.000         212.000
  20574337.412   -25469967.00249 -19826793.51647  20574337.253    20574343.284
       243.000         210.000
  21074272.848   -23314378.93549 -18146280.72747  21074272.475    21074278.922
       242.000         207.000
  24554723.475    -5176130.96749  -4015202.40445  24554724.678    24554735.965
       209.000         143.000
  22081213.222   -18422944.07149 -13696327.76646  22081212.595    22081219.827
       232.000         187.000
  21344568.615   -20665708.19949 -15291293.87647  21344568.023    21344573.397
       241.000         201.000
  22810982.954   -12483869.50449  -9706379.86346  22810982.595    22810988.277
       228.000         175.000
 03  2  6  1 49  0.0000000  0  8G26G23G 6G17G30G15G18G29
  21533817.417   -15337032.97949 -11603016.87647  21533817.079    21533823.563
       233.000         190.000
  20599280.314   -21823315.59149 -16977389.98448  20599279.835    20599285.843
       243.000         213.000
  20582223.027   -25428527.80749 -19794503.19947  20582222.754    20582228.675
       242.000         210.000
  21070292.305   -23335297.02549 -18162580.48947  21070291.890    21070298.258
       242.000         208.000
  24573055.884    -5079794.12649  -3940134.89645  24573057.676    24573068.138
       209.000         143.000
  22070522.729   -18479122.54949 -13740103.11346  22070521.846    22070529.255
       232.000         187.000
  21333605.473   -20723319.65649 -15336185.82647  21333604.733    21333610.398
       240.000         201.000
  22817161.156   -12451402.89849  -9681081.16146  22817160.029    22817166.527
       225.000         175.000
 03  2  6  1 49 30.0000000  0  8G26G23G 6G17G30G15G18G29
  21533942.156   -15336377.15849 -11602505.80047  21533942.302    21533948.002
       234.000         190.000
  20603028.084   -21803620.57349 -16962043.17147  20603027.451    20603033.497
       242.000         212.000
  20590201.522   -25386600.44149 -19761832.49447  20590201.310    20590207.412
       243.000         210.000
  21066335.985   -23356087.78249 -18178781.03247  21066335.499    21066341.824
       241.000         208.000
  24591365.782    -4983575.51649  -3865159.50145  24591366.181    24591379.696
       211.000         144.000
  22059851.305   -18535200.79449 -13783800.36546  22059850.643    22059857.547
       233.000         187.000
  21322716.561   -20780540.65549 -15380773.52147  21322715.821    21322721.462
       241.000         202.000
  22823438.797   -12418413.51949  -9655375.10846  22823438.732    22823444.684
       227.000         175.000
 03  2  6  1 50  0.0000000  0  8G26G23G 6G17G30G15G18G29
  21534190.552   -15335071.92949 -11601488.68347  21534190.770    21534196.533
       234.000         190.000
  20606850.618   -21783532.69349 -16946390.23747  20606850.015    20606856.177
       242.000         212.000
  20598272.814   -25344185.71649 -19728782.03047  20598272.683    20598278.618
       243.000         211.000
  21062403.732   -23376751.68249 -18194882.72747  21062403.242    21062409.615
       242.000         208.000
  24609652.858    -4887477.88649  -3790278.35545  24609653.222    24609665.539
       212.000         144.000
  22049198.973   -18591178.99849 -13827419.67147  22049198.567    22049205.576
       234.000         188.000
  21311902.026   -20837371.21949 -15425056.98447  21311901.468    21311907.042
       242.000         202.000
  22829815.614   -12384902.79349  -9629262.82646  22829815.348    22829821.303
       227.000         175.000
 03  2  6  1 50 30.0000000  0  8G26G23G 6G17G30G15G18G29
  21534562.549   -15333116.94449 -11599965.26447  21534562.692    21534568.276
       233.000         190.000
  20610747.645   -21763053.63149 -16930432.48447  20610747.077    20610753.224
       242.000         212.000
  20606436.721   -25301284.09649 -19695352.17047  20606436.541    20606442.381
       243.000         211.000
  21058495.689   -23397288.46549 -18210885.36347  21058494.997    21058501.925
       242.000         208.000
  24627916.460    -4791503.82949  -3715493.54045  24627915.559    24627927.560
       210.000         143.000
  22038565.754   -18647057.04349 -13870960.92347  22038564.809    22038572.251
       233.000         188.000
  21301161.939   -20893810.92849 -15469035.88547  21301161.343    21301166.498
       243.000         203.000
  22836291.508   -12350871.51549  -9602744.90846  22836291.764    22836296.539
       228.000         175.000
 03  2  6  1 51  0.0000000  0  8G26G23G 6G17G30G15G18G29
  21535058.327   -15330511.46549 -11597934.97047  21535058.279    21535064.469
       234.000         190.000
  20614718.755   -21742184.94049 -16914171.11747  20614718.128    20614724.360
       242.000         212.000
  20614693.198   -25257895.86749 -19661543.13047  20614693.095    20614698.881
       243.000         210.000
  21054612.070   -23417697.08749 -18226788.13747  21054611.576    21054618.293
       241.000         208.000
  24646156.121    -4695655.53049  -3640806.70145  24646157.001    24646167.923
       210.000         143.000
  22027951.598   -18702834.36949 -13914423.69047  22027950.657    22027958.150
       233.000         188.000
  21290496.211   -20949859.03749 -15512709.64047  21290495.537    21290500.940
       242.000         203.000
  22842866.382   -12316320.38549  -9575821.91646  22842865.613    22842871.632
       227.000         174.000
 03  2  6  1 51 30.0000000  0  8G26G23G 6G17G30G15G18G29
  21535677.951   -15327255.26049 -11595397.61847  21535678.160    21535683.729
       233.000         190.000
  20618763.717   -21720928.35649 -16897607.50847  20618763.137    20618769.121
       242.000         212.000
  20623042.134   -25214021.72949 -19627355.46247  20623041.805    20623047.766
       244.000         210.000
  21050752.936   -23437977.14149 -18242590.73247  21050752.497    21050758.956
       241.000         209.000
  24664371.352    -4599935.60849  -3566219.91545  24664371.371    24664382.474
       211.000         142.000
  22017356.618   -18758510.89849 -13957807.91646  22017355.782    22017362.810
       233.000         187.000
  21279905.179   -21005514.92849 -15556077.77847  21279904.589    21279910.057
       242.000         203.000
  22849539.826   -12281250.65449  -9548494.82446  22849539.413    22849546.316
       225.000         174.000
 03  2  6  1 52  0.0000000  0  8G26G23G 6G17G30G15G18G29
  21536421.537   -15323347.58049 -11592352.61447  21536421.106    21536426.970
       233.000         190.000
  20622882.207   -21699285.31249 -16880742.75547  20622881.506    20622887.716
       242.000         212.000
  20631483.530   -25169661.95749 -19592789.37847  20631483.331    20631489.297
       243.000         210.000
  21046918.326   -23458128.24349 -18258292.84247  21046917.522    21046924.127
       241.000         209.000
  24682561.796    -4504346.04449  -3491734.68545  24682561.848    24682573.813
       211.000         142.000
  22006780.958   -18814085.97349 -14001113.07146  22006780.063    22006787.436
       232.000         187.000
  21269388.961   -21060777.83249 -15599139.69647  21269388.289    21269393.668
       243.000         204.000
  22856311.964   -12245662.56749  -9520763.81746  22856311.425    22856317.716
       227.000         175.000
 03  2  6  1 52 30.0000000  0  7G26G23G 6G17G15G18G29
  21537290.601   -15318780.27349 -11588793.62347  21537290.294    21537296.127
       235.000         190.000
  20627075.412   -21677249.62249 -16863572.04147  20627074.523    20627080.887
       242.000         211.000
  20640018.651   -25124809.18049 -19557839.13647  20640018.423    20640024.395
       242.000         210.000
  21043109.620   -23478142.57849 -18273888.38247  21043108.809    21043115.324
       241.000         208.000
  21996226.053   -18869551.72649 -14044333.04646  21996224.730    21996232.605
       232.000         187.000
  21258949.033   -21115639.68349 -15641889.10647  21258948.496    21258953.769
       243.000         204.000
  22863184.079   -12209549.33349  -9492623.60046  22863183.987    22863189.066
       227.000         174.000
 03  2  6  1 53  0.0000000  0  7G26G23G 6G17G15G18G29
  21538284.997   -15313554.58649 -11584721.61547  21538285.245    21538290.315
       235.000         190.000
  20631342.694   -21654824.42549 -16846097.81947  20631341.979    20631348.439
       242.000         212.000
  20648647.228   -25079465.50349 -19522506.37647  20648646.989    20648652.779
       243.000         209.000
  21039326.797   -23498020.94049 -18289377.96947  21039325.788    21039332.630
       240.000         207.000
  21985691.655   -18924909.62549 -14087468.97246  21985690.923    21985698.051
       233.000         187.000
  21248585.285   -21170101.34349 -15684326.68147  21248584.701    21248590.096
       243.000         205.000
  22870155.582   -12172913.68749  -9464076.32246  22870155.691    22870161.848
       227.000         175.000
 03  2  6  1 53 30.0000000  0  7G26G23G 6G17G15G18G29
  21539402.232   -15307683.14349 -11580146.40947  21539402.272    21539407.867
       234.000         191.000
  20635681.410   -21632024.32249 -16828331.46347  20635681.025    20635686.900
       242.000         212.000
  20657366.660   -25033644.52849 -19486801.68847  20657366.363    20657372.382
       242.000         209.000
  21035567.431   -23517776.00549 -18304771.48247  21035566.810    21035573.330
       241.000         207.000
  21975175.542   -18980172.12349 -14130530.56347  21975175.103    21975181.990
       233.000         188.000
  21238295.251   -21224175.48049 -15726462.29647  21238294.744    21238300.031
       243.000         205.000
  22877223.920   -12135769.26749  -9435132.58446  22877223.418    22877229.686
       226.000         175.000
 03  2  6  1 54  0.0000000  0  7G26G23G 6G17G15G18G29
  21540642.926   -15301163.00549 -11575065.74347  21540642.723    21540648.270
       234.000         190.000
  20640091.627   -21608848.31549 -16810272.19647  20640091.062    20640097.192
       242.000         212.000
  20666177.321   -24987343.92149 -19450723.27147  20666177.023    20666183.118
       241.000         208.000
  21031832.193   -23537404.62549 -18320066.46547  21031831.666    21031838.388
       241.000         208.000
  21964678.088   -19035336.29349 -14173515.54146  21964677.090    21964683.542
       233.000         187.000
  21228079.599   -21277858.75949 -15768293.34247  21228079.167    21228084.252
       243.000         205.000
  22884389.317   -12098114.36349  -9405791.06846  22884389.387    22884395.471
       226.000         174.000
 03  2  6  1 54 30.0000000  0  7G26G23G 6G17G15G18G29
  21542007.408   -15293992.15749 -11569478.03147  21542007.439    21542013.197
       234.000         190.000
  20644573.347   -21585296.54849 -16791920.13047  20644572.870    20644578.911
       243.000         212.000
  20675079.450   -24940562.69049 -19414270.34247  20675079.091    20675085.164
       242.000         208.000
  21028121.489   -23556904.52549 -18335261.14947  21028121.045    21028127.726
       241.000         209.000
  21954199.721   -19090399.98149 -14216422.21846  21954199.134    21954206.161
       233.000         187.000
  21217938.732   -21331149.03049 -15809818.15547  21217938.177    21217943.348
       243.000         205.000
  22891652.113   -12059948.38049  -9376051.31646  22891652.549    22891657.855
       226.000         175.000
 03  2  6  1 55  0.0000000  0  7G26G23G 6G17G15G18G29
  21543495.954   -15286169.61049 -11563382.49247  21543496.118    21543502.016
       234.000         191.000
  20649126.472   -21561369.73349 -16773275.81647  20649126.117    20649132.053
       243.000         212.000
  20684073.055   -24893300.62149 -19377442.73447  20684072.894    20684078.956
       241.000         208.000
  21024435.461   -23576274.43749 -18350354.54247  21024435.007    21024441.780
       241.000         209.000
  21943740.704   -19145362.09049 -14259249.74046  21943739.735    21943746.537
       232.000         186.000
  21207872.941   -21384044.92349 -15851035.66247  21207872.375    21207877.465
       243.000         205.000
  22899012.051   -12021271.44249  -9345913.41746  22899012.543    22899017.625
       226.000         174.000
 03  2  6  1 55 30.0000000  0  7G26G23G 6G17G15G18G29
  21545108.682   -15277694.60449 -11556778.54847  21545108.432    21545114.461
       235.000         191.000
  20653750.724   -21537069.17549 -16754340.27848  20653750.206    20653756.190
       243.000         213.000
  20693158.143   -24845557.97049 -19340240.64547  20693158.045    20693163.996
       241.000         207.000
  21020774.280   -23595513.63749 -18365346.08247  21020773.521    21020780.346
       241.000         209.000
  21933301.063   -19200222.13149 -14301997.72646  21933300.182    21933307.018
       232.000         187.000
  21197882.268   -21436545.80549 -15891945.36347  21197881.462    21197886.848
       242.000         205.000
  22906469.102   -11982084.24849  -9315377.91246  22906468.862    22906474.412
       227.000         175.000
 03  2  6  1 56  0.0000000  0  7G26G23G 6G17G15G18G29
  21546845.544   -15268567.12649 -11549666.18547  21546845.489    21546851.347
       234.000         191.000
  20658445.737   -21512396.48449 -16735114.76748  20658445.196    20658451.069
       243.000         213.000
  20702334.652   -24797335.04849 -19302664.32047  20702334.422    20702340.496
       241.000         207.000
  21017138.081   -23614621.58549 -18380235.34647  21017137.249    21017143.765
       240.000         208.000
  21922880.984   -19254979.56649 -14344665.75246  21922880.056    21922886.940
       232.000         187.000
  21187966.876   -21488650.99549 -15932546.74047  21187966.426    21187971.589
       242.000         204.000
  22914023.098   -11942387.60749  -9284445.43646  22914023.362    22914029.108
       226.000         175.000
 03  2  6  1 56 30.0000000  0  7G26G23G 6G17G15G18G29
  21548706.581   -15258786.87049 -11542045.15947  21548706.751    21548712.679
       234.000         191.000
  20663211.241   -21487353.53949 -16715600.74648  20663210.817    20663216.614
       243.000         213.000
  20711602.388   -24748632.73249 -19264714.44447  20711602.086    20711608.086
       241.000         207.000
  21013526.904   -23633597.90649 -18395022.05047  21013526.189    21013532.832
       241.000         208.000
  21912480.495   -19309634.08649 -14387253.59247  21912480.016    21912487.174
       233.000         188.000
  21178126.874   -21540360.17949 -15972839.53947  21178126.188    21178131.716
       242.000         205.000
  22921673.811   -11902182.79449  -9253116.97746  22921673.765    22921679.221
       226.000         175.000
 03  2  6  1 57  0.0000000  0  7G26G23G 6G17G15G18G29
  21550691.935   -15248353.54749 -11533915.26547  21550691.886    21550697.402
       234.000         190.000
  20668046.962   -21461941.67049 -16695799.25948  20668046.529    20668052.368
       243.000         213.000
  20720961.254   -24699451.46849 -19226391.36147  20720961.067    20720966.934
       241.000         207.000
  21009940.995   -23652441.92149 -18409705.65547  21009940.491    21009947.071
       242.000         209.000
  21902099.688   -19364185.00049 -14429760.69847  21902098.743    21902106.204
       234.000         189.000
  21168362.300   -21591672.84049 -16012823.36047  21168361.678    21168366.882
       242.000         204.000
  22929421.124   -11861470.49049  -9221393.08046  22929421.152    22929427.137
       227.000         174.000
 03  2  6  1 57 30.0000000  0  7G26G23G 6G17G15G18G29
  21552801.471   -15237267.79849 -11525276.98147  21552801.256    21552807.178
       234.000         190.000
  20672952.424   -21436163.23949 -16675712.13648  20672951.673    20672957.831
       243.000         213.000
  20730411.025   -24649792.48349 -19187696.02847  20730410.705    20730416.667
       241.000         207.000
  21006380.329   -23671153.34949 -18424285.94747  21006379.856    21006386.209
       242.000         209.000
  21891738.619   -19418632.57649 -14472187.29147  21891737.645    21891744.968
       234.000         189.000
  21158673.185   -21642589.08749 -16052498.28247  21158672.566    21158677.952
       241.000         204.000
  22937264.649   -11820252.30849  -9189274.98746  22937264.142    22937270.499
       224.000         174.000
 03  2  6  1 58  0.0000000  0  7G26G23G 6G17G15G18G29
  21555035.338   -15225528.69349 -11516129.58947  21555035.639    21555040.957
       234.000         190.000
  20677927.412   -21410019.14549 -16655340.08348  20677926.909    20677932.934
       243.000         213.000
  20739951.742   -24599655.60449 -19148628.31247  20739951.750    20739957.436
       241.000         207.000
  21002845.051   -23689731.46549 -18438762.36347  21002844.583    21002851.179
       242.000         209.000
  21881397.367   -19472975.71949 -14514532.50747  21881395.765    21881403.000
       233.000         188.000
  21149059.766   -21693107.79549 -16091863.44047  21149059.181    21149064.568
       241.000         205.000
  22945204.268   -11778528.85449  -9156763.17246  22945204.655    22945210.098
       224.000         174.000
 03  2  6  1 58 30.0000000  0  7G26G23G 6G17G15G18G29
  21557393.334   -15213137.16149 -11506473.81547  21557393.267    21557398.677
       233.000         190.000
  20682971.572   -21383511.98649 -16634685.12248  20682971.007    20682976.843
       243.000         213.000
  20749583.102   -24549042.51249 -19109189.52147  20749583.003    20749588.796
       241.000         207.000
  20999335.036   -23708176.57349 -18453135.13347  20999334.343    20999341.183
       241.000         209.000
  21871075.812   -19527214.97049 -14556796.77046  21871074.840    21871081.312
       234.000         187.000
  21139521.897   -21743229.32949 -16130919.10847  21139521.284    21139526.588
       240.000         205.000
  22953239.818   -11736301.81249  -9123858.96446  22953238.733    22953244.800
       227.000         173.000
 03  2  6  1 59  0.0000000  0  7G26G23G 6G17G15G18G29
  21559875.555   -15200092.87349 -11496309.39347  21559875.519    21559880.862
       234.000         190.000
  20688084.474   -21356643.28449 -16613748.44247  20688083.728    20688089.735
       243.000         212.000
  20759305.016   -24497953.71949 -19069380.05947  20759304.822    20759310.700
       241.000         207.000
  20995850.429   -23726487.91549 -18467403.66747  20995849.616    20995856.404
       242.000         209.000
  21860774.331   -19581349.69349 -14598979.60047  21860773.851    21860780.290
       235.000         188.000
  21130059.624   -21792953.25549 -16169664.94547  21130058.935    21130064.436
       241.000         204.000
  22961370.924   -11693572.49049  -9090563.35246  22961370.724    22961376.243
       226.000         173.000
 03  2  6  1 59 30.0000000  0  7G26G23G 6G17G15G18G29
  21562481.842   -15186396.72249 -11485637.03447  21562482.334    21562487.433
       235.000         190.000
  20693265.672   -21329415.56449 -16592532.00747  20693265.191    20693271.024
       242.000         212.000
  20769117.083   -24446390.68049 -19029201.05447  20769116.640    20769122.702
       241.000         206.000
  20992391.238   -23744665.53049 -18481567.99847  20992390.730    20992397.051
       241.000         209.000
  21850492.673   -19635380.35449 -14641081.33547  21850492.019    21850498.790
       236.000         190.000
  21120673.031   -21842279.92049 -16208101.24047  21120672.313    21120677.675
       242.000         206.000
  22969597.285   -11650342.53249  -9056877.64946  22969596.699    22969602.145
       225.000         173.000
 03  2  6  2  0  0.0000000  0  7G26G23G 6G17G15G18G29
  21565212.228   -15172048.36849 -11474456.46947  21565212.514    21565217.587
       234.000         190.000
  20698515.028   -21301830.04849 -16571036.77247  20698514.437    20698520.450
       242.000         212.000
  20779019.366   -24394353.77949 -18988652.79947  20779019.144    20779024.880
       241.000         206.000
  20988957.688   -23762708.79649 -18495627.64647  20988957.177    20988963.563
       241.000         209.000
  21840230.975   -19689305.99649 -14683101.25247  21840230.273    21840236.847
       236.000         191.000
  21111362.163   -21891208.57749 -16246227.38747  21111361.569    21111366.784
       241.000         206.000
  22977918.639   -11606612.86449  -9022802.54446  22977918.008    22977923.902
       225.000         172.000
 03  2  6  2  0 30.0000000  0  7G26G23G 6G17G15G18G29
  21568066.782   -15157047.65549 -11462767.57347  21568066.688    21568071.899
       234.000         190.000
  20703832.124   -21273888.28249 -16549263.94147  20703831.616    20703837.380
       242.000         212.000
  20789011.708   -24341843.52649 -18947735.70847  20789011.527    20789017.599
       241.000         206.000
  20985549.910   -23780616.84649 -18509581.93347  20985549.346    20985555.640
       241.000         209.000
  21829989.377   -19743125.97449 -14725038.83047  21829988.703    21829995.213
       236.000         192.000
  21102127.113   -21939738.68449 -16284042.97747  21102126.612    21102131.782
       242.000         206.000
  22986335.020   -11562384.41749  -8988338.80046  22986334.622    22986340.719
       224.000         172.000
 03  2  6  2  1  0.0000000  0  7G26G23G 6G17G15G18G29
  21571045.516   -15141394.35249 -11450570.15947  21571045.216    21571050.924
       234.000         190.000
  20709216.740   -21245591.62049 -16527214.56247  20709216.098    20709222.032
       242.000         211.000
  20799094.021   -24288860.35549 -18906450.10347  20799093.727    20799099.745
       241.000         206.000
  20982168.122   -23798388.00249 -18523429.54447  20982167.448    20982173.938
       241.000         209.000
  21819767.993   -19796839.56749 -14766893.51247  21819767.339    21819774.095
       235.000         192.000
  21092968.055   -21987869.75749 -16321547.64147  21092967.832    21092972.807
       242.000         207.000
  22994846.084   -11517657.97749  -8953487.00146  22994846.389    22994852.119
       224.000         172.000
 03  2  6  2  1 30.0000000  0  7G26G23G 6G17G15G18G29
  21574148.231   -15125089.09049 -11437864.74347  21574148.278    21574153.514
       235.000         190.000
  20714668.538   -21216942.35449 -16504890.43147  20714667.884    20714673.961
       242.000         211.000
  20809266.103   -24235405.77549 -18864797.17347  20809266.195    20809271.650
       241.000         206.000
  20978812.287   -23816022.89049 -18537170.97347  20978811.601    20978818.412
       240.000         209.000
  21809566.823   -19850446.93649 -14808665.42247  21809565.972    21809572.992
       234.000         191.000
  21083884.915   -22035601.83349 -16358741.39947  21083884.510    21083889.617
       242.000         207.000
  23003451.576   -11472435.38149  -8918248.59446  23003451.512    23003457.343
       225.000         171.000
 03  2  6  2  2  0.0000000  0  7G26G23G 6G17G15G18G29
  21577375.015   -15108132.21449 -11424651.56647  21577375.064    21577379.984
       234.000         190.000
  20720186.966   -21187942.39149 -16482293.02847  20720186.254    20720192.364
       242.000         211.000
  20819527.739   -24181480.67349 -18822777.59347  20819527.671    20819533.359
       242.000         207.000
  20975482.417   -23833521.30449 -18550806.06147  20975481.866    20975488.722
       242.000         209.000
  21799385.792   -19903947.59849 -14850354.18047  21799384.600    21799391.722
       234.000         191.000
  21074877.682   -22082934.74749 -16395624.11247  21074876.916    21074882.241
       242.000         207.000
  23012151.362   -11426717.81349  -8882624.49146  23012150.979    23012157.215
       223.000         172.000
 03  2  6  2  2 30.0000000  0  7G26G23G 6G17G15G18G29
  21580725.563   -15090524.80149 -11410931.47447  21580725.605    21580730.941
       234.000         190.000
  20725771.681   -21158594.26549 -16459424.32847  20725771.057    20725777.261
       242.000         211.000
  20829878.547   -24127086.66949 -18780392.63547  20829878.185    20829884.198
       240.000         206.000
  20972178.628   -23850882.86749 -18564334.51247  20972178.153    20972184.544
       241.000         209.000
  21789225.093   -19957341.96049 -14891960.11947  21789224.454    21789231.016
       235.000         190.000
  21065946.340   -22129868.95549 -16432196.14847  21065945.859    21065951.023
       243.000         207.000
  23020944.830   -11380507.52049  -8846616.44746  23020944.971    23020950.792
       225.000         171.000
 03  2  6  2  3  0.0000000  0  7G26G23G 6G17G15G18G29
  21584199.904   -15072266.71849 -11396704.36747  21584200.049    21584206.042
       234.000         190.000
  20731422.406   -21128899.57749 -16436285.57747  20731421.905    20731427.634
       242.000         211.000
  20840318.415   -24072224.43049 -18737642.82747  20840318.248    20840324.282
       240.000         205.000
  20968900.916   -23868107.43249 -18577756.21047  20968900.372    20968906.640
       241.000         209.000
  21779084.851   -20010629.51149 -14933482.82947  21779084.244    21779090.470
       235.000         191.000
  21057090.945   -22176404.15849 -16468457.27047  21057090.170    21057095.446
       242.000         207.000
  23029831.965   -11333805.41249  -8810225.17446  23029831.899    23029838.076
       224.000         172.000
 03  2  6  2  3 30.0000000  0  7G26G23G 6G17G15G18G29
  21587798.023   -15053358.25349 -11381970.47047  21587797.589    21587803.793
       234.000         190.000
  20737138.710   -21098859.94749 -16412878.04147  20737138.258    20737144.146
       242.000         211.000
  20850847.325   -24016894.61149 -18694528.66747  20850847.409    20850853.030
       241.000         206.000
  20965649.390   -23885194.02749 -18591070.40147  20965648.733    20965655.025
       241.000         209.000
  21768964.999   -20063809.47849 -14974921.70747  21768963.790    21768971.403
       233.000         191.000
  21048311.487   -22222540.03249 -16504407.22647  21048310.838    21048315.802
       242.000         207.000
  23038812.285   -11286613.00949  -8773451.84746  23038812.452    23038818.284
       224.000         171.000
 03  2  6  2  4  0.0000000  0  7G26G23G 6G17G15G18G29
  21591519.835   -15033799.71249 -11366730.02347  21591519.722    21591525.368
       233.000         190.000
  20742920.391   -21068477.16949 -16389203.11247  20742919.815    20742925.794
       242.000         211.000
  20861465.066   -23961098.41649 -18651051.09247  20861465.128    20861470.820
       241.000         206.000
  20962424.276   -23902141.78649 -18604276.41047  20962423.626    20962429.956
       241.000         208.000
  21758865.494   -20116881.45749 -15016276.41847  21758864.412    21758871.633
       233.000         191.000
  21039608.146   -22268276.37549 -16540045.86047  21039607.743    21039612.901
       243.000         207.000
  23047885.892   -11238931.36849  -8736297.29546  23047885.731    23047891.741
       224.000         172.000
 03  2  6  2  4 30.0000000  0  7G26G23G 6G17G15G18G29
  21595365.224   -15013591.62049 -11350983.42947  21595365.220    21595371.374
       233.000         190.000
  20748766.909   -21037753.13049 -16365262.26547  20748766.158    20748772.249
       242.000         211.000
  20872171.280   -23904836.78949 -18607210.85347  20872170.957    20872176.938
       240.000         205.000
  20959225.625   -23918950.38249 -18617373.97647  20959224.871    20959231.390
       241.000         209.000
  21748786.719   -20169845.34649 -15057546.90847  21748785.839    21748792.856
       234.000         191.000
  21030980.803   -22313613.02249 -16575373.04647  21030980.015    21030985.401
       242.000         207.000
  23057052.161   -11190761.98649  -8698762.69346  23057052.095    23057057.684
       224.000         172.000
 03  2  6  2  5  0.0000000  0  7G26G23G 6G17G15G18G29
  21599334.093   -14992734.99349 -11334731.48247  21599334.142    21599339.994
       234.000         190.000
  20754677.984   -21006690.17949 -16341057.33847  20754677.466    20754683.318
       242.000         211.000
  20882965.745   -23848111.33949 -18563009.19547  20882965.524    20882971.418
       240.000         205.000
  20956053.359   -23935620.25549 -18630363.45347  20956052.797    20956059.571
       241.000         209.000
  21738728.604   -20222701.20349 -15098733.22347  21738727.712    21738734.958
       235.000         192.000
  21022429.436   -22358550.39149 -16610389.10647  21022428.915    21022433.858
       242.000         207.000
  23066311.001   -11142106.91549  -8660849.63646  23066310.915    23066315.981
       225.000         171.000
 03  2  6  2  5 30.0000000  0  7G26G23G 6G17G15G18G29
  21603426.293   -14971230.27649 -11317974.53147  21603426.249    21603431.931
       233.000         190.000
  20760653.202   -20975290.27849 -16316589.84447  20760652.599    20760658.603
       243.000         211.000
  20893848.308   -23790923.07149 -18518446.89247  20893848.230    20893854.089
       241.000         205.000
  20952907.698   -23952150.69349 -18643244.27247  20952907.254    20952913.722
       241.000         209.000
  21728691.008   -20275448.71649 -15139835.11147  21728690.391    21728697.084
       235.000         192.000
  21013954.058   -22403088.50949 -16645094.06747  21013953.513    21013958.449
       242.000         207.000
  23075661.898   -11092967.61649  -8622559.25146  23075661.442    23075667.431
       224.000         171.000
 03  2  6  2  6  0.0000000  0  7G26G23G 6G17G15G18G29
  21607641.839   -14949077.06549 -11300712.25447  21607641.631    21607647.752
       234.000         189.000
  20766692.268   -20943554.40149 -16291860.56047  20766691.649    20766697.590
       243.000         211.000
  20904818.895   -23733272.21249 -18473524.13247  20904818.475    20904824.264
       240.000         205.000
  20949788.948   -23968539.88349 -18656015.03347  20949788.603    20949794.916
       242.000         210.000
  21718674.290   -20328086.60749 -15180851.58747  21718673.485    21718680.162
       235.000         193.000
  21005554.852   -22447226.29849 -16679487.07847  21005554.287    21005559.348
       242.000         207.000
  23085104.818   -11043344.86549  -8583892.14746  23085104.545    23085110.346
       224.000         171.000
 03  2  6  2  6 30.0000000  0  7G26G23G 6G17G15G18G29
  21611980.610   -14926276.25449 -11282945.35247  21611980.287    21611986.371
       235.000         189.000
  20772794.931   -20911484.61949 -16266871.08747  20772794.434    20772800.202
       243.000         211.000
  20915877.231   -23675160.05149 -18428241.91247  20915876.980    20915882.956
       239.000         205.000
  20946697.042   -23984788.02949 -18668675.88847  20946696.664    20946702.606
       242.000         210.000
  21708678.516   -20380614.80149 -15221782.58747  21708678.075    21708684.707
       237.000         193.000
  20997231.818   -22490963.94749 -16713568.29247  20997231.209    20997236.184
       242.000         207.000
  23094639.362   -10993240.11849  -8544849.46846  23094638.814    23094644.790
       223.000         170.000
 03  2  6  2  7  0.0000000  0  7G26G23G 6G17G15G18G29
  21616442.639   -14902828.02349 -11264673.98147  21616443.238    21616448.031
       234.000         189.000
  20778960.895   -20879082.50049 -16241622.66447  20778960.535    20778966.103
       243.000         212.000
  20927023.188   -23616587.36749 -18382600.85447  20927022.993    20927028.713
       240.000         204.000
  20943632.108   -24000894.23449 -18681226.14447  20943631.616    20943637.730
       242.000         209.000
  21698703.826   -20433032.43149 -15262627.43747  21698702.751    21698710.098
       236.000         193.000
  20988985.046   -22534301.02149 -16747337.38147  20988984.219    20988989.434
       242.000         208.000
  23104265.418   -10942654.63949  -8505432.19046  23104265.810    23104270.737
       224.000         170.000
 03  2  6  2  7 30.0000000  0  7G26G23G 6G17G15G18G29
  21621027.663   -14878733.55149 -11245899.03347  21621027.544    21621033.237
       235.000         189.000
  20785189.603   -20846350.43949 -16216117.13447  20785188.993    20785194.848
       243.000         212.000
  20938256.548   -23557555.83549 -18336602.23847  20938256.487    20938262.074
       240.000         205.000
  20940594.234   -24016858.13549 -18693665.50847  20940593.699    20940599.760
       242.000         209.000
  21688750.027   -20485339.34349 -15303386.00147  21688749.041    21688755.553
       236.000         194.000
  20980814.403   -22577237.86549 -16780794.60047  20980813.825    20980818.624
       242.000         208.000
  23113982.614   -10891590.56949  -8465641.97946  23113982.443    23113987.915
       223.000         170.000
 03  2  6  2  8  0.0000000  0  7G26G23G 6G17G15G18G29
  21625735.561   -14853993.70049 -11226621.19147  21625735.755    21625740.986
       234.000         189.000
  20791480.555   -20813290.77849 -16190356.33347  20791479.898    20791485.769
       243.000         212.000
  20949576.930   -23498066.81549 -18290247.14547  20949576.830    20949582.917
       240.000         205.000
  20937583.398   -24032679.91949 -18705994.13547  20937583.063    20937588.726
       242.000         209.000
  21678817.353   -20537535.73949 -15344058.44647  21678816.857    21678823.069
       237.000         195.000
  20972719.781   -22619775.15149 -16813940.47947  20972719.219    20972724.003
       242.000         208.000
  23123790.517   -10840049.88149  -8425480.39746  23123790.453    23123795.638
       223.000         169.000
 03  2  6  2  8 30.0000000  0  7G26G23G 6G17G15G18G29
  21630565.959   -14828609.51649 -11206841.28147  21630565.711    21630571.303
       234.000         189.000
  20797833.552   -20779905.56449 -16164341.86347  20797833.220    20797838.741
       243.000         211.000
  20960984.112   -23438121.59449 -18243536.57547  20960984.173    20960989.559
       240.000         204.000
  20934599.954   -24048358.38449 -18718211.09047  20934599.798    20934605.705
       242.000         209.000
  21668905.869   -20589621.27249 -15384644.50947  21668905.119    21668911.856
       238.000         196.000
  20964701.226   -22661912.79649 -16846774.95047  20964700.850    20964705.911
       243.000         209.000
  23133688.778   -10788034.02249  -8384948.54046  23133688.311    23133693.914
       223.000         170.000
 03  2  6  2  9  0.0000000  0  7G26G23G 6G17G15G18G29
  21635519.134   -14802580.31349 -11186558.75147  21635519.302    21635524.922
       235.000         189.000
  20804248.365   -20746195.62549 -16138074.35747  20804247.849    20804253.516
       243.000         211.000
  20972478.125   -23377720.28449 -18196470.60147  20972477.946    20972483.531
       240.000         204.000
  20931644.054   -24063892.11049 -18730315.25347  20931643.665    20931649.713
       242.000         209.000
  21659015.785   -20641594.29249 -15425142.89447  21659015.146    21659021.504
       239.000         196.000
  20956758.861   -22703649.77149 -16879297.21147  20956758.178    20956763.220
       242.000         209.000
  23143677.338   -10735543.72049  -8344046.98146  23143677.485    23143683.604
       222.000         169.000
 03  2  6  2  9 30.0000000  0  7G26G23G 6G17G15G18G29
  21640594.748   -14775907.81249 -11165774.95047  21640595.028    21640600.238
       234.000         189.000
  20810724.407   -20712163.52449 -16111555.81547  20810723.516    20810729.715
       242.000         211.000
  20984058.566   -23316864.80749 -18149050.73047  20984058.299    20984064.400
       241.000         204.000
  20928715.529   -24079281.84649 -18742307.21647  20928714.902    20928721.111
       241.000         209.000
  21649146.942   -20693455.06749 -15465553.82247  21649145.918    21649152.719
       237.000         196.000
  20948892.595   -22744987.00649 -16911507.99147  20948892.194    20948896.920
       243.000         209.000
  23153755.791   -10682581.21249  -8302777.48146  23153755.069    23153760.830
       221.000         169.000
 03  2  6  2 10  0.0000000  0  7G26G23G 6G17G15G18G29
  21645792.580   -14748593.13849 -11144490.76047  21645792.710    21645797.640
       235.000         189.000
  20817261.265   -20677811.56349 -16084788.03147  20817260.730    20817266.680
       242.000         211.000
  20995725.137   -23255556.86949 -18101278.29947  20995724.782    20995730.789
       240.000         204.000
  20925814.342   -24094527.23949 -18754186.70347  20925813.781    20925819.777
       241.000         209.000
  21639299.399   -20745203.76349 -15505877.41647  21639298.246    21639304.709
       237.000         195.000
  20941102.419   -22785924.79749 -16943407.52147  20941101.997    20941106.702
       243.000         210.000
  23163923.659   -10629148.44049  -8261141.53646  23163923.609    23163928.371
       222.000         168.000
 03  2  6  2 10 30.0000000  0  7G26G23G 6G17G15G18G29
  21651112.635   -14720636.27749 -11122706.16847  21651112.467    21651118.397
       234.000         189.000
  20823858.921   -20643140.89649 -16057771.90747  20823858.473    20823864.001
       242.000         211.000
  21007477.564   -23193796.90249 -18053153.64847  21007477.276    21007483.047
       239.000         203.000
  20922941.059   -24109626.59549 -18765952.39947  20922940.660    20922946.396
       242.000         209.000
  21629473.356   -20796839.17449 -15546112.73947  21629472.518    21629479.500
       236.000         194.000
  20933388.377   -22826462.31349 -16974995.13847  20933387.737    20933392.555
       243.000         210.000
  23174180.878   -10575246.48449  -8219139.99746  23174180.768    23174186.049
       222.000         168.000
 03  2  6  2 11  0.0000000  0  7G26G23G 6G17G15G18G29
  21656554.683   -14692037.63349 -11100421.47847  21656554.569    21656559.939
       234.000         189.000
  20830516.888   -20608153.02149 -16030508.60747  20830516.354    20830522.233
       241.000         211.000
  21019315.955   -23131585.67549 -18004677.35547  21019315.541    21019321.620
       240.000         203.000
  20920095.796   -24124579.10849 -18777603.67347  20920095.419    20920101.119
       242.000         209.000
  21619669.114   -20848360.26749 -15586258.98347  21619668.465    21619675.045
       237.000         194.000
  20925750.495   -22866599.40349 -17006270.74847  20925750.105    20925754.583
       244.000         210.000
  23184527.128   -10520876.37549  -8176773.67246  23184527.236    23184532.722
       222.000         168.000
 03  2  6  2 11 30.0000000  0  7G26G23G 6G17G15G18G29
  21662118.644   -14662798.93149 -11077638.05147  21662118.507    21662124.378
       235.000         188.000
  20837234.567   -20572850.75749 -16003000.32347  20837233.623    20837240.005
       241.000         210.000
  21031239.752   -23068925.35549 -17955851.12247  21031239.576    21031245.475
       239.000         203.000
  20917278.347   -24139385.01649 -18789140.70847  20917277.550    20917283.570
       242.000         209.000
  21609886.565   -20899767.75849 -15626316.70647  21609885.667    21609892.529
       237.000         195.000
  20918188.739   -22906336.74249 -17037234.86747  20918188.230    20918192.911
       243.000         210.000
  23194962.076   -10466040.85149  -8134044.68246  23194961.482    23194967.466
       223.000         168.000
 03  2  6  2 12  0.0000000  0  7G26G23G 6G17G15G18G29
  21667804.140   -14632921.48249 -11054356.88647  21667804.131    21667809.835
       234.000         189.000
  20844011.720   -20537236.21349 -15975248.70447  20844011.301    20844016.978
       242.000         210.000
  21043248.757   -23005817.53549 -17906676.18447  21043248.272    21043254.327
       239.000         202.000
  20914488.733   -24154044.30049 -18800563.48847  20914487.951    20914494.177
       241.000         209.000
  21600125.601   -20951061.31849 -15666285.65247  21600124.875    21600131.220
       237.000         195.000
  20910702.819   -22945674.97149 -17067887.98347  20910702.292    20910707.046
       243.000         210.000
  23205485.116   -10410741.83249  -8090954.51446  23205484.737    23205490.874
       222.000         168.000
 03  2  6  2 12 30.0000000  0  7G26G23G 6G17G15G18G29
  21673611.199   -14602405.24149 -11030577.97047  21673611.471    21673616.377
       234.000         189.000
  20850848.173   -20501310.76949 -15947254.82747  20850847.529    20850853.524
       241.000         210.000
  21055342.826   -22942262.61249 -17857152.86347  21055342.530    21055348.402
       238.000         202.000
  20911727.333   -24168555.06649 -18811870.54247  20911726.563    20911732.641
       242.000         209.000
  21590386.604   -21002239.51249 -15706164.70747  21590386.057    21590392.729
       238.000         195.000
  20903293.117   -22984613.11049 -17098229.34247  20903292.712    20903297.304
       243.000         210.000
  23216096.178   -10354980.25849  -8047503.92746  23216095.352    23216100.148
       223.000         168.000
 03  2  6  2 13  0.0000000  0  7G26G23G 6G17G15G18G29
  21679539.467   -14571251.72649 -11006302.48047  21679539.357    21679544.810
       233.000         188.000
  20857743.206   -20465076.73249 -15919020.48647  20857742.515    20857748.553
       241.000         209.000
  21067521.611   -22878262.49549 -17807282.63847  21067521.418    21067527.253
       239.000         202.000
  20908994.229   -24182917.13249 -18823061.72947  20908993.475    20908999.445
       242.000         209.000
  21580669.687   -21053302.44049 -15745953.93847  21580669.064    21580675.745
       238.000         195.000
  20895959.372   -23023151.89349 -17128259.52047  20895958.799    20895963.453
       243.000         209.000
  23226794.985   -10298758.19549  -8003694.53046  23226795.304    23226800.095
       223.000         168.000
 03  2  6  2 13 30.0000000  0  7G26G23G 6G17G15G18G29
  21685588.707   -14539462.62149 -10981531.72147  21685588.899    21685594.369
       234.000         188.000
  20864696.432   -20428536.79349 -15890547.77847  20864695.782    20864701.839
       241.000         209.000
  21079784.743   -22813819.30549 -17757067.16047  21079784.639    21079790.479
       238.000         202.000
  20906289.275   -24197131.03549 -18834137.46647  20906288.448    20906294.413
       241.000         209.000
  21570974.615   -21104250.19549 -15785653.42947  21570973.746    21570980.454
       237.000         195.000
  20888701.419   -23061292.37249 -17157979.32747  20888700.703    20888705.691
       242.000         209.000
  23237580.757   -10242078.36149  -7959528.41246  23237580.188    23237586.715
       222.000         168.000
 03  2  6  2 14  0.0000000  0  7G26G23G 6G17G15G18G29
  21691758.894   -14507037.89349 -10956265.67746  21691758.778    21691764.078
       233.000         187.000
  20871707.774   -20391691.89149 -15861837.43647  20871707.388    20871713.077
       242.000         209.000
  21092132.173   -22748933.18949 -17706506.54447  21092131.831    21092137.848
       238.000         202.000
  20903612.907   -24211194.85749 -18845096.25747  20903612.290    20903618.349
       242.000         209.000
  21561301.637   -21155081.56249 -15825262.22647  21561300.342    21561307.111
       237.000         194.000
  20881519.469   -23099033.56649 -17187388.00147  20881518.875    20881523.439
       242.000         209.000
  23248453.544   -10184941.21749  -7915005.95546  23248453.451    23248459.220
       221.000         168.000
 03  2  6  2 14 30.0000000  0  7G26G23G 6G17G15G18G29
  21698049.882   -14473978.23549 -10930504.87146  21698050.102    21698055.283
       234.000         187.000
  20878776.915   -20354543.53949 -15832890.64647  20878776.434    20878782.325
       242.000         210.000
  21104563.642   -22683605.19849 -17655601.61947  21104563.235    21104569.464
       238.000         201.000
  20900965.331   -24225107.55649 -18855937.28847  20900964.793    20900971.065
       242.000         210.000
  21551651.003   -21205795.34249 -15864779.39747  21551649.663    21551656.900
       237.000         194.000
  20874413.489   -23136375.34849 -17216485.44947  20874412.925    20874417.746
       242.000         210.000
  23259413.069   -10127348.22049  -7870128.28146  23259412.784    23259418.743
       220.000         167.000
 03  2  6  2 15  0.0000000  0  7G26G23G 6G17G15G18G29
  21704461.501   -14440284.95849 -10904250.35247  21704461.404    21704467.027
       234.000         188.000
  20885903.291   -20317093.88849 -15803709.06747  20885902.471    20885908.592
       241.000         209.000
  21117078.935   -22617837.11949 -17604353.75247  21117078.821    21117084.700
       238.000         201.000
  20898346.677   -24238868.64149 -18866660.17847  20898346.346    20898352.266
       242.000         210.000
  21542022.940   -21256391.28949 -15904204.75347  21542022.248    21542028.816
       238.000         195.000
  20867383.512   -23173317.93749 -17245271.83247  20867382.971    20867387.738
       243.000         209.000
  23270458.975   -10069301.62549  -7824897.15946  23270459.596    23270464.632
       221.000         167.000
 03  2  6  2 15 30.0000000  0  7G26G23G 6G17G15G18G29
  21710993.223   -14405960.27149 -10877503.81446  21710992.982    21710998.150
       233.000         187.000
  20893086.383   -20279346.06849 -15774295.15147  20893085.828    20893091.831
       242.000         209.000
  21129677.458   -22551631.48149 -17552764.94047  21129677.359    21129683.054
       238.000         201.000
  20895756.726   -24252479.07449 -18877265.68447  20895756.289    20895762.001
       242.000         210.000
  21532417.194   -21306870.27149 -15943538.97447  21532416.868    21532422.701
       239.000         196.000
  20860429.260   -23209862.73849 -17273748.25647  20860428.536    20860433.429
       242.000         210.000
  23281590.703   -10010804.17249  -7779314.72946  23281590.470    23281595.829
       219.000         167.000
 03  2  6  2 16  0.0000000  0  7G26G23G 6G17G15G18G29
  21717645.053   -14371004.63549 -10850265.63846  21717645.107    21717650.542
       233.000         187.000
  20900326.102   -20241301.15149 -15744649.73547  20900326.085    20900331.545
       243.000         210.000
  21142359.128   -22484988.79149 -17500835.56047  21142358.730    21142364.766
       238.000         201.000
  20893195.859   -24265936.69249 -18887752.11347  20893195.372    20893200.848
       242.000         210.000
  21522833.944   -21357230.71449 -15982780.81947  21522832.833    21522839.567
       237.000         195.000
  20853550.750   -23246009.10049 -17301914.20247  20853550.128    20853555.000
       242.000         210.000
  23292807.901    -9951856.94549  -7733381.81646  23292807.385    23292814.093
       219.000         166.000
 03  2  6  2 16 30.0000000  0  7G26G23G 6G17G15G18G29
  21724417.024   -14335417.61849 -10822535.47646  21724416.639    21724422.360
       233.000         187.000
  20907622.353   -20202959.82249 -15714773.35047  20907621.835    20907627.505
       242.000         210.000
  21155123.925   -22417909.21349 -17448565.75747  21155123.503    21155129.444
       239.000         201.000
  20890664.394   -24279239.81049 -18898118.14747  20890663.894    20890669.742
       242.000         210.000
  21513273.396   -21407470.76849 -16021928.85547  21513272.272    21513279.279
       237.000         195.000
  20846748.292   -23281755.97949 -17329768.86547  20846747.837    20846752.720
       243.000         210.000
  23304110.669    -9892460.30649  -7687098.72346  23304110.010    23304116.897
       219.000         167.000
 03  2  6  2 17  0.0000000  0  7G26G23G 6G17G15G18G29
  21731308.673   -14299201.36549 -10794314.99346  21731308.718    21731313.743
       233.000         187.000
  20914974.263   -20164324.76949 -15684668.08547  20914973.675    20914979.546
       242.000         210.000
  21167971.443   -22350395.07249 -17395957.32747  21167971.528    21167977.303
       239.000         201.000
  20888162.275   -24292388.50149 -18908363.85147  20888161.767    20888167.732
       243.000         210.000
  21503735.718   -21457590.86449 -16060983.41847  21503735.274    21503741.387
       239.000         195.000
  20840021.710   -23317104.56149 -17357313.16647  20840021.184    20840025.839
       242.000         210.000
  23315498.323    -9832617.12949  -7640467.67346  23315498.466    23315503.974
       218.000         166.000
 03  2  6  2 17 30.0000000  0  7G26G23G 6G17G15G18G29
  21738319.718   -14262358.02949 -10765605.88546  21738319.634    21738324.984
       233.000         187.000
  20922381.583   -20125398.98349 -15654336.27847  20922381.247    20922386.926
       243.000         210.000
  21180901.230   -22282448.74949 -17343012.13747  21180901.187    21180906.983
       239.000         201.000
  20885689.520   -24305383.21049 -18918489.57047  20885689.198    20885695.077
       243.000         210.000
  21494220.990   -21507591.30349 -16099944.75847  21494220.371    21494226.393
       238.000         196.000
  20833370.676   -23352055.62549 -17384547.71247  20833370.108    20833374.970
       243.000         210.000
  23326970.576    -9772329.96349  -7593490.65946  23326969.995    23326976.478
       217.000         166.000
 03  2  6  2 18  0.0000000  0  7G26G23G 6G17G15G18G29
  21745449.920   -14224888.54449 -10736408.86646  21745450.168    21745455.336
       233.000         187.000
  20929843.963   -20086184.19049 -15623779.27747  20929843.651    20929849.207
       243.000         210.000
  21193913.052   -22214071.33949 -17289731.03547  21193913.139    21193918.608
       239.000         201.000
  20883246.252   -24318222.98749 -18928494.56047  20883245.590    20883251.666
       242.000         210.000
  21484729.166   -21557471.23249 -16138812.19647  21484728.732    21484734.494
       239.000         197.000
  20826795.323   -23386609.34549 -17411472.64847  20826794.760    20826799.455
       243.000         211.000
  23338526.980    -9711600.53049  -7546169.02646  23338526.844    23338532.077
       217.000         166.000
 03  2  6  2 18 30.0000000  0  7G26G23G 6G17G15G18G29
  21752699.019   -14186794.03349 -10706724.80346  21752699.480    21752704.767
       232.000         187.000
  20937361.004   -20046682.18049 -15592998.46847  20937360.587    20937366.051
       243.000         210.000
  21207006.593   -22145264.40149 -17236115.23647  21207006.485    21207012.156
       239.000         201.000
  20880832.535   -24330906.93649 -18938378.12647  20880831.601    20880837.832
       242.000         210.000
  21475260.371   -21607230.06949 -16177585.26247  21475259.817    21475266.206
       238.000         197.000
  20820295.501   -23420765.96049 -17438088.14547  20820294.810    20820299.788
       243.000         211.000
  23350167.194    -9650430.56749  -7498504.11546  23350167.336    23350173.185
       218.000         166.000
 03  2  6  2 19  0.0000000  0  7G26G23G 6G17G15G18G29
  21760066.754   -14148076.11449 -10676554.97746  21760066.310    21760072.321
       233.000         186.000
  20944932.194   -20006895.08149 -15561995.50947  20944931.396    20944937.267
       242.000         210.000
  21220181.562   -22076029.66049 -17182166.07547  21220181.494    21220186.849
       239.000         201.000
  20878448.421   -24343434.61349 -18948139.91747  20878447.621    20878453.724
       241.000         209.000
  21465814.681   -21656867.37249 -16216263.62047  21465813.716    21465820.631
       238.000         198.000
  20813871.075   -23454526.10749 -17464394.70847  20813870.707    20813875.290
       243.000         211.000
  23361890.900    -9588822.41249  -7450497.76346  23361890.450    23361897.354
       218.000         166.000
 03  2  6  2 19 30.0000000  0  7G26G23G 6G17G15G18G29
  21767552.803   -14108736.39849 -10645900.63646  21767552.697    21767558.593
       233.000         186.000
  20952557.174   -19966825.29949 -15530772.28147  20952556.977    20952562.370
       244.000         210.000
  21233437.527   -22006368.98049 -17127885.02247  21233437.177    21233442.829
       239.000         200.000
  20876094.163   -24355805.66249 -18957779.66847  20876093.531    20876099.353
       241.000         209.000
  21456392.062   -21706382.96849 -16254847.13347  21456391.179    21456397.831
       239.000         199.000
  20807522.078   -23487890.38249 -17490392.80347  20807521.643    20807526.202
       242.000         211.000
  23373697.581    -9526778.09749  -7402151.53546  23373697.386    23373703.570
       216.000         165.000
 03  2  6  2 20  0.0000000  0  7G26G23G 6G17G15G18G29
  21775157.160   -14068775.32149 -10614762.10946  21775157.232    21775162.710
       232.000         186.000
  20960235.820   -19926473.96549 -15499329.66447  20960235.201    20960240.884
       243.000         210.000
  21246774.459   -21936282.95149 -17073272.53047  21246774.314    21246780.099
       239.000         200.000
  20873770.192   -24368018.06549 -18967295.79947  20873769.930    20873775.379
       242.000         209.000
  21446992.990   -21755775.26749 -16293334.58747  21446992.206    21446998.308
       239.000         199.000
  20801248.478   -23520857.92949 -17516081.75647  20801247.706    20801252.377
       242.000         210.000
  23385587.002    -9464298.81949  -7353466.37746  23385585.956    23385593.381
       217.000         165.000
 03  2  6  2 20 30.0000000  0  7G26G23G 6G17G15G18G29
  21782879.540   -14028194.01549 -10583140.30446  21782879.197    21782884.882
       234.000         186.000
  20967967.707   -19885842.67949 -15467668.90847  20967967.238    20967972.787
       243.000         210.000
  21260192.032   -21865772.96349 -17018329.68247  21260191.736    21260197.766
       238.000         200.000
  20871476.652   -24380071.09349 -18976687.74647  20871476.428    20871481.992
       242.000         209.000
  21437617.591   -21805043.45449 -16331725.33447  21437617.097    21437622.661
       240.000         198.000
  20795050.396   -23553428.85749 -17541461.66347  20795049.857    20795054.513
       243.000         211.000
  23397558.790    -9401386.24449  -7304443.60146  23397558.078    23397565.026
       216.000         164.000
 03  2  6  2 21  0.0000000  0  7G26G23G 6G17G15G18G29
  21790719.545   -13986994.44249 -10551036.71746  21790719.729    21790725.408
       233.000         186.000
  20975752.382   -19844933.91749 -15435791.93247  20975751.739    20975757.305
       243.000         210.000
  21273689.929   -21794841.05249 -16963058.06547  21273689.711    21273695.602
       238.000         200.000
  20869213.420   -24391964.61149 -18985955.38647  20869212.725    20869218.783
       241.000         210.000
  21428265.777   -21854187.72649 -16370019.52147  21428264.771    21428270.645
       239.000         198.000
  20788927.620   -23585604.33449 -17566533.42247  20788927.075    20788931.688
       243.000         211.000
  23409612.604    -9338042.82449  -7255085.10146  23409613.302    23409618.403
       218.000         164.000
 03  2  6  2 21 30.0000000  0  7G26G23G 6G17G15G18G29
  21798676.945   -13945177.91449 -10518452.39046  21798677.210    21798682.245
       233.000         186.000
  20983589.418   -19803749.43349 -15403700.10647  20983588.824    20983594.593
       242.000         210.000
  21287267.884   -21723488.58249 -16907458.74247  21287267.611    21287273.467
       237.000         199.000
  20866980.539   -24403698.17149 -18995098.38047  20866979.930    20866985.959
       242.000         209.000
  21418937.549   -21903207.38549 -16408216.60547  21418936.579    21418942.791
       239.000         198.000
  20782880.037   -23617384.27649 -17591296.96847  20782879.332    20782884.171
       242.000         210.000
  23421748.119    -9274270.39149  -7205392.30246  23421747.582    23421753.801
       217.000         164.000
 03  2  6  2 22  0.0000000  0  7G26G23G 6G17G15G18G29
  21806751.483   -13902746.08649 -10485388.62346  21806751.850    21806756.885
       234.000         186.000
  20991478.586   -19762291.58749 -15371395.27147  20991478.132    20991483.674
       243.000         209.000
  21300925.421   -21651717.52449 -16851533.24947  21300925.376    21300931.061
       238.000         199.000
  20864778.322   -24415270.85749 -19004116.02247  20864777.805    20864783.619
       242.000         209.000
  21409633.256   -21952101.77549 -16446316.08047  21409632.730    21409639.290
       239.000         199.000
  20776907.569   -23648769.56949 -17615753.00347  20776907.136    20776911.744
       243.000         211.000
  23433964.785    -9210071.21249  -7155366.97146  23433965.114    23433970.821
       218.000         164.000
 03  2  6  2 22 30.0000000  0  7G26G23G 6G17G15G18G29
  21814942.927   -13859700.16949 -10451846.33646  21814943.289    21814948.581
       232.000         186.000
  20999419.467   -19720562.01949 -15338878.70847  20999418.765    20999424.545
       242.000         209.000
  21314662.429   -21579529.07049 -16795282.51047  21314662.316    21314668.107
       236.000         197.000
  20862606.911   -24426681.58749 -19013007.46947  20862606.228    20862611.862
       242.000         209.000
  21400352.977   -22000870.11149 -16484317.32747  21400352.174    21400358.284
       239.000         200.000
  20771010.299   -23679759.96849 -17639901.32347  20771009.649    20771014.441
       242.000         211.000
  23446262.343    -9145446.91049  -7105010.37246  23446262.540    23446267.662
       218.000         165.000
 03  2  6  2 23  0.0000000  0  7G26G23G 6G17G15G18G29
  21823250.748   -13816042.16049 -10417827.09646  21823251.048    21823255.869
       232.000         186.000
  21007411.536   -19678563.22749 -15306152.36047  21007410.842    21007416.897
       242.000         209.000
  21328478.388   -21506925.46649 -16738708.27747  21328477.982    21328484.148
       235.000         196.000
  20860466.367   -24437930.07449 -19021772.49747  20860465.890    20860471.634
       242.000         209.000
  21391096.585   -22049512.22949 -16522220.22147  21391095.393    21391102.536
       237.000         199.000
  20765187.815   -23710356.78549 -17663742.95447  20765187.530    20765192.114
       243.000         211.000
  23458640.255    -9080400.01349  -7054324.48746  23458640.461    23458645.934
       216.000         164.000
 03  2  6  2 23 30.0000000  0  7G26G23G 6G17G15G18G29
  21831674.984   -13771772.50149 -10383331.25046  21831675.036    21831680.088
       232.000         185.000
  21015454.690   -19636295.89149 -15273216.74947  21015454.034    21015459.791
       242.000         209.000
  21342373.240   -21433907.26949 -16681810.97447  21342373.003    21342378.909
       235.000         196.000
  20858356.979   -24449014.91649 -19030410.01347  20858356.280    20858362.045
       242.000         209.000
  21381864.453   -22098026.45549 -16560023.45347  21381863.284    21381870.043
       237.000         198.000
  20759440.553   -23740558.92749 -17687277.05247  20759440.059    20759444.616
       243.000         211.000
  23471098.484    -9014931.54849  -7003310.10246  23471098.127    23471103.788
       217.000         164.000
 03  2  6  2 24  0.0000000  0  7G26G23G 6G17G15G18G29
  21840215.234   -13726893.32849 -10348360.45446  21840215.493    21840220.951
       232.000         185.000
  21023548.475   -19593762.73149 -15240074.00847  21023547.921    21023553.678
       242.000         209.000
  21356346.603   -21360476.67649 -16624592.33647  21356346.269    21356352.131
       235.000         196.000
  20856278.751   -24459935.74949 -19038919.72547  20856278.089    20856283.943
       242.000         209.000
  21372656.791   -22146412.57649 -16597726.87847  21372656.148    21372662.139
       238.000         198.000
  20753768.171   -23770367.47849 -17710504.45747  20753767.446    20753772.192
       242.000         211.000
  23483636.556    -8949044.11449  -6951969.26646  23483636.407    23483642.129
       217.000         163.000
 03  2  6  2 24 30.0000000  0  7G26G23G 6G17G15G18G29
  21848870.993   -13681406.96749 -10312916.52746  21848871.101    21848875.987
       232.000         185.000
  21031692.270   -19550966.55349 -15206726.31847  21031691.753    21031697.388
       242.000         209.000
  21370397.919   -21286636.32449 -16567054.40547  21370397.781    21370403.734
       235.000         196.000
  20854231.810   -24470692.25249 -19047301.38547  20854231.406    20854237.124
       242.000         209.000
  21363473.543   -22194671.02549 -16635330.82247  21363472.636    21363478.883
       238.000         198.000
  20748170.327   -23799783.84849 -17733426.25947  20748169.871    20748174.330
       243.000         211.000
  23496253.655    -8882740.47449  -6900304.09146  23496253.682    23496259.602
       217.000         163.000
 03  2  6  2 25  0.0000000  0  7G26G23G 6G17G15G18G29
  21857642.113   -13635314.19849 -10277000.07746  21857642.549    21857647.556
       232.000         184.000
  21039886.021   -19507908.36549 -15173174.46747  21039885.500    21039891.153
       242.000         209.000
  21384527.199   -21212386.89249 -16509197.71047  21384527.120    21384532.806
       235.000         196.000
  20852216.489   -24481282.97549 -19055553.87347  20852215.991    20852221.731
       243.000         210.000
  21354314.903   -22242799.97249 -16672833.85247  21354314.216    21354320.383
       238.000         199.000
  20742647.348   -23828807.48949 -17756042.05047  20742646.884    20742651.299
       243.000         211.000
  23508949.784    -8816021.71149  -6848315.44446  23508950.073    23508956.313
       218.000         164.000
 03  2  6  2 25 30.0000000  0  7G26G23G 6G17G15G18G29
  21866528.352   -13588616.64949 -10240612.37246  21866528.098    21866533.925
       232.000         184.000
  21048129.125   -19464590.23949 -15139420.06447  21048128.654    21048134.247
       242.000         209.000
  21398733.908   -21137730.12749 -16451023.61447  21398733.715    21398739.529
       235.000         195.000
  20850232.843   -24491707.42049 -19063676.79647  20850232.354    20850237.830
       243.000         210.000
  21345181.022   -22290798.62049 -16710235.35247  21345180.019    21345186.680
       238.000         199.000
  20737198.970   -23857438.63549 -17778351.99547  20737198.276    20737202.846
       243.000         211.000
  23521724.531    -8748890.13249  -6796005.13346  23521724.799    23521730.624
       218.000         164.000
